<?xml version="1.0" encoding="UTF-8" standalone="no" ?>
<gpx xmlns="http://www.topografix.com/GPX/1/1" xmlns:xsi="http://www.w3.org/2001/XMLSchema-instance" xsi:schemaLocation="http://www.topografix.com/GPX/1/1 http://www.topografix.com/GPX/1/1/gpx.xsd" version="1.1" creator="VisuGPX - https://www.visugpx.com">
  <metadata>
    <name>Rando VTT Olima/bult/Olima</name>
    <desc><![CDATA[Difficulté moyenne ]]></desc>
  </metadata>
  <trk>
    <name><![CDATA[Rando étangs bult 27kms/D+1000]]></name>
    <trkseg>
      <trkpt lat="48.17332" lon="6.42171">
        <ele>336.6</ele>
        <time>2012-05-04T11:29:05Z</time>
      </trkpt>
      <trkpt lat="48.17342" lon="6.42152">
        <ele>394.28</ele>
        <time>2012-05-04T11:29:25Z</time>
      </trkpt>
      <trkpt lat="48.17339" lon="6.42166">
        <ele>392.84</ele>
        <time>2012-05-04T11:29:52Z</time>
      </trkpt>
      <trkpt lat="48.1733" lon="6.42174">
        <ele>387.07</ele>
        <time>2012-05-04T11:30:17Z</time>
      </trkpt>
      <trkpt lat="48.17332" lon="6.42172">
        <ele>386.11</ele>
        <time>2012-05-04T11:30:18Z</time>
      </trkpt>
      <trkpt lat="48.17345" lon="6.42151">
        <ele>383.22</ele>
        <time>2012-05-04T11:30:25Z</time>
      </trkpt>
      <trkpt lat="48.1736" lon="6.42109">
        <ele>377.45</ele>
        <time>2012-05-04T11:30:33Z</time>
      </trkpt>
      <trkpt lat="48.17362" lon="6.42104">
        <ele>376.49</ele>
        <time>2012-05-04T11:30:34Z</time>
      </trkpt>
      <trkpt lat="48.17365" lon="6.42087">
        <ele>375.05</ele>
        <time>2012-05-04T11:30:37Z</time>
      </trkpt>
      <trkpt lat="48.17365" lon="6.42081">
        <ele>375.05</ele>
        <time>2012-05-04T11:30:38Z</time>
      </trkpt>
      <trkpt lat="48.17365" lon="6.42075">
        <ele>375.05</ele>
        <time>2012-05-04T11:30:39Z</time>
      </trkpt>
      <trkpt lat="48.17356" lon="6.42006">
        <ele>374.57</ele>
        <time>2012-05-04T11:30:51Z</time>
      </trkpt>
      <trkpt lat="48.17337" lon="6.4194">
        <ele>372.17</ele>
        <time>2012-05-04T11:31:03Z</time>
      </trkpt>
      <trkpt lat="48.17315" lon="6.41905">
        <ele>372.65</ele>
        <time>2012-05-04T11:31:11Z</time>
      </trkpt>
      <trkpt lat="48.17303" lon="6.41888">
        <ele>372.65</ele>
        <time>2012-05-04T11:31:15Z</time>
      </trkpt>
      <trkpt lat="48.17281" lon="6.41856">
        <ele>372.65</ele>
        <time>2012-05-04T11:31:23Z</time>
      </trkpt>
      <trkpt lat="48.17278" lon="6.41852">
        <ele>372.65</ele>
        <time>2012-05-04T11:31:24Z</time>
      </trkpt>
      <trkpt lat="48.17276" lon="6.41847">
        <ele>372.65</ele>
        <time>2012-05-04T11:31:25Z</time>
      </trkpt>
      <trkpt lat="48.17273" lon="6.41842">
        <ele>372.65</ele>
        <time>2012-05-04T11:31:26Z</time>
      </trkpt>
      <trkpt lat="48.17271" lon="6.41838">
        <ele>372.65</ele>
        <time>2012-05-04T11:31:27Z</time>
      </trkpt>
      <trkpt lat="48.17268" lon="6.41834">
        <ele>372.65</ele>
        <time>2012-05-04T11:31:28Z</time>
      </trkpt>
      <trkpt lat="48.17265" lon="6.41829">
        <ele>372.65</ele>
        <time>2012-05-04T11:31:29Z</time>
      </trkpt>
      <trkpt lat="48.17262" lon="6.41825">
        <ele>373.13</ele>
        <time>2012-05-04T11:31:30Z</time>
      </trkpt>
      <trkpt lat="48.17259" lon="6.41819">
        <ele>373.13</ele>
        <time>2012-05-04T11:31:31Z</time>
      </trkpt>
      <trkpt lat="48.17256" lon="6.41814">
        <ele>373.13</ele>
        <time>2012-05-04T11:31:32Z</time>
      </trkpt>
      <trkpt lat="48.17235" lon="6.41771">
        <ele>374.09</ele>
        <time>2012-05-04T11:31:40Z</time>
      </trkpt>
      <trkpt lat="48.17233" lon="6.41765">
        <ele>374.09</ele>
        <time>2012-05-04T11:31:41Z</time>
      </trkpt>
      <trkpt lat="48.17228" lon="6.41754">
        <ele>374.09</ele>
        <time>2012-05-04T11:31:43Z</time>
      </trkpt>
      <trkpt lat="48.17226" lon="6.41749">
        <ele>374.09</ele>
        <time>2012-05-04T11:31:44Z</time>
      </trkpt>
      <trkpt lat="48.17224" lon="6.41743">
        <ele>374.09</ele>
        <time>2012-05-04T11:31:45Z</time>
      </trkpt>
      <trkpt lat="48.17218" lon="6.4172">
        <ele>374.09</ele>
        <time>2012-05-04T11:31:49Z</time>
      </trkpt>
      <trkpt lat="48.17207" lon="6.41672">
        <ele>374.57</ele>
        <time>2012-05-04T11:31:58Z</time>
      </trkpt>
      <trkpt lat="48.17191" lon="6.41629">
        <ele>375.05</ele>
        <time>2012-05-04T11:32:07Z</time>
      </trkpt>
      <trkpt lat="48.17188" lon="6.41614">
        <ele>375.53</ele>
        <time>2012-05-04T11:32:10Z</time>
      </trkpt>
      <trkpt lat="48.17181" lon="6.41542">
        <ele>376.97</ele>
        <time>2012-05-04T11:32:23Z</time>
      </trkpt>
      <trkpt lat="48.17179" lon="6.41505">
        <ele>377.45</ele>
        <time>2012-05-04T11:32:29Z</time>
      </trkpt>
      <trkpt lat="48.17174" lon="6.41479">
        <ele>377.45</ele>
        <time>2012-05-04T11:32:33Z</time>
      </trkpt>
      <trkpt lat="48.17167" lon="6.41425">
        <ele>377.94</ele>
        <time>2012-05-04T11:32:43Z</time>
      </trkpt>
      <trkpt lat="48.17167" lon="6.41401">
        <ele>377.45</ele>
        <time>2012-05-04T11:32:47Z</time>
      </trkpt>
      <trkpt lat="48.17168" lon="6.41385">
        <ele>377.45</ele>
        <time>2012-05-04T11:32:49Z</time>
      </trkpt>
      <trkpt lat="48.17169" lon="6.41377">
        <ele>377.45</ele>
        <time>2012-05-04T11:32:50Z</time>
      </trkpt>
      <trkpt lat="48.1717" lon="6.41369">
        <ele>377.45</ele>
        <time>2012-05-04T11:32:51Z</time>
      </trkpt>
      <trkpt lat="48.17171" lon="6.41361">
        <ele>377.94</ele>
        <time>2012-05-04T11:32:52Z</time>
      </trkpt>
      <trkpt lat="48.17171" lon="6.41355">
        <ele>377.94</ele>
        <time>2012-05-04T11:32:53Z</time>
      </trkpt>
      <trkpt lat="48.17172" lon="6.41348">
        <ele>377.94</ele>
        <time>2012-05-04T11:32:54Z</time>
      </trkpt>
      <trkpt lat="48.17174" lon="6.41336">
        <ele>377.94</ele>
        <time>2012-05-04T11:32:56Z</time>
      </trkpt>
      <trkpt lat="48.17181" lon="6.41274">
        <ele>378.9</ele>
        <time>2012-05-04T11:33:07Z</time>
      </trkpt>
      <trkpt lat="48.17187" lon="6.412">
        <ele>379.38</ele>
        <time>2012-05-04T11:33:20Z</time>
      </trkpt>
      <trkpt lat="48.17192" lon="6.41151">
        <ele>380.82</ele>
        <time>2012-05-04T11:33:29Z</time>
      </trkpt>
      <trkpt lat="48.17193" lon="6.41147">
        <ele>380.82</ele>
        <time>2012-05-04T11:33:30Z</time>
      </trkpt>
      <trkpt lat="48.17195" lon="6.41142">
        <ele>381.78</ele>
        <time>2012-05-04T11:33:31Z</time>
      </trkpt>
      <trkpt lat="48.17196" lon="6.41137">
        <ele>382.26</ele>
        <time>2012-05-04T11:33:32Z</time>
      </trkpt>
      <trkpt lat="48.17202" lon="6.41075">
        <ele>385.63</ele>
        <time>2012-05-04T11:33:43Z</time>
      </trkpt>
      <trkpt lat="48.17207" lon="6.41013">
        <ele>389.47</ele>
        <time>2012-05-04T11:33:54Z</time>
      </trkpt>
      <trkpt lat="48.17211" lon="6.40989">
        <ele>391.39</ele>
        <time>2012-05-04T11:33:59Z</time>
      </trkpt>
      <trkpt lat="48.17211" lon="6.40984">
        <ele>391.39</ele>
        <time>2012-05-04T11:34:00Z</time>
      </trkpt>
      <trkpt lat="48.1721" lon="6.40979">
        <ele>391.87</ele>
        <time>2012-05-04T11:34:01Z</time>
      </trkpt>
      <trkpt lat="48.1721" lon="6.40972">
        <ele>391.87</ele>
        <time>2012-05-04T11:34:02Z</time>
      </trkpt>
      <trkpt lat="48.1721" lon="6.40966">
        <ele>391.87</ele>
        <time>2012-05-04T11:34:03Z</time>
      </trkpt>
      <trkpt lat="48.1721" lon="6.40909">
        <ele>392.36</ele>
        <time>2012-05-04T11:34:13Z</time>
      </trkpt>
      <trkpt lat="48.17205" lon="6.40857">
        <ele>392.36</ele>
        <time>2012-05-04T11:34:22Z</time>
      </trkpt>
      <trkpt lat="48.17203" lon="6.40846">
        <ele>392.84</ele>
        <time>2012-05-04T11:34:24Z</time>
      </trkpt>
      <trkpt lat="48.17198" lon="6.4079">
        <ele>394.28</ele>
        <time>2012-05-04T11:34:34Z</time>
      </trkpt>
      <trkpt lat="48.17196" lon="6.40735">
        <ele>395.24</ele>
        <time>2012-05-04T11:34:44Z</time>
      </trkpt>
      <trkpt lat="48.17194" lon="6.40706">
        <ele>394.28</ele>
        <time>2012-05-04T11:34:50Z</time>
      </trkpt>
      <trkpt lat="48.17189" lon="6.40655">
        <ele>396.2</ele>
        <time>2012-05-04T11:35:00Z</time>
      </trkpt>
      <trkpt lat="48.17185" lon="6.40616">
        <ele>396.68</ele>
        <time>2012-05-04T11:35:08Z</time>
      </trkpt>
      <trkpt lat="48.17184" lon="6.40611">
        <ele>396.68</ele>
        <time>2012-05-04T11:35:09Z</time>
      </trkpt>
      <trkpt lat="48.17184" lon="6.40606">
        <ele>396.68</ele>
        <time>2012-05-04T11:35:10Z</time>
      </trkpt>
      <trkpt lat="48.17184" lon="6.40601">
        <ele>396.68</ele>
        <time>2012-05-04T11:35:11Z</time>
      </trkpt>
      <trkpt lat="48.17183" lon="6.40596">
        <ele>396.68</ele>
        <time>2012-05-04T11:35:12Z</time>
      </trkpt>
      <trkpt lat="48.17183" lon="6.40592">
        <ele>396.2</ele>
        <time>2012-05-04T11:35:13Z</time>
      </trkpt>
      <trkpt lat="48.1718" lon="6.40538">
        <ele>397.16</ele>
        <time>2012-05-04T11:35:24Z</time>
      </trkpt>
      <trkpt lat="48.17177" lon="6.40485">
        <ele>399.08</ele>
        <time>2012-05-04T11:35:35Z</time>
      </trkpt>
      <trkpt lat="48.17173" lon="6.40436">
        <ele>400.53</ele>
        <time>2012-05-04T11:35:45Z</time>
      </trkpt>
      <trkpt lat="48.17168" lon="6.40378">
        <ele>400.05</ele>
        <time>2012-05-04T11:35:56Z</time>
      </trkpt>
      <trkpt lat="48.17163" lon="6.40323">
        <ele>400.05</ele>
        <time>2012-05-04T11:36:07Z</time>
      </trkpt>
      <trkpt lat="48.17159" lon="6.40278">
        <ele>401.97</ele>
        <time>2012-05-04T11:36:16Z</time>
      </trkpt>
      <trkpt lat="48.17153" lon="6.40222">
        <ele>405.81</ele>
        <time>2012-05-04T11:36:28Z</time>
      </trkpt>
      <trkpt lat="48.1715" lon="6.40176">
        <ele>407.26</ele>
        <time>2012-05-04T11:36:38Z</time>
      </trkpt>
      <trkpt lat="48.17148" lon="6.40183">
        <ele>411.58</ele>
        <time>2012-05-04T11:37:41Z</time>
      </trkpt>
      <trkpt lat="48.17145" lon="6.40188">
        <ele>412.06</ele>
        <time>2012-05-04T11:37:42Z</time>
      </trkpt>
      <trkpt lat="48.17142" lon="6.4019">
        <ele>412.54</ele>
        <time>2012-05-04T11:37:43Z</time>
      </trkpt>
      <trkpt lat="48.17138" lon="6.4019">
        <ele>413.02</ele>
        <time>2012-05-04T11:37:44Z</time>
      </trkpt>
      <trkpt lat="48.17135" lon="6.40189">
        <ele>413.5</ele>
        <time>2012-05-04T11:37:45Z</time>
      </trkpt>
      <trkpt lat="48.17132" lon="6.40189">
        <ele>414.47</ele>
        <time>2012-05-04T11:37:46Z</time>
      </trkpt>
      <trkpt lat="48.17129" lon="6.4019">
        <ele>414.47</ele>
        <time>2012-05-04T11:37:47Z</time>
      </trkpt>
      <trkpt lat="48.17126" lon="6.40191">
        <ele>414.47</ele>
        <time>2012-05-04T11:37:48Z</time>
      </trkpt>
      <trkpt lat="48.17123" lon="6.40193">
        <ele>414.95</ele>
        <time>2012-05-04T11:37:49Z</time>
      </trkpt>
      <trkpt lat="48.1712" lon="6.40196">
        <ele>414.95</ele>
        <time>2012-05-04T11:37:50Z</time>
      </trkpt>
      <trkpt lat="48.171" lon="6.40209">
        <ele>414.95</ele>
        <time>2012-05-04T11:37:56Z</time>
      </trkpt>
      <trkpt lat="48.17097" lon="6.40212">
        <ele>415.43</ele>
        <time>2012-05-04T11:37:57Z</time>
      </trkpt>
      <trkpt lat="48.17094" lon="6.40215">
        <ele>415.43</ele>
        <time>2012-05-04T11:37:58Z</time>
      </trkpt>
      <trkpt lat="48.17091" lon="6.40216">
        <ele>414.95</ele>
        <time>2012-05-04T11:37:59Z</time>
      </trkpt>
      <trkpt lat="48.17088" lon="6.40217">
        <ele>414.47</ele>
        <time>2012-05-04T11:38:00Z</time>
      </trkpt>
      <trkpt lat="48.17085" lon="6.40218">
        <ele>414.47</ele>
        <time>2012-05-04T11:38:01Z</time>
      </trkpt>
      <trkpt lat="48.17047" lon="6.40237">
        <ele>413.02</ele>
        <time>2012-05-04T11:38:14Z</time>
      </trkpt>
      <trkpt lat="48.17014" lon="6.40241">
        <ele>413.02</ele>
        <time>2012-05-04T11:38:25Z</time>
      </trkpt>
      <trkpt lat="48.16981" lon="6.40247">
        <ele>416.87</ele>
        <time>2012-05-04T11:38:36Z</time>
      </trkpt>
      <trkpt lat="48.16953" lon="6.40243">
        <ele>415.91</ele>
        <time>2012-05-04T11:38:46Z</time>
      </trkpt>
      <trkpt lat="48.1695" lon="6.40242">
        <ele>415.91</ele>
        <time>2012-05-04T11:38:47Z</time>
      </trkpt>
      <trkpt lat="48.16947" lon="6.4024">
        <ele>415.43</ele>
        <time>2012-05-04T11:38:48Z</time>
      </trkpt>
      <trkpt lat="48.16945" lon="6.4024">
        <ele>414.47</ele>
        <time>2012-05-04T11:38:49Z</time>
      </trkpt>
      <trkpt lat="48.16943" lon="6.40239">
        <ele>414.47</ele>
        <time>2012-05-04T11:38:50Z</time>
      </trkpt>
      <trkpt lat="48.16941" lon="6.40238">
        <ele>414.47</ele>
        <time>2012-05-04T11:38:51Z</time>
      </trkpt>
      <trkpt lat="48.16938" lon="6.40238">
        <ele>413.5</ele>
        <time>2012-05-04T11:38:52Z</time>
      </trkpt>
      <trkpt lat="48.16935" lon="6.40237">
        <ele>413.5</ele>
        <time>2012-05-04T11:38:53Z</time>
      </trkpt>
      <trkpt lat="48.16933" lon="6.40237">
        <ele>413.02</ele>
        <time>2012-05-04T11:38:54Z</time>
      </trkpt>
      <trkpt lat="48.16931" lon="6.40236">
        <ele>413.02</ele>
        <time>2012-05-04T11:38:55Z</time>
      </trkpt>
      <trkpt lat="48.16929" lon="6.40236">
        <ele>412.54</ele>
        <time>2012-05-04T11:38:56Z</time>
      </trkpt>
      <trkpt lat="48.16926" lon="6.40236">
        <ele>413.02</ele>
        <time>2012-05-04T11:38:57Z</time>
      </trkpt>
      <trkpt lat="48.16905" lon="6.40236">
        <ele>412.54</ele>
        <time>2012-05-04T11:39:07Z</time>
      </trkpt>
      <trkpt lat="48.16901" lon="6.40236">
        <ele>413.02</ele>
        <time>2012-05-04T11:39:09Z</time>
      </trkpt>
      <trkpt lat="48.16899" lon="6.40235">
        <ele>413.02</ele>
        <time>2012-05-04T11:39:10Z</time>
      </trkpt>
      <trkpt lat="48.16897" lon="6.40235">
        <ele>413.5</ele>
        <time>2012-05-04T11:39:11Z</time>
      </trkpt>
      <trkpt lat="48.16895" lon="6.40235">
        <ele>413.98</ele>
        <time>2012-05-04T11:39:12Z</time>
      </trkpt>
      <trkpt lat="48.16893" lon="6.40235">
        <ele>413.98</ele>
        <time>2012-05-04T11:39:13Z</time>
      </trkpt>
      <trkpt lat="48.16883" lon="6.40233">
        <ele>413.98</ele>
        <time>2012-05-04T11:39:18Z</time>
      </trkpt>
      <trkpt lat="48.16881" lon="6.40234">
        <ele>414.47</ele>
        <time>2012-05-04T11:39:19Z</time>
      </trkpt>
      <trkpt lat="48.16852" lon="6.40223">
        <ele>418.79</ele>
        <time>2012-05-04T11:39:32Z</time>
      </trkpt>
      <trkpt lat="48.1684" lon="6.40208">
        <ele>420.23</ele>
        <time>2012-05-04T11:39:39Z</time>
      </trkpt>
      <trkpt lat="48.16837" lon="6.40205">
        <ele>420.71</ele>
        <time>2012-05-04T11:39:40Z</time>
      </trkpt>
      <trkpt lat="48.16835" lon="6.40203">
        <ele>421.19</ele>
        <time>2012-05-04T11:39:41Z</time>
      </trkpt>
      <trkpt lat="48.16808" lon="6.40177">
        <ele>423.6</ele>
        <time>2012-05-04T11:39:54Z</time>
      </trkpt>
      <trkpt lat="48.16796" lon="6.40142">
        <ele>420.71</ele>
        <time>2012-05-04T11:40:01Z</time>
      </trkpt>
      <trkpt lat="48.16789" lon="6.4012">
        <ele>419.27</ele>
        <time>2012-05-04T11:40:04Z</time>
      </trkpt>
      <trkpt lat="48.16788" lon="6.40109">
        <ele>418.79</ele>
        <time>2012-05-04T11:40:05Z</time>
      </trkpt>
      <trkpt lat="48.16787" lon="6.40087">
        <ele>416.87</ele>
        <time>2012-05-04T11:40:07Z</time>
      </trkpt>
      <trkpt lat="48.16785" lon="6.40076">
        <ele>415.91</ele>
        <time>2012-05-04T11:40:08Z</time>
      </trkpt>
      <trkpt lat="48.16783" lon="6.40065">
        <ele>414.95</ele>
        <time>2012-05-04T11:40:09Z</time>
      </trkpt>
      <trkpt lat="48.16779" lon="6.40055">
        <ele>413.98</ele>
        <time>2012-05-04T11:40:10Z</time>
      </trkpt>
      <trkpt lat="48.16776" lon="6.40046">
        <ele>413.5</ele>
        <time>2012-05-04T11:40:11Z</time>
      </trkpt>
      <trkpt lat="48.16774" lon="6.40038">
        <ele>412.54</ele>
        <time>2012-05-04T11:40:12Z</time>
      </trkpt>
      <trkpt lat="48.16773" lon="6.40032">
        <ele>412.06</ele>
        <time>2012-05-04T11:40:13Z</time>
      </trkpt>
      <trkpt lat="48.16771" lon="6.40028">
        <ele>411.58</ele>
        <time>2012-05-04T11:40:14Z</time>
      </trkpt>
      <trkpt lat="48.1677" lon="6.40024">
        <ele>411.1</ele>
        <time>2012-05-04T11:40:15Z</time>
      </trkpt>
      <trkpt lat="48.16768" lon="6.40019">
        <ele>411.1</ele>
        <time>2012-05-04T11:40:16Z</time>
      </trkpt>
      <trkpt lat="48.16767" lon="6.40015">
        <ele>410.62</ele>
        <time>2012-05-04T11:40:17Z</time>
      </trkpt>
      <trkpt lat="48.16766" lon="6.40011">
        <ele>410.14</ele>
        <time>2012-05-04T11:40:18Z</time>
      </trkpt>
      <trkpt lat="48.16765" lon="6.40007">
        <ele>410.14</ele>
        <time>2012-05-04T11:40:19Z</time>
      </trkpt>
      <trkpt lat="48.16757" lon="6.39964">
        <ele>405.81</ele>
        <time>2012-05-04T11:40:30Z</time>
      </trkpt>
      <trkpt lat="48.1675" lon="6.39925">
        <ele>401.01</ele>
        <time>2012-05-04T11:40:40Z</time>
      </trkpt>
      <trkpt lat="48.1675" lon="6.39921">
        <ele>400.53</ele>
        <time>2012-05-04T11:40:41Z</time>
      </trkpt>
      <trkpt lat="48.16749" lon="6.39917">
        <ele>400.05</ele>
        <time>2012-05-04T11:40:42Z</time>
      </trkpt>
      <trkpt lat="48.16748" lon="6.39914">
        <ele>399.08</ele>
        <time>2012-05-04T11:40:43Z</time>
      </trkpt>
      <trkpt lat="48.16748" lon="6.39911">
        <ele>398.6</ele>
        <time>2012-05-04T11:40:44Z</time>
      </trkpt>
      <trkpt lat="48.16748" lon="6.39908">
        <ele>397.64</ele>
        <time>2012-05-04T11:40:45Z</time>
      </trkpt>
      <trkpt lat="48.16749" lon="6.39905">
        <ele>396.68</ele>
        <time>2012-05-04T11:40:46Z</time>
      </trkpt>
      <trkpt lat="48.1675" lon="6.39902">
        <ele>395.72</ele>
        <time>2012-05-04T11:40:47Z</time>
      </trkpt>
      <trkpt lat="48.16756" lon="6.39879">
        <ele>392.84</ele>
        <time>2012-05-04T11:40:57Z</time>
      </trkpt>
      <trkpt lat="48.16758" lon="6.39876">
        <ele>394.28</ele>
        <time>2012-05-04T11:40:58Z</time>
      </trkpt>
      <trkpt lat="48.16759" lon="6.39874">
        <ele>395.72</ele>
        <time>2012-05-04T11:40:59Z</time>
      </trkpt>
      <trkpt lat="48.1676" lon="6.39872">
        <ele>396.2</ele>
        <time>2012-05-04T11:41:00Z</time>
      </trkpt>
      <trkpt lat="48.16763" lon="6.39869">
        <ele>396.2</ele>
        <time>2012-05-04T11:41:01Z</time>
      </trkpt>
      <trkpt lat="48.16765" lon="6.39867">
        <ele>396.2</ele>
        <time>2012-05-04T11:41:02Z</time>
      </trkpt>
      <trkpt lat="48.16768" lon="6.39865">
        <ele>396.68</ele>
        <time>2012-05-04T11:41:03Z</time>
      </trkpt>
      <trkpt lat="48.16771" lon="6.39861">
        <ele>396.2</ele>
        <time>2012-05-04T11:41:04Z</time>
      </trkpt>
      <trkpt lat="48.16774" lon="6.39856">
        <ele>395.72</ele>
        <time>2012-05-04T11:41:05Z</time>
      </trkpt>
      <trkpt lat="48.16776" lon="6.39849">
        <ele>396.2</ele>
        <time>2012-05-04T11:41:06Z</time>
      </trkpt>
      <trkpt lat="48.16778" lon="6.39843">
        <ele>396.2</ele>
        <time>2012-05-04T11:41:07Z</time>
      </trkpt>
      <trkpt lat="48.16785" lon="6.39797">
        <ele>394.76</ele>
        <time>2012-05-04T11:41:17Z</time>
      </trkpt>
      <trkpt lat="48.16786" lon="6.39797">
        <ele>395.24</ele>
        <time>2012-05-04T11:41:18Z</time>
      </trkpt>
      <trkpt lat="48.16788" lon="6.39797">
        <ele>395.72</ele>
        <time>2012-05-04T11:41:19Z</time>
      </trkpt>
      <trkpt lat="48.16791" lon="6.39798">
        <ele>397.16</ele>
        <time>2012-05-04T11:41:20Z</time>
      </trkpt>
      <trkpt lat="48.16794" lon="6.39799">
        <ele>398.12</ele>
        <time>2012-05-04T11:41:21Z</time>
      </trkpt>
      <trkpt lat="48.16796" lon="6.39797">
        <ele>398.6</ele>
        <time>2012-05-04T11:41:22Z</time>
      </trkpt>
      <trkpt lat="48.16797" lon="6.39794">
        <ele>399.57</ele>
        <time>2012-05-04T11:41:23Z</time>
      </trkpt>
      <trkpt lat="48.16798" lon="6.39792">
        <ele>400.05</ele>
        <time>2012-05-04T11:41:24Z</time>
      </trkpt>
      <trkpt lat="48.16799" lon="6.39785">
        <ele>401.01</ele>
        <time>2012-05-04T11:41:28Z</time>
      </trkpt>
      <trkpt lat="48.16795" lon="6.39754">
        <ele>405.81</ele>
        <time>2012-05-04T11:41:39Z</time>
      </trkpt>
      <trkpt lat="48.16796" lon="6.3974">
        <ele>407.26</ele>
        <time>2012-05-04T11:41:44Z</time>
      </trkpt>
      <trkpt lat="48.16797" lon="6.39738">
        <ele>407.74</ele>
        <time>2012-05-04T11:41:45Z</time>
      </trkpt>
      <trkpt lat="48.16797" lon="6.39734">
        <ele>408.22</ele>
        <time>2012-05-04T11:41:46Z</time>
      </trkpt>
      <trkpt lat="48.16797" lon="6.3973">
        <ele>408.7</ele>
        <time>2012-05-04T11:41:47Z</time>
      </trkpt>
      <trkpt lat="48.16796" lon="6.39727">
        <ele>409.18</ele>
        <time>2012-05-04T11:41:48Z</time>
      </trkpt>
      <trkpt lat="48.16798" lon="6.39712">
        <ele>411.58</ele>
        <time>2012-05-04T11:41:53Z</time>
      </trkpt>
      <trkpt lat="48.16798" lon="6.39706">
        <ele>411.58</ele>
        <time>2012-05-04T11:41:54Z</time>
      </trkpt>
      <trkpt lat="48.16799" lon="6.397">
        <ele>412.06</ele>
        <time>2012-05-04T11:41:55Z</time>
      </trkpt>
      <trkpt lat="48.16799" lon="6.39696">
        <ele>412.06</ele>
        <time>2012-05-04T11:41:56Z</time>
      </trkpt>
      <trkpt lat="48.168" lon="6.39692">
        <ele>412.06</ele>
        <time>2012-05-04T11:41:57Z</time>
      </trkpt>
      <trkpt lat="48.168" lon="6.39689">
        <ele>412.54</ele>
        <time>2012-05-04T11:41:58Z</time>
      </trkpt>
      <trkpt lat="48.168" lon="6.39685">
        <ele>413.5</ele>
        <time>2012-05-04T11:41:59Z</time>
      </trkpt>
      <trkpt lat="48.168" lon="6.39683">
        <ele>413.5</ele>
        <time>2012-05-04T11:42:00Z</time>
      </trkpt>
      <trkpt lat="48.168" lon="6.3968">
        <ele>413.98</ele>
        <time>2012-05-04T11:42:01Z</time>
      </trkpt>
      <trkpt lat="48.168" lon="6.39678">
        <ele>414.47</ele>
        <time>2012-05-04T11:42:02Z</time>
      </trkpt>
      <trkpt lat="48.168" lon="6.39675">
        <ele>414.95</ele>
        <time>2012-05-04T11:42:03Z</time>
      </trkpt>
      <trkpt lat="48.168" lon="6.39657">
        <ele>420.23</ele>
        <time>2012-05-04T11:42:19Z</time>
      </trkpt>
      <trkpt lat="48.16802" lon="6.39651">
        <ele>423.12</ele>
        <time>2012-05-04T11:42:43Z</time>
      </trkpt>
      <trkpt lat="48.16803" lon="6.39649">
        <ele>427.92</ele>
        <time>2012-05-04T11:43:02Z</time>
      </trkpt>
      <trkpt lat="48.16803" lon="6.39648">
        <ele>427.92</ele>
        <time>2012-05-04T11:43:13Z</time>
      </trkpt>
      <trkpt lat="48.16815" lon="6.39647">
        <ele>427.44</ele>
        <time>2012-05-04T11:43:17Z</time>
      </trkpt>
      <trkpt lat="48.16829" lon="6.39641">
        <ele>426.48</ele>
        <time>2012-05-04T11:43:19Z</time>
      </trkpt>
      <trkpt lat="48.16838" lon="6.39635">
        <ele>426</ele>
        <time>2012-05-04T11:43:20Z</time>
      </trkpt>
      <trkpt lat="48.16857" lon="6.39619">
        <ele>424.08</ele>
        <time>2012-05-04T11:43:22Z</time>
      </trkpt>
      <trkpt lat="48.16867" lon="6.39608">
        <ele>423.12</ele>
        <time>2012-05-04T11:43:23Z</time>
      </trkpt>
      <trkpt lat="48.16907" lon="6.3955">
        <ele>418.31</ele>
        <time>2012-05-04T11:43:28Z</time>
      </trkpt>
      <trkpt lat="48.16939" lon="6.39502">
        <ele>413.02</ele>
        <time>2012-05-04T11:43:33Z</time>
      </trkpt>
      <trkpt lat="48.16957" lon="6.39475">
        <ele>410.14</ele>
        <time>2012-05-04T11:43:36Z</time>
      </trkpt>
      <trkpt lat="48.17027" lon="6.39384">
        <ele>401.97</ele>
        <time>2012-05-04T11:43:45Z</time>
      </trkpt>
      <trkpt lat="48.17065" lon="6.39337">
        <ele>396.2</ele>
        <time>2012-05-04T11:43:50Z</time>
      </trkpt>
      <trkpt lat="48.17078" lon="6.39325">
        <ele>393.32</ele>
        <time>2012-05-04T11:43:52Z</time>
      </trkpt>
      <trkpt lat="48.17082" lon="6.3932">
        <ele>391.87</ele>
        <time>2012-05-04T11:43:53Z</time>
      </trkpt>
      <trkpt lat="48.17083" lon="6.39317">
        <ele>390.91</ele>
        <time>2012-05-04T11:43:54Z</time>
      </trkpt>
      <trkpt lat="48.17083" lon="6.39313">
        <ele>389.95</ele>
        <time>2012-05-04T11:43:55Z</time>
      </trkpt>
      <trkpt lat="48.17083" lon="6.3931">
        <ele>389.95</ele>
        <time>2012-05-04T11:43:56Z</time>
      </trkpt>
      <trkpt lat="48.17082" lon="6.39306">
        <ele>388.99</ele>
        <time>2012-05-04T11:43:57Z</time>
      </trkpt>
      <trkpt lat="48.1708" lon="6.39301">
        <ele>388.51</ele>
        <time>2012-05-04T11:43:58Z</time>
      </trkpt>
      <trkpt lat="48.17079" lon="6.39297">
        <ele>388.03</ele>
        <time>2012-05-04T11:43:59Z</time>
      </trkpt>
      <trkpt lat="48.17078" lon="6.39292">
        <ele>388.03</ele>
        <time>2012-05-04T11:44:00Z</time>
      </trkpt>
      <trkpt lat="48.17076" lon="6.39287">
        <ele>387.55</ele>
        <time>2012-05-04T11:44:01Z</time>
      </trkpt>
      <trkpt lat="48.17051" lon="6.3921">
        <ele>387.07</ele>
        <time>2012-05-04T11:44:14Z</time>
      </trkpt>
      <trkpt lat="48.17045" lon="6.39192">
        <ele>387.07</ele>
        <time>2012-05-04T11:44:17Z</time>
      </trkpt>
      <trkpt lat="48.17043" lon="6.39185">
        <ele>387.07</ele>
        <time>2012-05-04T11:44:18Z</time>
      </trkpt>
      <trkpt lat="48.17034" lon="6.39152">
        <ele>387.55</ele>
        <time>2012-05-04T11:44:23Z</time>
      </trkpt>
      <trkpt lat="48.17032" lon="6.39144">
        <ele>387.55</ele>
        <time>2012-05-04T11:44:24Z</time>
      </trkpt>
      <trkpt lat="48.1703" lon="6.39137">
        <ele>388.03</ele>
        <time>2012-05-04T11:44:25Z</time>
      </trkpt>
      <trkpt lat="48.17025" lon="6.39122">
        <ele>388.03</ele>
        <time>2012-05-04T11:44:27Z</time>
      </trkpt>
      <trkpt lat="48.17023" lon="6.39116">
        <ele>387.55</ele>
        <time>2012-05-04T11:44:28Z</time>
      </trkpt>
      <trkpt lat="48.17012" lon="6.39078">
        <ele>386.11</ele>
        <time>2012-05-04T11:44:33Z</time>
      </trkpt>
      <trkpt lat="48.17009" lon="6.39071">
        <ele>386.11</ele>
        <time>2012-05-04T11:44:34Z</time>
      </trkpt>
      <trkpt lat="48.17007" lon="6.39063">
        <ele>386.11</ele>
        <time>2012-05-04T11:44:35Z</time>
      </trkpt>
      <trkpt lat="48.16997" lon="6.3904">
        <ele>385.63</ele>
        <time>2012-05-04T11:44:38Z</time>
      </trkpt>
      <trkpt lat="48.16994" lon="6.39034">
        <ele>385.63</ele>
        <time>2012-05-04T11:44:39Z</time>
      </trkpt>
      <trkpt lat="48.16972" lon="6.39003">
        <ele>385.15</ele>
        <time>2012-05-04T11:44:44Z</time>
      </trkpt>
      <trkpt lat="48.16951" lon="6.38966">
        <ele>385.15</ele>
        <time>2012-05-04T11:44:49Z</time>
      </trkpt>
      <trkpt lat="48.16936" lon="6.38935">
        <ele>385.15</ele>
        <time>2012-05-04T11:44:53Z</time>
      </trkpt>
      <trkpt lat="48.16932" lon="6.38928">
        <ele>385.15</ele>
        <time>2012-05-04T11:44:54Z</time>
      </trkpt>
      <trkpt lat="48.16929" lon="6.38921">
        <ele>385.15</ele>
        <time>2012-05-04T11:44:55Z</time>
      </trkpt>
      <trkpt lat="48.16927" lon="6.38912">
        <ele>385.15</ele>
        <time>2012-05-04T11:44:56Z</time>
      </trkpt>
      <trkpt lat="48.16926" lon="6.38904">
        <ele>385.63</ele>
        <time>2012-05-04T11:44:57Z</time>
      </trkpt>
      <trkpt lat="48.16926" lon="6.38896">
        <ele>385.63</ele>
        <time>2012-05-04T11:44:58Z</time>
      </trkpt>
      <trkpt lat="48.16927" lon="6.38888">
        <ele>386.11</ele>
        <time>2012-05-04T11:44:59Z</time>
      </trkpt>
      <trkpt lat="48.16927" lon="6.3888">
        <ele>386.11</ele>
        <time>2012-05-04T11:45:00Z</time>
      </trkpt>
      <trkpt lat="48.16939" lon="6.38755">
        <ele>388.99</ele>
        <time>2012-05-04T11:45:18Z</time>
      </trkpt>
      <trkpt lat="48.16943" lon="6.38742">
        <ele>389.47</ele>
        <time>2012-05-04T11:45:20Z</time>
      </trkpt>
      <trkpt lat="48.16946" lon="6.38736">
        <ele>389.47</ele>
        <time>2012-05-04T11:45:21Z</time>
      </trkpt>
      <trkpt lat="48.16995" lon="6.38653">
        <ele>393.32</ele>
        <time>2012-05-04T11:45:33Z</time>
      </trkpt>
      <trkpt lat="48.16999" lon="6.38646">
        <ele>393.32</ele>
        <time>2012-05-04T11:45:34Z</time>
      </trkpt>
      <trkpt lat="48.17021" lon="6.3861">
        <ele>394.76</ele>
        <time>2012-05-04T11:45:39Z</time>
      </trkpt>
      <trkpt lat="48.17024" lon="6.38603">
        <ele>394.76</ele>
        <time>2012-05-04T11:45:40Z</time>
      </trkpt>
      <trkpt lat="48.17028" lon="6.38597">
        <ele>394.76</ele>
        <time>2012-05-04T11:45:41Z</time>
      </trkpt>
      <trkpt lat="48.17034" lon="6.38582">
        <ele>393.8</ele>
        <time>2012-05-04T11:45:43Z</time>
      </trkpt>
      <trkpt lat="48.17035" lon="6.38576">
        <ele>393.32</ele>
        <time>2012-05-04T11:45:44Z</time>
      </trkpt>
      <trkpt lat="48.17033" lon="6.3857">
        <ele>393.32</ele>
        <time>2012-05-04T11:45:45Z</time>
      </trkpt>
      <trkpt lat="48.1703" lon="6.38567">
        <ele>392.84</ele>
        <time>2012-05-04T11:45:46Z</time>
      </trkpt>
      <trkpt lat="48.17027" lon="6.38566">
        <ele>392.84</ele>
        <time>2012-05-04T11:45:47Z</time>
      </trkpt>
      <trkpt lat="48.17023" lon="6.38565">
        <ele>392.84</ele>
        <time>2012-05-04T11:45:48Z</time>
      </trkpt>
      <trkpt lat="48.1702" lon="6.38564">
        <ele>392.84</ele>
        <time>2012-05-04T11:45:49Z</time>
      </trkpt>
      <trkpt lat="48.17016" lon="6.38564">
        <ele>392.84</ele>
        <time>2012-05-04T11:45:50Z</time>
      </trkpt>
      <trkpt lat="48.16979" lon="6.38548">
        <ele>392.84</ele>
        <time>2012-05-04T11:46:00Z</time>
      </trkpt>
      <trkpt lat="48.16944" lon="6.38518">
        <ele>394.76</ele>
        <time>2012-05-04T11:46:11Z</time>
      </trkpt>
      <trkpt lat="48.169" lon="6.38489">
        <ele>401.01</ele>
        <time>2012-05-04T11:46:24Z</time>
      </trkpt>
      <trkpt lat="48.16868" lon="6.38477">
        <ele>403.41</ele>
        <time>2012-05-04T11:46:34Z</time>
      </trkpt>
      <trkpt lat="48.16826" lon="6.38451">
        <ele>408.22</ele>
        <time>2012-05-04T11:46:48Z</time>
      </trkpt>
      <trkpt lat="48.168" lon="6.38432">
        <ele>416.39</ele>
        <time>2012-05-04T11:46:59Z</time>
      </trkpt>
      <trkpt lat="48.16769" lon="6.3842">
        <ele>420.23</ele>
        <time>2012-05-04T11:47:10Z</time>
      </trkpt>
      <trkpt lat="48.16767" lon="6.38419">
        <ele>420.71</ele>
        <time>2012-05-04T11:47:11Z</time>
      </trkpt>
      <trkpt lat="48.16735" lon="6.384">
        <ele>423.12</ele>
        <time>2012-05-04T11:47:22Z</time>
      </trkpt>
      <trkpt lat="48.16709" lon="6.38375">
        <ele>426</ele>
        <time>2012-05-04T11:47:31Z</time>
      </trkpt>
      <trkpt lat="48.16673" lon="6.38346">
        <ele>427.44</ele>
        <time>2012-05-04T11:47:43Z</time>
      </trkpt>
      <trkpt lat="48.16642" lon="6.38329">
        <ele>426</ele>
        <time>2012-05-04T11:47:53Z</time>
      </trkpt>
      <trkpt lat="48.16627" lon="6.38336">
        <ele>425.04</ele>
        <time>2012-05-04T11:47:57Z</time>
      </trkpt>
      <trkpt lat="48.16622" lon="6.38338">
        <ele>425.04</ele>
        <time>2012-05-04T11:47:58Z</time>
      </trkpt>
      <trkpt lat="48.16613" lon="6.38341">
        <ele>424.08</ele>
        <time>2012-05-04T11:48:00Z</time>
      </trkpt>
      <trkpt lat="48.16604" lon="6.38346">
        <ele>423.12</ele>
        <time>2012-05-04T11:48:02Z</time>
      </trkpt>
      <trkpt lat="48.166" lon="6.38347">
        <ele>422.64</ele>
        <time>2012-05-04T11:48:03Z</time>
      </trkpt>
      <trkpt lat="48.16567" lon="6.38358">
        <ele>420.71</ele>
        <time>2012-05-04T11:48:11Z</time>
      </trkpt>
      <trkpt lat="48.16563" lon="6.3836">
        <ele>420.23</ele>
        <time>2012-05-04T11:48:12Z</time>
      </trkpt>
      <trkpt lat="48.1655" lon="6.38363">
        <ele>418.79</ele>
        <time>2012-05-04T11:48:15Z</time>
      </trkpt>
      <trkpt lat="48.16546" lon="6.38365">
        <ele>418.31</ele>
        <time>2012-05-04T11:48:16Z</time>
      </trkpt>
      <trkpt lat="48.16541" lon="6.38366">
        <ele>417.83</ele>
        <time>2012-05-04T11:48:17Z</time>
      </trkpt>
      <trkpt lat="48.16532" lon="6.38367">
        <ele>417.35</ele>
        <time>2012-05-04T11:48:19Z</time>
      </trkpt>
      <trkpt lat="48.16528" lon="6.38369">
        <ele>416.87</ele>
        <time>2012-05-04T11:48:20Z</time>
      </trkpt>
      <trkpt lat="48.16524" lon="6.3837">
        <ele>415.91</ele>
        <time>2012-05-04T11:48:21Z</time>
      </trkpt>
      <trkpt lat="48.16487" lon="6.3838">
        <ele>412.54</ele>
        <time>2012-05-04T11:48:29Z</time>
      </trkpt>
      <trkpt lat="48.16483" lon="6.38381">
        <ele>412.54</ele>
        <time>2012-05-04T11:48:30Z</time>
      </trkpt>
      <trkpt lat="48.1645" lon="6.38388">
        <ele>408.22</ele>
        <time>2012-05-04T11:48:38Z</time>
      </trkpt>
      <trkpt lat="48.16421" lon="6.38396">
        <ele>405.33</ele>
        <time>2012-05-04T11:48:44Z</time>
      </trkpt>
      <trkpt lat="48.16416" lon="6.38397">
        <ele>405.33</ele>
        <time>2012-05-04T11:48:45Z</time>
      </trkpt>
      <trkpt lat="48.16412" lon="6.38398">
        <ele>404.85</ele>
        <time>2012-05-04T11:48:46Z</time>
      </trkpt>
      <trkpt lat="48.16408" lon="6.384">
        <ele>404.37</ele>
        <time>2012-05-04T11:48:47Z</time>
      </trkpt>
      <trkpt lat="48.16403" lon="6.38401">
        <ele>403.89</ele>
        <time>2012-05-04T11:48:48Z</time>
      </trkpt>
      <trkpt lat="48.16399" lon="6.38402">
        <ele>403.41</ele>
        <time>2012-05-04T11:48:49Z</time>
      </trkpt>
      <trkpt lat="48.16394" lon="6.38403">
        <ele>403.41</ele>
        <time>2012-05-04T11:48:50Z</time>
      </trkpt>
      <trkpt lat="48.16389" lon="6.38404">
        <ele>402.93</ele>
        <time>2012-05-04T11:48:51Z</time>
      </trkpt>
      <trkpt lat="48.16385" lon="6.38406">
        <ele>402.45</ele>
        <time>2012-05-04T11:48:52Z</time>
      </trkpt>
      <trkpt lat="48.1638" lon="6.38408">
        <ele>402.45</ele>
        <time>2012-05-04T11:48:53Z</time>
      </trkpt>
      <trkpt lat="48.16375" lon="6.38409">
        <ele>401.97</ele>
        <time>2012-05-04T11:48:54Z</time>
      </trkpt>
      <trkpt lat="48.16357" lon="6.38415">
        <ele>401.97</ele>
        <time>2012-05-04T11:48:58Z</time>
      </trkpt>
      <trkpt lat="48.16352" lon="6.38417">
        <ele>401.97</ele>
        <time>2012-05-04T11:48:59Z</time>
      </trkpt>
      <trkpt lat="48.16281" lon="6.38439">
        <ele>404.37</ele>
        <time>2012-05-04T11:49:15Z</time>
      </trkpt>
      <trkpt lat="48.16247" lon="6.3845">
        <ele>406.29</ele>
        <time>2012-05-04T11:49:22Z</time>
      </trkpt>
      <trkpt lat="48.16242" lon="6.38451">
        <ele>406.77</ele>
        <time>2012-05-04T11:49:23Z</time>
      </trkpt>
      <trkpt lat="48.16222" lon="6.38457">
        <ele>407.74</ele>
        <time>2012-05-04T11:49:27Z</time>
      </trkpt>
      <trkpt lat="48.162" lon="6.38464">
        <ele>407.74</ele>
        <time>2012-05-04T11:49:31Z</time>
      </trkpt>
      <trkpt lat="48.16195" lon="6.38465">
        <ele>407.26</ele>
        <time>2012-05-04T11:49:32Z</time>
      </trkpt>
      <trkpt lat="48.16189" lon="6.38467">
        <ele>406.77</ele>
        <time>2012-05-04T11:49:33Z</time>
      </trkpt>
      <trkpt lat="48.16143" lon="6.38481">
        <ele>402.93</ele>
        <time>2012-05-04T11:49:40Z</time>
      </trkpt>
      <trkpt lat="48.16137" lon="6.38486">
        <ele>402.45</ele>
        <time>2012-05-04T11:49:41Z</time>
      </trkpt>
      <trkpt lat="48.16132" lon="6.38492">
        <ele>401.97</ele>
        <time>2012-05-04T11:49:42Z</time>
      </trkpt>
      <trkpt lat="48.16128" lon="6.38499">
        <ele>401.97</ele>
        <time>2012-05-04T11:49:43Z</time>
      </trkpt>
      <trkpt lat="48.16125" lon="6.38506">
        <ele>401.49</ele>
        <time>2012-05-04T11:49:44Z</time>
      </trkpt>
      <trkpt lat="48.16122" lon="6.38513">
        <ele>401.49</ele>
        <time>2012-05-04T11:49:45Z</time>
      </trkpt>
      <trkpt lat="48.16121" lon="6.38521">
        <ele>401.01</ele>
        <time>2012-05-04T11:49:46Z</time>
      </trkpt>
      <trkpt lat="48.16119" lon="6.38528">
        <ele>400.53</ele>
        <time>2012-05-04T11:49:47Z</time>
      </trkpt>
      <trkpt lat="48.16118" lon="6.38535">
        <ele>400.05</ele>
        <time>2012-05-04T11:49:48Z</time>
      </trkpt>
      <trkpt lat="48.16117" lon="6.38542">
        <ele>400.05</ele>
        <time>2012-05-04T11:49:49Z</time>
      </trkpt>
      <trkpt lat="48.16115" lon="6.38548">
        <ele>400.53</ele>
        <time>2012-05-04T11:49:50Z</time>
      </trkpt>
      <trkpt lat="48.16102" lon="6.38583">
        <ele>403.89</ele>
        <time>2012-05-04T11:49:56Z</time>
      </trkpt>
      <trkpt lat="48.16097" lon="6.38604">
        <ele>408.22</ele>
        <time>2012-05-04T11:50:03Z</time>
      </trkpt>
      <trkpt lat="48.1609" lon="6.38618">
        <ele>410.14</ele>
        <time>2012-05-04T11:50:08Z</time>
      </trkpt>
      <trkpt lat="48.16079" lon="6.38632">
        <ele>414.95</ele>
        <time>2012-05-04T11:50:16Z</time>
      </trkpt>
      <trkpt lat="48.16071" lon="6.38655">
        <ele>415.91</ele>
        <time>2012-05-04T11:50:24Z</time>
      </trkpt>
      <trkpt lat="48.16065" lon="6.38672">
        <ele>416.87</ele>
        <time>2012-05-04T11:50:30Z</time>
      </trkpt>
      <trkpt lat="48.16061" lon="6.38677">
        <ele>417.35</ele>
        <time>2012-05-04T11:50:32Z</time>
      </trkpt>
      <trkpt lat="48.16049" lon="6.38692">
        <ele>418.31</ele>
        <time>2012-05-04T11:50:38Z</time>
      </trkpt>
      <trkpt lat="48.16037" lon="6.38696">
        <ele>418.79</ele>
        <time>2012-05-04T11:50:45Z</time>
      </trkpt>
      <trkpt lat="48.16033" lon="6.387">
        <ele>418.79</ele>
        <time>2012-05-04T11:50:47Z</time>
      </trkpt>
      <trkpt lat="48.16022" lon="6.38712">
        <ele>417.83</ele>
        <time>2012-05-04T11:50:51Z</time>
      </trkpt>
      <trkpt lat="48.15999" lon="6.38741">
        <ele>423.12</ele>
        <time>2012-05-04T11:51:03Z</time>
      </trkpt>
      <trkpt lat="48.15996" lon="6.38747">
        <ele>424.08</ele>
        <time>2012-05-04T11:51:05Z</time>
      </trkpt>
      <trkpt lat="48.15989" lon="6.38755">
        <ele>425.52</ele>
        <time>2012-05-04T11:51:09Z</time>
      </trkpt>
      <trkpt lat="48.15986" lon="6.38759">
        <ele>425.52</ele>
        <time>2012-05-04T11:51:11Z</time>
      </trkpt>
      <trkpt lat="48.15981" lon="6.38762">
        <ele>425.04</ele>
        <time>2012-05-04T11:51:14Z</time>
      </trkpt>
      <trkpt lat="48.15972" lon="6.38769">
        <ele>425.52</ele>
        <time>2012-05-04T11:51:19Z</time>
      </trkpt>
      <trkpt lat="48.15946" lon="6.3878">
        <ele>427.44</ele>
        <time>2012-05-04T11:51:31Z</time>
      </trkpt>
      <trkpt lat="48.15929" lon="6.38808">
        <ele>430.33</ele>
        <time>2012-05-04T11:51:42Z</time>
      </trkpt>
      <trkpt lat="48.1592" lon="6.38815">
        <ele>433.21</ele>
        <time>2012-05-04T11:51:47Z</time>
      </trkpt>
      <trkpt lat="48.15915" lon="6.38817">
        <ele>435.13</ele>
        <time>2012-05-04T11:51:49Z</time>
      </trkpt>
      <trkpt lat="48.15901" lon="6.38814">
        <ele>436.58</ele>
        <time>2012-05-04T11:51:55Z</time>
      </trkpt>
      <trkpt lat="48.1588" lon="6.38802">
        <ele>438.98</ele>
        <time>2012-05-04T11:52:04Z</time>
      </trkpt>
      <trkpt lat="48.15852" lon="6.38783">
        <ele>437.06</ele>
        <time>2012-05-04T11:52:15Z</time>
      </trkpt>
      <trkpt lat="48.15843" lon="6.38777">
        <ele>437.06</ele>
        <time>2012-05-04T11:52:19Z</time>
      </trkpt>
      <trkpt lat="48.15838" lon="6.38773">
        <ele>437.06</ele>
        <time>2012-05-04T11:52:22Z</time>
      </trkpt>
      <trkpt lat="48.15821" lon="6.38764">
        <ele>439.94</ele>
        <time>2012-05-04T11:52:31Z</time>
      </trkpt>
      <trkpt lat="48.15803" lon="6.3874">
        <ele>441.38</ele>
        <time>2012-05-04T11:52:41Z</time>
      </trkpt>
      <trkpt lat="48.15788" lon="6.38721">
        <ele>443.31</ele>
        <time>2012-05-04T11:52:48Z</time>
      </trkpt>
      <trkpt lat="48.15785" lon="6.38715">
        <ele>443.79</ele>
        <time>2012-05-04T11:52:50Z</time>
      </trkpt>
      <trkpt lat="48.15775" lon="6.387">
        <ele>444.27</ele>
        <time>2012-05-04T11:52:56Z</time>
      </trkpt>
      <trkpt lat="48.15771" lon="6.38688">
        <ele>443.79</ele>
        <time>2012-05-04T11:53:00Z</time>
      </trkpt>
      <trkpt lat="48.15752" lon="6.3867">
        <ele>442.82</ele>
        <time>2012-05-04T11:53:09Z</time>
      </trkpt>
      <trkpt lat="48.15742" lon="6.38662">
        <ele>442.82</ele>
        <time>2012-05-04T11:53:13Z</time>
      </trkpt>
      <trkpt lat="48.15735" lon="6.38651">
        <ele>442.34</ele>
        <time>2012-05-04T11:53:17Z</time>
      </trkpt>
      <trkpt lat="48.15722" lon="6.38625">
        <ele>441.86</ele>
        <time>2012-05-04T11:53:26Z</time>
      </trkpt>
      <trkpt lat="48.15698" lon="6.38601">
        <ele>443.79</ele>
        <time>2012-05-04T11:53:37Z</time>
      </trkpt>
      <trkpt lat="48.1568" lon="6.38573">
        <ele>441.86</ele>
        <time>2012-05-04T11:53:47Z</time>
      </trkpt>
      <trkpt lat="48.15671" lon="6.38519">
        <ele>441.38</ele>
        <time>2012-05-04T11:53:58Z</time>
      </trkpt>
      <trkpt lat="48.15656" lon="6.38467">
        <ele>442.34</ele>
        <time>2012-05-04T11:54:09Z</time>
      </trkpt>
      <trkpt lat="48.15638" lon="6.38422">
        <ele>443.79</ele>
        <time>2012-05-04T11:54:19Z</time>
      </trkpt>
      <trkpt lat="48.15621" lon="6.38375">
        <ele>443.31</ele>
        <time>2012-05-04T11:54:27Z</time>
      </trkpt>
      <trkpt lat="48.1562" lon="6.38369">
        <ele>442.82</ele>
        <time>2012-05-04T11:54:28Z</time>
      </trkpt>
      <trkpt lat="48.15618" lon="6.38362">
        <ele>442.82</ele>
        <time>2012-05-04T11:54:29Z</time>
      </trkpt>
      <trkpt lat="48.15616" lon="6.38356">
        <ele>442.82</ele>
        <time>2012-05-04T11:54:30Z</time>
      </trkpt>
      <trkpt lat="48.15614" lon="6.3835">
        <ele>442.34</ele>
        <time>2012-05-04T11:54:31Z</time>
      </trkpt>
      <trkpt lat="48.15611" lon="6.38343">
        <ele>442.34</ele>
        <time>2012-05-04T11:54:32Z</time>
      </trkpt>
      <trkpt lat="48.15609" lon="6.38337">
        <ele>442.34</ele>
        <time>2012-05-04T11:54:33Z</time>
      </trkpt>
      <trkpt lat="48.15607" lon="6.38331">
        <ele>442.34</ele>
        <time>2012-05-04T11:54:34Z</time>
      </trkpt>
      <trkpt lat="48.15605" lon="6.38324">
        <ele>442.34</ele>
        <time>2012-05-04T11:54:35Z</time>
      </trkpt>
      <trkpt lat="48.15598" lon="6.383">
        <ele>441.86</ele>
        <time>2012-05-04T11:54:39Z</time>
      </trkpt>
      <trkpt lat="48.15596" lon="6.38295">
        <ele>441.86</ele>
        <time>2012-05-04T11:54:40Z</time>
      </trkpt>
      <trkpt lat="48.15595" lon="6.3829">
        <ele>442.34</ele>
        <time>2012-05-04T11:54:41Z</time>
      </trkpt>
      <trkpt lat="48.15572" lon="6.38233">
        <ele>445.23</ele>
        <time>2012-05-04T11:54:53Z</time>
      </trkpt>
      <trkpt lat="48.15563" lon="6.38218">
        <ele>445.71</ele>
        <time>2012-05-04T11:54:56Z</time>
      </trkpt>
      <trkpt lat="48.15554" lon="6.38192">
        <ele>447.15</ele>
        <time>2012-05-04T11:55:00Z</time>
      </trkpt>
      <trkpt lat="48.15551" lon="6.38186">
        <ele>447.15</ele>
        <time>2012-05-04T11:55:01Z</time>
      </trkpt>
      <trkpt lat="48.15543" lon="6.3817">
        <ele>448.59</ele>
        <time>2012-05-04T11:55:04Z</time>
      </trkpt>
      <trkpt lat="48.15541" lon="6.38164">
        <ele>448.59</ele>
        <time>2012-05-04T11:55:05Z</time>
      </trkpt>
      <trkpt lat="48.1554" lon="6.38158">
        <ele>448.59</ele>
        <time>2012-05-04T11:55:06Z</time>
      </trkpt>
      <trkpt lat="48.15529" lon="6.38129">
        <ele>451.48</ele>
        <time>2012-05-04T11:55:15Z</time>
      </trkpt>
      <trkpt lat="48.15527" lon="6.38128">
        <ele>452.44</ele>
        <time>2012-05-04T11:55:37Z</time>
      </trkpt>
      <trkpt lat="48.15527" lon="6.38126">
        <ele>451.96</ele>
        <time>2012-05-04T11:56:02Z</time>
      </trkpt>
      <trkpt lat="48.15526" lon="6.38129">
        <ele>451.48</ele>
        <time>2012-05-04T11:56:33Z</time>
      </trkpt>
      <trkpt lat="48.15525" lon="6.38127">
        <ele>453.4</ele>
        <time>2012-05-04T11:57:00Z</time>
      </trkpt>
      <trkpt lat="48.15521" lon="6.38122">
        <ele>453.88</ele>
        <time>2012-05-04T11:57:03Z</time>
      </trkpt>
      <trkpt lat="48.15519" lon="6.38119">
        <ele>454.36</ele>
        <time>2012-05-04T11:57:04Z</time>
      </trkpt>
      <trkpt lat="48.15517" lon="6.38116">
        <ele>454.36</ele>
        <time>2012-05-04T11:57:05Z</time>
      </trkpt>
      <trkpt lat="48.15515" lon="6.38113">
        <ele>454.84</ele>
        <time>2012-05-04T11:57:06Z</time>
      </trkpt>
      <trkpt lat="48.15512" lon="6.3811">
        <ele>455.32</ele>
        <time>2012-05-04T11:57:07Z</time>
      </trkpt>
      <trkpt lat="48.15509" lon="6.38107">
        <ele>455.32</ele>
        <time>2012-05-04T11:57:08Z</time>
      </trkpt>
      <trkpt lat="48.15484" lon="6.38087">
        <ele>456.28</ele>
        <time>2012-05-04T11:57:13Z</time>
      </trkpt>
      <trkpt lat="48.15465" lon="6.38059">
        <ele>457.24</ele>
        <time>2012-05-04T11:57:17Z</time>
      </trkpt>
      <trkpt lat="48.1546" lon="6.38053">
        <ele>457.72</ele>
        <time>2012-05-04T11:57:18Z</time>
      </trkpt>
      <trkpt lat="48.15456" lon="6.38049">
        <ele>458.21</ele>
        <time>2012-05-04T11:57:19Z</time>
      </trkpt>
      <trkpt lat="48.1545" lon="6.38045">
        <ele>458.21</ele>
        <time>2012-05-04T11:57:20Z</time>
      </trkpt>
      <trkpt lat="48.15444" lon="6.38041">
        <ele>458.21</ele>
        <time>2012-05-04T11:57:21Z</time>
      </trkpt>
      <trkpt lat="48.15401" lon="6.38006">
        <ele>458.69</ele>
        <time>2012-05-04T11:57:28Z</time>
      </trkpt>
      <trkpt lat="48.15374" lon="6.37976">
        <ele>457.24</ele>
        <time>2012-05-04T11:57:33Z</time>
      </trkpt>
      <trkpt lat="48.15357" lon="6.37947">
        <ele>456.76</ele>
        <time>2012-05-04T11:57:37Z</time>
      </trkpt>
      <trkpt lat="48.15352" lon="6.3794">
        <ele>456.76</ele>
        <time>2012-05-04T11:57:38Z</time>
      </trkpt>
      <trkpt lat="48.15339" lon="6.37922">
        <ele>456.76</ele>
        <time>2012-05-04T11:57:41Z</time>
      </trkpt>
      <trkpt lat="48.15323" lon="6.37896">
        <ele>456.76</ele>
        <time>2012-05-04T11:57:45Z</time>
      </trkpt>
      <trkpt lat="48.15319" lon="6.3789">
        <ele>457.24</ele>
        <time>2012-05-04T11:57:46Z</time>
      </trkpt>
      <trkpt lat="48.1528" lon="6.37827">
        <ele>462.05</ele>
        <time>2012-05-04T11:57:57Z</time>
      </trkpt>
      <trkpt lat="48.15277" lon="6.37822">
        <ele>462.05</ele>
        <time>2012-05-04T11:57:58Z</time>
      </trkpt>
      <trkpt lat="48.15274" lon="6.37816">
        <ele>462.53</ele>
        <time>2012-05-04T11:57:59Z</time>
      </trkpt>
      <trkpt lat="48.15271" lon="6.37809">
        <ele>463.01</ele>
        <time>2012-05-04T11:58:00Z</time>
      </trkpt>
      <trkpt lat="48.15267" lon="6.37803">
        <ele>463.49</ele>
        <time>2012-05-04T11:58:01Z</time>
      </trkpt>
      <trkpt lat="48.15264" lon="6.37798">
        <ele>463.97</ele>
        <time>2012-05-04T11:58:02Z</time>
      </trkpt>
      <trkpt lat="48.1525" lon="6.37772">
        <ele>463.97</ele>
        <time>2012-05-04T11:58:06Z</time>
      </trkpt>
      <trkpt lat="48.15245" lon="6.37757">
        <ele>463.97</ele>
        <time>2012-05-04T11:58:08Z</time>
      </trkpt>
      <trkpt lat="48.15243" lon="6.3775">
        <ele>464.45</ele>
        <time>2012-05-04T11:58:09Z</time>
      </trkpt>
      <trkpt lat="48.15242" lon="6.37743">
        <ele>463.97</ele>
        <time>2012-05-04T11:58:10Z</time>
      </trkpt>
      <trkpt lat="48.15232" lon="6.37718">
        <ele>464.45</ele>
        <time>2012-05-04T11:58:14Z</time>
      </trkpt>
      <trkpt lat="48.15226" lon="6.37701">
        <ele>464.45</ele>
        <time>2012-05-04T11:58:17Z</time>
      </trkpt>
      <trkpt lat="48.15223" lon="6.37694">
        <ele>464.93</ele>
        <time>2012-05-04T11:58:18Z</time>
      </trkpt>
      <trkpt lat="48.1522" lon="6.37687">
        <ele>464.93</ele>
        <time>2012-05-04T11:58:19Z</time>
      </trkpt>
      <trkpt lat="48.15217" lon="6.3768">
        <ele>464.93</ele>
        <time>2012-05-04T11:58:20Z</time>
      </trkpt>
      <trkpt lat="48.15215" lon="6.37673">
        <ele>464.93</ele>
        <time>2012-05-04T11:58:21Z</time>
      </trkpt>
      <trkpt lat="48.15213" lon="6.37666">
        <ele>465.42</ele>
        <time>2012-05-04T11:58:22Z</time>
      </trkpt>
      <trkpt lat="48.15199" lon="6.37625">
        <ele>463.97</ele>
        <time>2012-05-04T11:58:31Z</time>
      </trkpt>
      <trkpt lat="48.15196" lon="6.3762">
        <ele>462.05</ele>
        <time>2012-05-04T11:58:35Z</time>
      </trkpt>
      <trkpt lat="48.15195" lon="6.37618">
        <ele>461.57</ele>
        <time>2012-05-04T11:58:36Z</time>
      </trkpt>
      <trkpt lat="48.15193" lon="6.37616">
        <ele>460.61</ele>
        <time>2012-05-04T11:58:37Z</time>
      </trkpt>
      <trkpt lat="48.15188" lon="6.37606">
        <ele>459.17</ele>
        <time>2012-05-04T11:58:45Z</time>
      </trkpt>
      <trkpt lat="48.15172" lon="6.37577">
        <ele>457.72</ele>
        <time>2012-05-04T11:58:55Z</time>
      </trkpt>
      <trkpt lat="48.15162" lon="6.37549">
        <ele>455.8</ele>
        <time>2012-05-04T11:59:01Z</time>
      </trkpt>
      <trkpt lat="48.1516" lon="6.37543">
        <ele>455.8</ele>
        <time>2012-05-04T11:59:02Z</time>
      </trkpt>
      <trkpt lat="48.15159" lon="6.37537">
        <ele>455.32</ele>
        <time>2012-05-04T11:59:03Z</time>
      </trkpt>
      <trkpt lat="48.15153" lon="6.3752">
        <ele>453.4</ele>
        <time>2012-05-04T11:59:06Z</time>
      </trkpt>
      <trkpt lat="48.15151" lon="6.37515">
        <ele>453.4</ele>
        <time>2012-05-04T11:59:07Z</time>
      </trkpt>
      <trkpt lat="48.15148" lon="6.37514">
        <ele>452.92</ele>
        <time>2012-05-04T11:59:08Z</time>
      </trkpt>
      <trkpt lat="48.15143" lon="6.37517">
        <ele>452.44</ele>
        <time>2012-05-04T11:59:09Z</time>
      </trkpt>
      <trkpt lat="48.15133" lon="6.37526">
        <ele>451</ele>
        <time>2012-05-04T11:59:11Z</time>
      </trkpt>
      <trkpt lat="48.15124" lon="6.37533">
        <ele>449.55</ele>
        <time>2012-05-04T11:59:13Z</time>
      </trkpt>
      <trkpt lat="48.15118" lon="6.37534">
        <ele>449.07</ele>
        <time>2012-05-04T11:59:14Z</time>
      </trkpt>
      <trkpt lat="48.15113" lon="6.37536">
        <ele>448.59</ele>
        <time>2012-05-04T11:59:15Z</time>
      </trkpt>
      <trkpt lat="48.15107" lon="6.37539">
        <ele>448.11</ele>
        <time>2012-05-04T11:59:16Z</time>
      </trkpt>
      <trkpt lat="48.15098" lon="6.3754">
        <ele>446.67</ele>
        <time>2012-05-04T11:59:17Z</time>
      </trkpt>
      <trkpt lat="48.15088" lon="6.3754">
        <ele>445.71</ele>
        <time>2012-05-04T11:59:18Z</time>
      </trkpt>
      <trkpt lat="48.15036" lon="6.37503">
        <ele>441.38</ele>
        <time>2012-05-04T11:59:24Z</time>
      </trkpt>
      <trkpt lat="48.14999" lon="6.37465">
        <ele>437.54</ele>
        <time>2012-05-04T11:59:30Z</time>
      </trkpt>
      <trkpt lat="48.14995" lon="6.37467">
        <ele>436.1</ele>
        <time>2012-05-04T11:59:31Z</time>
      </trkpt>
      <trkpt lat="48.14987" lon="6.37472">
        <ele>434.17</ele>
        <time>2012-05-04T11:59:33Z</time>
      </trkpt>
      <trkpt lat="48.14975" lon="6.37464">
        <ele>430.81</ele>
        <time>2012-05-04T11:59:37Z</time>
      </trkpt>
      <trkpt lat="48.14942" lon="6.37439">
        <ele>425.52</ele>
        <time>2012-05-04T11:59:46Z</time>
      </trkpt>
      <trkpt lat="48.1493" lon="6.37425">
        <ele>423.6</ele>
        <time>2012-05-04T11:59:49Z</time>
      </trkpt>
      <trkpt lat="48.14905" lon="6.37406">
        <ele>421.68</ele>
        <time>2012-05-04T11:59:54Z</time>
      </trkpt>
      <trkpt lat="48.14877" lon="6.37395">
        <ele>419.27</ele>
        <time>2012-05-04T12:00:00Z</time>
      </trkpt>
      <trkpt lat="48.14849" lon="6.37387">
        <ele>415.91</ele>
        <time>2012-05-04T12:00:07Z</time>
      </trkpt>
      <trkpt lat="48.14822" lon="6.37403">
        <ele>407.74</ele>
        <time>2012-05-04T12:00:14Z</time>
      </trkpt>
      <trkpt lat="48.1482" lon="6.37416">
        <ele>404.85</ele>
        <time>2012-05-04T12:00:16Z</time>
      </trkpt>
      <trkpt lat="48.14816" lon="6.37436">
        <ele>401.01</ele>
        <time>2012-05-04T12:00:20Z</time>
      </trkpt>
      <trkpt lat="48.14805" lon="6.37479">
        <ele>396.68</ele>
        <time>2012-05-04T12:00:27Z</time>
      </trkpt>
      <trkpt lat="48.14801" lon="6.37493">
        <ele>396.2</ele>
        <time>2012-05-04T12:00:29Z</time>
      </trkpt>
      <trkpt lat="48.14793" lon="6.37523">
        <ele>395.24</ele>
        <time>2012-05-04T12:00:33Z</time>
      </trkpt>
      <trkpt lat="48.14761" lon="6.3756">
        <ele>392.84</ele>
        <time>2012-05-04T12:00:41Z</time>
      </trkpt>
      <trkpt lat="48.14755" lon="6.37563">
        <ele>392.84</ele>
        <time>2012-05-04T12:00:42Z</time>
      </trkpt>
      <trkpt lat="48.14744" lon="6.37562">
        <ele>392.36</ele>
        <time>2012-05-04T12:00:44Z</time>
      </trkpt>
      <trkpt lat="48.1474" lon="6.37559">
        <ele>392.36</ele>
        <time>2012-05-04T12:00:45Z</time>
      </trkpt>
      <trkpt lat="48.14735" lon="6.37555">
        <ele>392.36</ele>
        <time>2012-05-04T12:00:46Z</time>
      </trkpt>
      <trkpt lat="48.14731" lon="6.37551">
        <ele>392.84</ele>
        <time>2012-05-04T12:00:47Z</time>
      </trkpt>
      <trkpt lat="48.14723" lon="6.37543">
        <ele>393.32</ele>
        <time>2012-05-04T12:00:49Z</time>
      </trkpt>
      <trkpt lat="48.1472" lon="6.37538">
        <ele>393.32</ele>
        <time>2012-05-04T12:00:50Z</time>
      </trkpt>
      <trkpt lat="48.14718" lon="6.37535">
        <ele>393.32</ele>
        <time>2012-05-04T12:00:51Z</time>
      </trkpt>
      <trkpt lat="48.14715" lon="6.37533">
        <ele>393.8</ele>
        <time>2012-05-04T12:00:52Z</time>
      </trkpt>
      <trkpt lat="48.14712" lon="6.37531">
        <ele>394.28</ele>
        <time>2012-05-04T12:00:53Z</time>
      </trkpt>
      <trkpt lat="48.14709" lon="6.37531">
        <ele>394.28</ele>
        <time>2012-05-04T12:00:54Z</time>
      </trkpt>
      <trkpt lat="48.14707" lon="6.3753">
        <ele>394.28</ele>
        <time>2012-05-04T12:00:55Z</time>
      </trkpt>
      <trkpt lat="48.1468" lon="6.3751">
        <ele>400.05</ele>
        <time>2012-05-04T12:01:06Z</time>
      </trkpt>
      <trkpt lat="48.14659" lon="6.37487">
        <ele>403.89</ele>
        <time>2012-05-04T12:01:17Z</time>
      </trkpt>
      <trkpt lat="48.14652" lon="6.37486">
        <ele>403.89</ele>
        <time>2012-05-04T12:01:21Z</time>
      </trkpt>
      <trkpt lat="48.1465" lon="6.37485">
        <ele>403.89</ele>
        <time>2012-05-04T12:01:22Z</time>
      </trkpt>
      <trkpt lat="48.14625" lon="6.37486">
        <ele>405.33</ele>
        <time>2012-05-04T12:01:35Z</time>
      </trkpt>
      <trkpt lat="48.1462" lon="6.37487">
        <ele>405.81</ele>
        <time>2012-05-04T12:01:38Z</time>
      </trkpt>
      <trkpt lat="48.14618" lon="6.37487">
        <ele>406.29</ele>
        <time>2012-05-04T12:01:39Z</time>
      </trkpt>
      <trkpt lat="48.14616" lon="6.37487">
        <ele>406.29</ele>
        <time>2012-05-04T12:01:40Z</time>
      </trkpt>
      <trkpt lat="48.14615" lon="6.37487">
        <ele>406.29</ele>
        <time>2012-05-04T12:01:41Z</time>
      </trkpt>
      <trkpt lat="48.14602" lon="6.3749">
        <ele>406.77</ele>
        <time>2012-05-04T12:01:49Z</time>
      </trkpt>
      <trkpt lat="48.14598" lon="6.37492">
        <ele>407.74</ele>
        <time>2012-05-04T12:01:51Z</time>
      </trkpt>
      <trkpt lat="48.1459" lon="6.37492">
        <ele>410.14</ele>
        <time>2012-05-04T12:01:56Z</time>
      </trkpt>
      <trkpt lat="48.14582" lon="6.37491">
        <ele>413.5</ele>
        <time>2012-05-04T12:02:01Z</time>
      </trkpt>
      <trkpt lat="48.14567" lon="6.3749">
        <ele>418.79</ele>
        <time>2012-05-04T12:02:10Z</time>
      </trkpt>
      <trkpt lat="48.14547" lon="6.37486">
        <ele>426</ele>
        <time>2012-05-04T12:02:22Z</time>
      </trkpt>
      <trkpt lat="48.14547" lon="6.37487">
        <ele>426.48</ele>
        <time>2012-05-04T12:02:23Z</time>
      </trkpt>
      <trkpt lat="48.14514" lon="6.37491">
        <ele>428.4</ele>
        <time>2012-05-04T12:02:35Z</time>
      </trkpt>
      <trkpt lat="48.14485" lon="6.37501">
        <ele>426.96</ele>
        <time>2012-05-04T12:02:47Z</time>
      </trkpt>
      <trkpt lat="48.14476" lon="6.3751">
        <ele>426.96</ele>
        <time>2012-05-04T12:02:51Z</time>
      </trkpt>
      <trkpt lat="48.14452" lon="6.37504">
        <ele>427.44</ele>
        <time>2012-05-04T12:02:58Z</time>
      </trkpt>
      <trkpt lat="48.14424" lon="6.37501">
        <ele>426.96</ele>
        <time>2012-05-04T12:03:04Z</time>
      </trkpt>
      <trkpt lat="48.14408" lon="6.37507">
        <ele>426</ele>
        <time>2012-05-04T12:03:14Z</time>
      </trkpt>
      <trkpt lat="48.14405" lon="6.37527">
        <ele>421.19</ele>
        <time>2012-05-04T12:03:21Z</time>
      </trkpt>
      <trkpt lat="48.14405" lon="6.37533">
        <ele>419.75</ele>
        <time>2012-05-04T12:03:23Z</time>
      </trkpt>
      <trkpt lat="48.14405" lon="6.37545">
        <ele>416.87</ele>
        <time>2012-05-04T12:03:27Z</time>
      </trkpt>
      <trkpt lat="48.14402" lon="6.37587">
        <ele>406.77</ele>
        <time>2012-05-04T12:03:40Z</time>
      </trkpt>
      <trkpt lat="48.14389" lon="6.37608">
        <ele>396.68</ele>
        <time>2012-05-04T12:03:51Z</time>
      </trkpt>
      <trkpt lat="48.14368" lon="6.37631">
        <ele>390.91</ele>
        <time>2012-05-04T12:04:03Z</time>
      </trkpt>
      <trkpt lat="48.14339" lon="6.37636">
        <ele>388.99</ele>
        <time>2012-05-04T12:04:13Z</time>
      </trkpt>
      <trkpt lat="48.14325" lon="6.37638">
        <ele>386.59</ele>
        <time>2012-05-04T12:04:18Z</time>
      </trkpt>
      <trkpt lat="48.14295" lon="6.37656">
        <ele>386.59</ele>
        <time>2012-05-04T12:04:28Z</time>
      </trkpt>
      <trkpt lat="48.14271" lon="6.37682">
        <ele>396.2</ele>
        <time>2012-05-04T12:04:37Z</time>
      </trkpt>
      <trkpt lat="48.14258" lon="6.37698">
        <ele>401.49</ele>
        <time>2012-05-04T12:04:42Z</time>
      </trkpt>
      <trkpt lat="48.14228" lon="6.3774">
        <ele>409.18</ele>
        <time>2012-05-04T12:04:55Z</time>
      </trkpt>
      <trkpt lat="48.14212" lon="6.37776">
        <ele>414.47</ele>
        <time>2012-05-04T12:05:05Z</time>
      </trkpt>
      <trkpt lat="48.14217" lon="6.37815">
        <ele>418.31</ele>
        <time>2012-05-04T12:05:14Z</time>
      </trkpt>
      <trkpt lat="48.14224" lon="6.37831">
        <ele>421.19</ele>
        <time>2012-05-04T12:05:18Z</time>
      </trkpt>
      <trkpt lat="48.14226" lon="6.37858">
        <ele>423.6</ele>
        <time>2012-05-04T12:05:25Z</time>
      </trkpt>
      <trkpt lat="48.14216" lon="6.37911">
        <ele>429.85</ele>
        <time>2012-05-04T12:05:36Z</time>
      </trkpt>
      <trkpt lat="48.14196" lon="6.3795">
        <ele>438.02</ele>
        <time>2012-05-04T12:05:46Z</time>
      </trkpt>
      <trkpt lat="48.14179" lon="6.37989">
        <ele>443.79</ele>
        <time>2012-05-04T12:05:56Z</time>
      </trkpt>
      <trkpt lat="48.14154" lon="6.38011">
        <ele>445.71</ele>
        <time>2012-05-04T12:06:06Z</time>
      </trkpt>
      <trkpt lat="48.14141" lon="6.38025">
        <ele>445.23</ele>
        <time>2012-05-04T12:06:12Z</time>
      </trkpt>
      <trkpt lat="48.14113" lon="6.38055">
        <ele>446.19</ele>
        <time>2012-05-04T12:06:25Z</time>
      </trkpt>
      <trkpt lat="48.1411" lon="6.38058">
        <ele>446.67</ele>
        <time>2012-05-04T12:06:26Z</time>
      </trkpt>
      <trkpt lat="48.14089" lon="6.3809">
        <ele>450.52</ele>
        <time>2012-05-04T12:06:36Z</time>
      </trkpt>
      <trkpt lat="48.14072" lon="6.3813">
        <ele>451</ele>
        <time>2012-05-04T12:06:48Z</time>
      </trkpt>
      <trkpt lat="48.14068" lon="6.38136">
        <ele>449.55</ele>
        <time>2012-05-04T12:06:51Z</time>
      </trkpt>
      <trkpt lat="48.14047" lon="6.38163">
        <ele>447.63</ele>
        <time>2012-05-04T12:07:03Z</time>
      </trkpt>
      <trkpt lat="48.14035" lon="6.3818">
        <ele>451</ele>
        <time>2012-05-04T12:07:07Z</time>
      </trkpt>
      <trkpt lat="48.14014" lon="6.38201">
        <ele>456.28</ele>
        <time>2012-05-04T12:07:14Z</time>
      </trkpt>
      <trkpt lat="48.13996" lon="6.38213">
        <ele>458.21</ele>
        <time>2012-05-04T12:07:18Z</time>
      </trkpt>
      <trkpt lat="48.13955" lon="6.38221">
        <ele>460.61</ele>
        <time>2012-05-04T12:07:25Z</time>
      </trkpt>
      <trkpt lat="48.13922" lon="6.38219">
        <ele>461.57</ele>
        <time>2012-05-04T12:07:29Z</time>
      </trkpt>
      <trkpt lat="48.13908" lon="6.38215">
        <ele>462.05</ele>
        <time>2012-05-04T12:07:31Z</time>
      </trkpt>
      <trkpt lat="48.13875" lon="6.38232">
        <ele>462.53</ele>
        <time>2012-05-04T12:07:37Z</time>
      </trkpt>
      <trkpt lat="48.13868" lon="6.38235">
        <ele>462.53</ele>
        <time>2012-05-04T12:07:38Z</time>
      </trkpt>
      <trkpt lat="48.13855" lon="6.38241">
        <ele>462.05</ele>
        <time>2012-05-04T12:07:40Z</time>
      </trkpt>
      <trkpt lat="48.13849" lon="6.38245">
        <ele>462.05</ele>
        <time>2012-05-04T12:07:41Z</time>
      </trkpt>
      <trkpt lat="48.13838" lon="6.38253">
        <ele>461.57</ele>
        <time>2012-05-04T12:07:43Z</time>
      </trkpt>
      <trkpt lat="48.13833" lon="6.38255">
        <ele>461.57</ele>
        <time>2012-05-04T12:07:44Z</time>
      </trkpt>
      <trkpt lat="48.13828" lon="6.38256">
        <ele>461.09</ele>
        <time>2012-05-04T12:07:45Z</time>
      </trkpt>
      <trkpt lat="48.13823" lon="6.38258">
        <ele>460.13</ele>
        <time>2012-05-04T12:07:46Z</time>
      </trkpt>
      <trkpt lat="48.13818" lon="6.3826">
        <ele>459.17</ele>
        <time>2012-05-04T12:07:47Z</time>
      </trkpt>
      <trkpt lat="48.13808" lon="6.38265">
        <ele>456.76</ele>
        <time>2012-05-04T12:07:50Z</time>
      </trkpt>
      <trkpt lat="48.13806" lon="6.38264">
        <ele>455.8</ele>
        <time>2012-05-04T12:07:51Z</time>
      </trkpt>
      <trkpt lat="48.13805" lon="6.38261">
        <ele>454.84</ele>
        <time>2012-05-04T12:07:52Z</time>
      </trkpt>
      <trkpt lat="48.13804" lon="6.38258">
        <ele>454.36</ele>
        <time>2012-05-04T12:07:53Z</time>
      </trkpt>
      <trkpt lat="48.13803" lon="6.38254">
        <ele>454.36</ele>
        <time>2012-05-04T12:07:54Z</time>
      </trkpt>
      <trkpt lat="48.13802" lon="6.38249">
        <ele>453.88</ele>
        <time>2012-05-04T12:07:55Z</time>
      </trkpt>
      <trkpt lat="48.138" lon="6.38239">
        <ele>453.4</ele>
        <time>2012-05-04T12:07:57Z</time>
      </trkpt>
      <trkpt lat="48.13798" lon="6.38232">
        <ele>452.92</ele>
        <time>2012-05-04T12:07:58Z</time>
      </trkpt>
      <trkpt lat="48.13795" lon="6.38226">
        <ele>451.96</ele>
        <time>2012-05-04T12:07:59Z</time>
      </trkpt>
      <trkpt lat="48.13793" lon="6.38219">
        <ele>451.48</ele>
        <time>2012-05-04T12:08:00Z</time>
      </trkpt>
      <trkpt lat="48.13792" lon="6.38213">
        <ele>451</ele>
        <time>2012-05-04T12:08:01Z</time>
      </trkpt>
      <trkpt lat="48.13788" lon="6.38207">
        <ele>450.03</ele>
        <time>2012-05-04T12:08:02Z</time>
      </trkpt>
      <trkpt lat="48.13757" lon="6.38163">
        <ele>446.19</ele>
        <time>2012-05-04T12:08:07Z</time>
      </trkpt>
      <trkpt lat="48.13751" lon="6.3815">
        <ele>445.23</ele>
        <time>2012-05-04T12:08:08Z</time>
      </trkpt>
      <trkpt lat="48.13747" lon="6.38137">
        <ele>444.27</ele>
        <time>2012-05-04T12:08:09Z</time>
      </trkpt>
      <trkpt lat="48.13743" lon="6.38122">
        <ele>443.31</ele>
        <time>2012-05-04T12:08:10Z</time>
      </trkpt>
      <trkpt lat="48.13739" lon="6.38108">
        <ele>442.34</ele>
        <time>2012-05-04T12:08:11Z</time>
      </trkpt>
      <trkpt lat="48.13735" lon="6.38094">
        <ele>441.38</ele>
        <time>2012-05-04T12:08:12Z</time>
      </trkpt>
      <trkpt lat="48.1373" lon="6.3808">
        <ele>439.94</ele>
        <time>2012-05-04T12:08:13Z</time>
      </trkpt>
      <trkpt lat="48.13703" lon="6.37922">
        <ele>427.44</ele>
        <time>2012-05-04T12:08:23Z</time>
      </trkpt>
      <trkpt lat="48.13697" lon="6.37869">
        <ele>424.08</ele>
        <time>2012-05-04T12:08:26Z</time>
      </trkpt>
      <trkpt lat="48.13693" lon="6.3782">
        <ele>421.19</ele>
        <time>2012-05-04T12:08:29Z</time>
      </trkpt>
      <trkpt lat="48.13681" lon="6.37758">
        <ele>415.91</ele>
        <time>2012-05-04T12:08:34Z</time>
      </trkpt>
      <trkpt lat="48.13672" lon="6.37737">
        <ele>413.02</ele>
        <time>2012-05-04T12:08:39Z</time>
      </trkpt>
      <trkpt lat="48.13669" lon="6.37736">
        <ele>413.02</ele>
        <time>2012-05-04T12:08:40Z</time>
      </trkpt>
      <trkpt lat="48.13667" lon="6.37737">
        <ele>412.54</ele>
        <time>2012-05-04T12:08:41Z</time>
      </trkpt>
      <trkpt lat="48.13665" lon="6.37738">
        <ele>412.54</ele>
        <time>2012-05-04T12:08:42Z</time>
      </trkpt>
      <trkpt lat="48.13663" lon="6.3774">
        <ele>412.54</ele>
        <time>2012-05-04T12:08:43Z</time>
      </trkpt>
      <trkpt lat="48.13643" lon="6.37766">
        <ele>412.54</ele>
        <time>2012-05-04T12:08:55Z</time>
      </trkpt>
      <trkpt lat="48.13642" lon="6.37766">
        <ele>412.54</ele>
        <time>2012-05-04T12:08:56Z</time>
      </trkpt>
      <trkpt lat="48.13641" lon="6.37765">
        <ele>412.54</ele>
        <time>2012-05-04T12:08:57Z</time>
      </trkpt>
      <trkpt lat="48.13642" lon="6.37763">
        <ele>412.54</ele>
        <time>2012-05-04T12:08:58Z</time>
      </trkpt>
      <trkpt lat="48.13643" lon="6.37762">
        <ele>412.54</ele>
        <time>2012-05-04T12:08:59Z</time>
      </trkpt>
      <trkpt lat="48.13646" lon="6.3776">
        <ele>412.54</ele>
        <time>2012-05-04T12:09:00Z</time>
      </trkpt>
      <trkpt lat="48.13648" lon="6.37758">
        <ele>412.54</ele>
        <time>2012-05-04T12:09:01Z</time>
      </trkpt>
      <trkpt lat="48.13651" lon="6.37755">
        <ele>412.06</ele>
        <time>2012-05-04T12:09:02Z</time>
      </trkpt>
      <trkpt lat="48.13667" lon="6.37739">
        <ele>410.14</ele>
        <time>2012-05-04T12:09:07Z</time>
      </trkpt>
      <trkpt lat="48.1367" lon="6.37733">
        <ele>409.18</ele>
        <time>2012-05-04T12:09:08Z</time>
      </trkpt>
      <trkpt lat="48.13671" lon="6.37727">
        <ele>408.7</ele>
        <time>2012-05-04T12:09:09Z</time>
      </trkpt>
      <trkpt lat="48.13671" lon="6.37719">
        <ele>408.22</ele>
        <time>2012-05-04T12:09:10Z</time>
      </trkpt>
      <trkpt lat="48.13669" lon="6.37711">
        <ele>407.26</ele>
        <time>2012-05-04T12:09:11Z</time>
      </trkpt>
      <trkpt lat="48.13667" lon="6.37702">
        <ele>406.77</ele>
        <time>2012-05-04T12:09:12Z</time>
      </trkpt>
      <trkpt lat="48.13664" lon="6.37694">
        <ele>406.29</ele>
        <time>2012-05-04T12:09:13Z</time>
      </trkpt>
      <trkpt lat="48.13662" lon="6.37685">
        <ele>405.81</ele>
        <time>2012-05-04T12:09:14Z</time>
      </trkpt>
      <trkpt lat="48.13655" lon="6.37658">
        <ele>404.37</ele>
        <time>2012-05-04T12:09:17Z</time>
      </trkpt>
      <trkpt lat="48.13652" lon="6.37648">
        <ele>403.89</ele>
        <time>2012-05-04T12:09:18Z</time>
      </trkpt>
      <trkpt lat="48.13639" lon="6.37604">
        <ele>401.97</ele>
        <time>2012-05-04T12:09:23Z</time>
      </trkpt>
      <trkpt lat="48.13636" lon="6.37596">
        <ele>401.49</ele>
        <time>2012-05-04T12:09:24Z</time>
      </trkpt>
      <trkpt lat="48.13622" lon="6.37572">
        <ele>401.49</ele>
        <time>2012-05-04T12:09:27Z</time>
      </trkpt>
      <trkpt lat="48.13607" lon="6.37547">
        <ele>400.53</ele>
        <time>2012-05-04T12:09:30Z</time>
      </trkpt>
      <trkpt lat="48.13604" lon="6.37537">
        <ele>400.05</ele>
        <time>2012-05-04T12:09:31Z</time>
      </trkpt>
      <trkpt lat="48.13602" lon="6.37526">
        <ele>400.05</ele>
        <time>2012-05-04T12:09:32Z</time>
      </trkpt>
      <trkpt lat="48.13596" lon="6.37497">
        <ele>400.53</ele>
        <time>2012-05-04T12:09:35Z</time>
      </trkpt>
      <trkpt lat="48.13592" lon="6.37491">
        <ele>401.01</ele>
        <time>2012-05-04T12:09:36Z</time>
      </trkpt>
      <trkpt lat="48.13587" lon="6.37489">
        <ele>401.01</ele>
        <time>2012-05-04T12:09:37Z</time>
      </trkpt>
      <trkpt lat="48.13583" lon="6.37487">
        <ele>401.49</ele>
        <time>2012-05-04T12:09:38Z</time>
      </trkpt>
      <trkpt lat="48.13579" lon="6.37485">
        <ele>401.97</ele>
        <time>2012-05-04T12:09:39Z</time>
      </trkpt>
      <trkpt lat="48.13575" lon="6.37482">
        <ele>401.97</ele>
        <time>2012-05-04T12:09:40Z</time>
      </trkpt>
      <trkpt lat="48.13571" lon="6.37478">
        <ele>401.97</ele>
        <time>2012-05-04T12:09:41Z</time>
      </trkpt>
      <trkpt lat="48.13568" lon="6.37475">
        <ele>402.45</ele>
        <time>2012-05-04T12:09:42Z</time>
      </trkpt>
      <trkpt lat="48.1356" lon="6.3747">
        <ele>402.45</ele>
        <time>2012-05-04T12:09:44Z</time>
      </trkpt>
      <trkpt lat="48.13555" lon="6.37467">
        <ele>402.45</ele>
        <time>2012-05-04T12:09:45Z</time>
      </trkpt>
      <trkpt lat="48.1355" lon="6.37466">
        <ele>402.93</ele>
        <time>2012-05-04T12:09:46Z</time>
      </trkpt>
      <trkpt lat="48.13545" lon="6.37466">
        <ele>402.45</ele>
        <time>2012-05-04T12:09:47Z</time>
      </trkpt>
      <trkpt lat="48.13541" lon="6.37469">
        <ele>402.45</ele>
        <time>2012-05-04T12:09:48Z</time>
      </trkpt>
      <trkpt lat="48.13538" lon="6.37474">
        <ele>402.45</ele>
        <time>2012-05-04T12:09:49Z</time>
      </trkpt>
      <trkpt lat="48.13536" lon="6.3748">
        <ele>402.45</ele>
        <time>2012-05-04T12:09:50Z</time>
      </trkpt>
      <trkpt lat="48.13535" lon="6.37487">
        <ele>401.97</ele>
        <time>2012-05-04T12:09:51Z</time>
      </trkpt>
      <trkpt lat="48.13534" lon="6.37493">
        <ele>401.49</ele>
        <time>2012-05-04T12:09:52Z</time>
      </trkpt>
      <trkpt lat="48.13532" lon="6.37499">
        <ele>401.01</ele>
        <time>2012-05-04T12:09:53Z</time>
      </trkpt>
      <trkpt lat="48.1353" lon="6.37503">
        <ele>400.53</ele>
        <time>2012-05-04T12:09:54Z</time>
      </trkpt>
      <trkpt lat="48.13523" lon="6.37513">
        <ele>399.57</ele>
        <time>2012-05-04T12:09:56Z</time>
      </trkpt>
      <trkpt lat="48.13516" lon="6.37522">
        <ele>399.08</ele>
        <time>2012-05-04T12:09:58Z</time>
      </trkpt>
      <trkpt lat="48.13488" lon="6.37555">
        <ele>397.16</ele>
        <time>2012-05-04T12:10:05Z</time>
      </trkpt>
      <trkpt lat="48.13476" lon="6.37563">
        <ele>396.2</ele>
        <time>2012-05-04T12:10:08Z</time>
      </trkpt>
      <trkpt lat="48.13473" lon="6.37565">
        <ele>396.2</ele>
        <time>2012-05-04T12:10:09Z</time>
      </trkpt>
      <trkpt lat="48.13469" lon="6.37565">
        <ele>395.72</ele>
        <time>2012-05-04T12:10:10Z</time>
      </trkpt>
      <trkpt lat="48.13466" lon="6.37566">
        <ele>395.72</ele>
        <time>2012-05-04T12:10:11Z</time>
      </trkpt>
      <trkpt lat="48.13463" lon="6.37566">
        <ele>395.24</ele>
        <time>2012-05-04T12:10:12Z</time>
      </trkpt>
      <trkpt lat="48.13461" lon="6.37566">
        <ele>395.24</ele>
        <time>2012-05-04T12:10:13Z</time>
      </trkpt>
      <trkpt lat="48.13458" lon="6.37567">
        <ele>394.76</ele>
        <time>2012-05-04T12:10:14Z</time>
      </trkpt>
      <trkpt lat="48.13455" lon="6.37567">
        <ele>394.76</ele>
        <time>2012-05-04T12:10:15Z</time>
      </trkpt>
      <trkpt lat="48.13453" lon="6.37565">
        <ele>394.28</ele>
        <time>2012-05-04T12:10:16Z</time>
      </trkpt>
      <trkpt lat="48.1345" lon="6.37565">
        <ele>393.8</ele>
        <time>2012-05-04T12:10:17Z</time>
      </trkpt>
      <trkpt lat="48.13419" lon="6.37575">
        <ele>392.36</ele>
        <time>2012-05-04T12:10:26Z</time>
      </trkpt>
      <trkpt lat="48.13411" lon="6.37585">
        <ele>391.87</ele>
        <time>2012-05-04T12:10:29Z</time>
      </trkpt>
      <trkpt lat="48.1341" lon="6.37598">
        <ele>391.39</ele>
        <time>2012-05-04T12:10:33Z</time>
      </trkpt>
      <trkpt lat="48.13411" lon="6.37602">
        <ele>391.39</ele>
        <time>2012-05-04T12:10:34Z</time>
      </trkpt>
      <trkpt lat="48.13418" lon="6.3762">
        <ele>391.87</ele>
        <time>2012-05-04T12:10:38Z</time>
      </trkpt>
      <trkpt lat="48.13422" lon="6.37625">
        <ele>391.87</ele>
        <time>2012-05-04T12:10:39Z</time>
      </trkpt>
      <trkpt lat="48.13435" lon="6.37637">
        <ele>392.36</ele>
        <time>2012-05-04T12:10:42Z</time>
      </trkpt>
      <trkpt lat="48.13438" lon="6.37642">
        <ele>392.36</ele>
        <time>2012-05-04T12:10:43Z</time>
      </trkpt>
      <trkpt lat="48.13441" lon="6.37649">
        <ele>392.36</ele>
        <time>2012-05-04T12:10:44Z</time>
      </trkpt>
      <trkpt lat="48.13445" lon="6.3766">
        <ele>391.39</ele>
        <time>2012-05-04T12:10:46Z</time>
      </trkpt>
      <trkpt lat="48.13445" lon="6.37667">
        <ele>390.43</ele>
        <time>2012-05-04T12:10:47Z</time>
      </trkpt>
      <trkpt lat="48.13444" lon="6.37674">
        <ele>388.99</ele>
        <time>2012-05-04T12:10:48Z</time>
      </trkpt>
      <trkpt lat="48.13443" lon="6.37681">
        <ele>387.55</ele>
        <time>2012-05-04T12:10:49Z</time>
      </trkpt>
      <trkpt lat="48.1344" lon="6.37688">
        <ele>386.59</ele>
        <time>2012-05-04T12:10:50Z</time>
      </trkpt>
      <trkpt lat="48.13427" lon="6.37708">
        <ele>381.3</ele>
        <time>2012-05-04T12:10:56Z</time>
      </trkpt>
      <trkpt lat="48.13426" lon="6.3771">
        <ele>380.82</ele>
        <time>2012-05-04T12:10:57Z</time>
      </trkpt>
      <trkpt lat="48.13424" lon="6.37712">
        <ele>380.82</ele>
        <time>2012-05-04T12:10:58Z</time>
      </trkpt>
      <trkpt lat="48.13422" lon="6.37714">
        <ele>380.34</ele>
        <time>2012-05-04T12:10:59Z</time>
      </trkpt>
      <trkpt lat="48.1342" lon="6.37721">
        <ele>378.42</ele>
        <time>2012-05-04T12:11:00Z</time>
      </trkpt>
      <trkpt lat="48.1342" lon="6.37727">
        <ele>376.97</ele>
        <time>2012-05-04T12:11:01Z</time>
      </trkpt>
      <trkpt lat="48.13419" lon="6.37733">
        <ele>375.53</ele>
        <time>2012-05-04T12:11:02Z</time>
      </trkpt>
      <trkpt lat="48.13396" lon="6.37785">
        <ele>364.48</ele>
        <time>2012-05-04T12:11:14Z</time>
      </trkpt>
      <trkpt lat="48.13395" lon="6.37793">
        <ele>362.07</ele>
        <time>2012-05-04T12:11:16Z</time>
      </trkpt>
      <trkpt lat="48.13396" lon="6.37801">
        <ele>360.63</ele>
        <time>2012-05-04T12:11:18Z</time>
      </trkpt>
      <trkpt lat="48.13395" lon="6.37814">
        <ele>357.75</ele>
        <time>2012-05-04T12:11:23Z</time>
      </trkpt>
      <trkpt lat="48.13383" lon="6.37827">
        <ele>360.63</ele>
        <time>2012-05-04T12:11:32Z</time>
      </trkpt>
      <trkpt lat="48.13362" lon="6.37846">
        <ele>365.44</ele>
        <time>2012-05-04T12:11:44Z</time>
      </trkpt>
      <trkpt lat="48.13361" lon="6.37848">
        <ele>365.92</ele>
        <time>2012-05-04T12:11:45Z</time>
      </trkpt>
      <trkpt lat="48.13346" lon="6.37856">
        <ele>367.84</ele>
        <time>2012-05-04T12:11:54Z</time>
      </trkpt>
      <trkpt lat="48.13336" lon="6.3784">
        <ele>375.53</ele>
        <time>2012-05-04T12:12:07Z</time>
      </trkpt>
      <trkpt lat="48.13336" lon="6.37839">
        <ele>376.01</ele>
        <time>2012-05-04T12:12:08Z</time>
      </trkpt>
      <trkpt lat="48.13337" lon="6.37833">
        <ele>377.94</ele>
        <time>2012-05-04T12:12:11Z</time>
      </trkpt>
      <trkpt lat="48.13337" lon="6.3783">
        <ele>379.86</ele>
        <time>2012-05-04T12:12:14Z</time>
      </trkpt>
      <trkpt lat="48.1334" lon="6.3782">
        <ele>381.3</ele>
        <time>2012-05-04T12:12:19Z</time>
      </trkpt>
      <trkpt lat="48.13355" lon="6.37794">
        <ele>385.63</ele>
        <time>2012-05-04T12:12:30Z</time>
      </trkpt>
      <trkpt lat="48.13361" lon="6.37775">
        <ele>390.43</ele>
        <time>2012-05-04T12:12:36Z</time>
      </trkpt>
      <trkpt lat="48.13365" lon="6.37746">
        <ele>397.16</ele>
        <time>2012-05-04T12:12:43Z</time>
      </trkpt>
      <trkpt lat="48.13363" lon="6.37724">
        <ele>402.45</ele>
        <time>2012-05-04T12:12:50Z</time>
      </trkpt>
      <trkpt lat="48.13363" lon="6.3772">
        <ele>402.93</ele>
        <time>2012-05-04T12:12:52Z</time>
      </trkpt>
      <trkpt lat="48.13354" lon="6.37729">
        <ele>410.62</ele>
        <time>2012-05-04T12:13:03Z</time>
      </trkpt>
      <trkpt lat="48.13351" lon="6.37737">
        <ele>416.87</ele>
        <time>2012-05-04T12:13:14Z</time>
      </trkpt>
      <trkpt lat="48.1334" lon="6.37755">
        <ele>419.75</ele>
        <time>2012-05-04T12:13:25Z</time>
      </trkpt>
      <trkpt lat="48.13322" lon="6.37783">
        <ele>424.56</ele>
        <time>2012-05-04T12:13:38Z</time>
      </trkpt>
      <trkpt lat="48.13316" lon="6.37789">
        <ele>425.52</ele>
        <time>2012-05-04T12:13:42Z</time>
      </trkpt>
      <trkpt lat="48.13296" lon="6.37806">
        <ele>429.37</ele>
        <time>2012-05-04T12:13:53Z</time>
      </trkpt>
      <trkpt lat="48.13291" lon="6.37816">
        <ele>429.85</ele>
        <time>2012-05-04T12:13:57Z</time>
      </trkpt>
      <trkpt lat="48.1328" lon="6.37864">
        <ele>431.29</ele>
        <time>2012-05-04T12:14:08Z</time>
      </trkpt>
      <trkpt lat="48.13279" lon="6.37882">
        <ele>433.69</ele>
        <time>2012-05-04T12:14:12Z</time>
      </trkpt>
      <trkpt lat="48.13282" lon="6.37909">
        <ele>434.17</ele>
        <time>2012-05-04T12:14:19Z</time>
      </trkpt>
      <trkpt lat="48.13297" lon="6.37944">
        <ele>435.61</ele>
        <time>2012-05-04T12:14:29Z</time>
      </trkpt>
      <trkpt lat="48.13326" lon="6.37982">
        <ele>437.06</ele>
        <time>2012-05-04T12:14:41Z</time>
      </trkpt>
      <trkpt lat="48.13359" lon="6.38018">
        <ele>437.54</ele>
        <time>2012-05-04T12:14:53Z</time>
      </trkpt>
      <trkpt lat="48.13377" lon="6.38046">
        <ele>438.98</ele>
        <time>2012-05-04T12:15:01Z</time>
      </trkpt>
      <trkpt lat="48.13393" lon="6.38083">
        <ele>438.02</ele>
        <time>2012-05-04T12:15:12Z</time>
      </trkpt>
      <trkpt lat="48.1341" lon="6.38115">
        <ele>436.1</ele>
        <time>2012-05-04T12:15:23Z</time>
      </trkpt>
      <trkpt lat="48.13427" lon="6.38144">
        <ele>436.1</ele>
        <time>2012-05-04T12:15:33Z</time>
      </trkpt>
      <trkpt lat="48.13441" lon="6.38166">
        <ele>435.61</ele>
        <time>2012-05-04T12:15:42Z</time>
      </trkpt>
      <trkpt lat="48.13427" lon="6.3816">
        <ele>439.46</ele>
        <time>2012-05-04T12:15:53Z</time>
      </trkpt>
      <trkpt lat="48.13393" lon="6.38152">
        <ele>444.75</ele>
        <time>2012-05-04T12:16:06Z</time>
      </trkpt>
      <trkpt lat="48.13364" lon="6.38178">
        <ele>444.27</ele>
        <time>2012-05-04T12:16:20Z</time>
      </trkpt>
      <trkpt lat="48.13337" lon="6.38197">
        <ele>445.71</ele>
        <time>2012-05-04T12:16:34Z</time>
      </trkpt>
      <trkpt lat="48.13327" lon="6.38194">
        <ele>444.75</ele>
        <time>2012-05-04T12:16:45Z</time>
      </trkpt>
      <trkpt lat="48.13328" lon="6.38194">
        <ele>444.27</ele>
        <time>2012-05-04T12:17:10Z</time>
      </trkpt>
      <trkpt lat="48.13329" lon="6.38194">
        <ele>444.27</ele>
        <time>2012-05-04T12:17:33Z</time>
      </trkpt>
      <trkpt lat="48.13328" lon="6.38194">
        <ele>444.75</ele>
        <time>2012-05-04T12:17:42Z</time>
      </trkpt>
      <trkpt lat="48.13325" lon="6.38187">
        <ele>444.27</ele>
        <time>2012-05-04T12:17:46Z</time>
      </trkpt>
      <trkpt lat="48.13305" lon="6.38153">
        <ele>443.79</ele>
        <time>2012-05-04T12:17:54Z</time>
      </trkpt>
      <trkpt lat="48.13302" lon="6.38148">
        <ele>443.79</ele>
        <time>2012-05-04T12:17:55Z</time>
      </trkpt>
      <trkpt lat="48.13268" lon="6.38089">
        <ele>444.27</ele>
        <time>2012-05-04T12:18:09Z</time>
      </trkpt>
      <trkpt lat="48.13251" lon="6.38065">
        <ele>442.34</ele>
        <time>2012-05-04T12:18:14Z</time>
      </trkpt>
      <trkpt lat="48.13242" lon="6.38056">
        <ele>440.9</ele>
        <time>2012-05-04T12:18:16Z</time>
      </trkpt>
      <trkpt lat="48.13237" lon="6.38054">
        <ele>439.94</ele>
        <time>2012-05-04T12:18:17Z</time>
      </trkpt>
      <trkpt lat="48.13231" lon="6.38053">
        <ele>438.98</ele>
        <time>2012-05-04T12:18:18Z</time>
      </trkpt>
      <trkpt lat="48.1322" lon="6.3806">
        <ele>434.17</ele>
        <time>2012-05-04T12:18:24Z</time>
      </trkpt>
      <trkpt lat="48.13218" lon="6.38065">
        <ele>430.81</ele>
        <time>2012-05-04T12:18:34Z</time>
      </trkpt>
      <trkpt lat="48.13218" lon="6.38066">
        <ele>430.81</ele>
        <time>2012-05-04T12:18:35Z</time>
      </trkpt>
      <trkpt lat="48.13218" lon="6.38073">
        <ele>431.29</ele>
        <time>2012-05-04T12:18:40Z</time>
      </trkpt>
      <trkpt lat="48.13219" lon="6.38077">
        <ele>431.29</ele>
        <time>2012-05-04T12:18:43Z</time>
      </trkpt>
      <trkpt lat="48.13221" lon="6.38081">
        <ele>431.29</ele>
        <time>2012-05-04T12:18:45Z</time>
      </trkpt>
      <trkpt lat="48.13235" lon="6.381">
        <ele>431.77</ele>
        <time>2012-05-04T12:18:55Z</time>
      </trkpt>
      <trkpt lat="48.13238" lon="6.38085">
        <ele>431.29</ele>
        <time>2012-05-04T12:19:05Z</time>
      </trkpt>
      <trkpt lat="48.13235" lon="6.38084">
        <ele>431.29</ele>
        <time>2012-05-04T12:19:06Z</time>
      </trkpt>
      <trkpt lat="48.13224" lon="6.38081">
        <ele>430.33</ele>
        <time>2012-05-04T12:19:11Z</time>
      </trkpt>
      <trkpt lat="48.13216" lon="6.38081">
        <ele>430.33</ele>
        <time>2012-05-04T12:19:14Z</time>
      </trkpt>
      <trkpt lat="48.13194" lon="6.38079">
        <ele>430.33</ele>
        <time>2012-05-04T12:19:22Z</time>
      </trkpt>
      <trkpt lat="48.13172" lon="6.38059">
        <ele>434.65</ele>
        <time>2012-05-04T12:19:34Z</time>
      </trkpt>
      <trkpt lat="48.13169" lon="6.38055">
        <ele>435.13</ele>
        <time>2012-05-04T12:19:36Z</time>
      </trkpt>
      <trkpt lat="48.13152" lon="6.38024">
        <ele>437.54</ele>
        <time>2012-05-04T12:19:49Z</time>
      </trkpt>
      <trkpt lat="48.13135" lon="6.37995">
        <ele>437.06</ele>
        <time>2012-05-04T12:19:58Z</time>
      </trkpt>
      <trkpt lat="48.13114" lon="6.37967">
        <ele>439.46</ele>
        <time>2012-05-04T12:20:06Z</time>
      </trkpt>
      <trkpt lat="48.13102" lon="6.37958">
        <ele>440.9</ele>
        <time>2012-05-04T12:20:11Z</time>
      </trkpt>
      <trkpt lat="48.13098" lon="6.37952">
        <ele>442.34</ele>
        <time>2012-05-04T12:20:13Z</time>
      </trkpt>
      <trkpt lat="48.13091" lon="6.37926">
        <ele>442.82</ele>
        <time>2012-05-04T12:20:19Z</time>
      </trkpt>
      <trkpt lat="48.13079" lon="6.37895">
        <ele>444.75</ele>
        <time>2012-05-04T12:20:25Z</time>
      </trkpt>
      <trkpt lat="48.13059" lon="6.37887">
        <ele>446.19</ele>
        <time>2012-05-04T12:20:32Z</time>
      </trkpt>
      <trkpt lat="48.13056" lon="6.37892">
        <ele>446.67</ele>
        <time>2012-05-04T12:20:34Z</time>
      </trkpt>
      <trkpt lat="48.13033" lon="6.37932">
        <ele>446.19</ele>
        <time>2012-05-04T12:20:46Z</time>
      </trkpt>
      <trkpt lat="48.1303" lon="6.37937">
        <ele>446.19</ele>
        <time>2012-05-04T12:20:47Z</time>
      </trkpt>
      <trkpt lat="48.13028" lon="6.37943">
        <ele>446.19</ele>
        <time>2012-05-04T12:20:48Z</time>
      </trkpt>
      <trkpt lat="48.1302" lon="6.37962">
        <ele>446.19</ele>
        <time>2012-05-04T12:20:51Z</time>
      </trkpt>
      <trkpt lat="48.13004" lon="6.37992">
        <ele>445.71</ele>
        <time>2012-05-04T12:20:56Z</time>
      </trkpt>
      <trkpt lat="48.13" lon="6.37997">
        <ele>445.71</ele>
        <time>2012-05-04T12:20:57Z</time>
      </trkpt>
      <trkpt lat="48.12986" lon="6.3802">
        <ele>444.75</ele>
        <time>2012-05-04T12:21:01Z</time>
      </trkpt>
      <trkpt lat="48.12982" lon="6.38024">
        <ele>444.27</ele>
        <time>2012-05-04T12:21:02Z</time>
      </trkpt>
      <trkpt lat="48.12973" lon="6.38031">
        <ele>444.27</ele>
        <time>2012-05-04T12:21:04Z</time>
      </trkpt>
      <trkpt lat="48.12968" lon="6.38033">
        <ele>443.79</ele>
        <time>2012-05-04T12:21:05Z</time>
      </trkpt>
      <trkpt lat="48.12963" lon="6.38035">
        <ele>443.79</ele>
        <time>2012-05-04T12:21:06Z</time>
      </trkpt>
      <trkpt lat="48.12959" lon="6.38038">
        <ele>444.27</ele>
        <time>2012-05-04T12:21:07Z</time>
      </trkpt>
      <trkpt lat="48.12954" lon="6.3804">
        <ele>444.75</ele>
        <time>2012-05-04T12:21:08Z</time>
      </trkpt>
      <trkpt lat="48.12948" lon="6.38042">
        <ele>444.75</ele>
        <time>2012-05-04T12:21:09Z</time>
      </trkpt>
      <trkpt lat="48.12942" lon="6.38044">
        <ele>445.23</ele>
        <time>2012-05-04T12:21:10Z</time>
      </trkpt>
      <trkpt lat="48.12919" lon="6.3805">
        <ele>445.71</ele>
        <time>2012-05-04T12:21:14Z</time>
      </trkpt>
      <trkpt lat="48.12914" lon="6.38051">
        <ele>445.71</ele>
        <time>2012-05-04T12:21:15Z</time>
      </trkpt>
      <trkpt lat="48.12908" lon="6.38053">
        <ele>445.71</ele>
        <time>2012-05-04T12:21:16Z</time>
      </trkpt>
      <trkpt lat="48.12896" lon="6.38058">
        <ele>445.71</ele>
        <time>2012-05-04T12:21:18Z</time>
      </trkpt>
      <trkpt lat="48.12855" lon="6.38073">
        <ele>441.86</ele>
        <time>2012-05-04T12:21:24Z</time>
      </trkpt>
      <trkpt lat="48.12847" lon="6.38077">
        <ele>440.42</ele>
        <time>2012-05-04T12:21:25Z</time>
      </trkpt>
      <trkpt lat="48.12839" lon="6.38079">
        <ele>439.46</ele>
        <time>2012-05-04T12:21:26Z</time>
      </trkpt>
      <trkpt lat="48.1283" lon="6.38081">
        <ele>438.5</ele>
        <time>2012-05-04T12:21:27Z</time>
      </trkpt>
      <trkpt lat="48.12822" lon="6.38083">
        <ele>437.54</ele>
        <time>2012-05-04T12:21:28Z</time>
      </trkpt>
      <trkpt lat="48.12814" lon="6.38086">
        <ele>436.58</ele>
        <time>2012-05-04T12:21:29Z</time>
      </trkpt>
      <trkpt lat="48.12806" lon="6.3809">
        <ele>436.1</ele>
        <time>2012-05-04T12:21:30Z</time>
      </trkpt>
      <trkpt lat="48.12799" lon="6.38096">
        <ele>435.13</ele>
        <time>2012-05-04T12:21:31Z</time>
      </trkpt>
      <trkpt lat="48.12792" lon="6.38102">
        <ele>434.65</ele>
        <time>2012-05-04T12:21:32Z</time>
      </trkpt>
      <trkpt lat="48.12787" lon="6.38112">
        <ele>433.69</ele>
        <time>2012-05-04T12:21:33Z</time>
      </trkpt>
      <trkpt lat="48.12783" lon="6.38124">
        <ele>432.73</ele>
        <time>2012-05-04T12:21:34Z</time>
      </trkpt>
      <trkpt lat="48.12779" lon="6.38138">
        <ele>431.77</ele>
        <time>2012-05-04T12:21:35Z</time>
      </trkpt>
      <trkpt lat="48.12777" lon="6.38151">
        <ele>430.81</ele>
        <time>2012-05-04T12:21:36Z</time>
      </trkpt>
      <trkpt lat="48.12766" lon="6.38205">
        <ele>427.92</ele>
        <time>2012-05-04T12:21:40Z</time>
      </trkpt>
      <trkpt lat="48.12762" lon="6.38217">
        <ele>427.44</ele>
        <time>2012-05-04T12:21:41Z</time>
      </trkpt>
      <trkpt lat="48.12757" lon="6.38227">
        <ele>427.44</ele>
        <time>2012-05-04T12:21:42Z</time>
      </trkpt>
      <trkpt lat="48.12705" lon="6.38322">
        <ele>424.56</ele>
        <time>2012-05-04T12:21:54Z</time>
      </trkpt>
      <trkpt lat="48.12698" lon="6.38341">
        <ele>424.08</ele>
        <time>2012-05-04T12:21:56Z</time>
      </trkpt>
      <trkpt lat="48.12691" lon="6.38371">
        <ele>423.12</ele>
        <time>2012-05-04T12:21:59Z</time>
      </trkpt>
      <trkpt lat="48.12688" lon="6.38402">
        <ele>422.64</ele>
        <time>2012-05-04T12:22:02Z</time>
      </trkpt>
      <trkpt lat="48.12685" lon="6.38411">
        <ele>422.64</ele>
        <time>2012-05-04T12:22:03Z</time>
      </trkpt>
      <trkpt lat="48.12683" lon="6.3842">
        <ele>422.64</ele>
        <time>2012-05-04T12:22:04Z</time>
      </trkpt>
      <trkpt lat="48.1268" lon="6.3843">
        <ele>422.64</ele>
        <time>2012-05-04T12:22:05Z</time>
      </trkpt>
      <trkpt lat="48.12677" lon="6.38439">
        <ele>422.16</ele>
        <time>2012-05-04T12:22:06Z</time>
      </trkpt>
      <trkpt lat="48.12652" lon="6.38525">
        <ele>425.52</ele>
        <time>2012-05-04T12:22:18Z</time>
      </trkpt>
      <trkpt lat="48.12644" lon="6.38583">
        <ele>427.92</ele>
        <time>2012-05-04T12:22:27Z</time>
      </trkpt>
      <trkpt lat="48.12644" lon="6.38616">
        <ele>428.4</ele>
        <time>2012-05-04T12:22:32Z</time>
      </trkpt>
      <trkpt lat="48.12643" lon="6.38637">
        <ele>428.4</ele>
        <time>2012-05-04T12:22:35Z</time>
      </trkpt>
      <trkpt lat="48.12643" lon="6.38657">
        <ele>427.92</ele>
        <time>2012-05-04T12:22:38Z</time>
      </trkpt>
      <trkpt lat="48.12644" lon="6.38663">
        <ele>427.44</ele>
        <time>2012-05-04T12:22:39Z</time>
      </trkpt>
      <trkpt lat="48.12644" lon="6.38762">
        <ele>423.6</ele>
        <time>2012-05-04T12:22:54Z</time>
      </trkpt>
      <trkpt lat="48.12645" lon="6.38792">
        <ele>423.6</ele>
        <time>2012-05-04T12:22:59Z</time>
      </trkpt>
      <trkpt lat="48.12643" lon="6.38854">
        <ele>422.64</ele>
        <time>2012-05-04T12:23:10Z</time>
      </trkpt>
      <trkpt lat="48.12643" lon="6.38861">
        <ele>422.64</ele>
        <time>2012-05-04T12:23:11Z</time>
      </trkpt>
      <trkpt lat="48.12643" lon="6.38868">
        <ele>422.64</ele>
        <time>2012-05-04T12:23:12Z</time>
      </trkpt>
      <trkpt lat="48.12645" lon="6.3897">
        <ele>419.27</ele>
        <time>2012-05-04T12:23:23Z</time>
      </trkpt>
      <trkpt lat="48.12645" lon="6.38978">
        <ele>418.79</ele>
        <time>2012-05-04T12:23:24Z</time>
      </trkpt>
      <trkpt lat="48.12645" lon="6.38986">
        <ele>418.31</ele>
        <time>2012-05-04T12:23:25Z</time>
      </trkpt>
      <trkpt lat="48.12645" lon="6.38996">
        <ele>417.35</ele>
        <time>2012-05-04T12:23:27Z</time>
      </trkpt>
      <trkpt lat="48.12657" lon="6.38991">
        <ele>419.75</ele>
        <time>2012-05-04T12:23:34Z</time>
      </trkpt>
      <trkpt lat="48.1267" lon="6.38977">
        <ele>422.64</ele>
        <time>2012-05-04T12:23:40Z</time>
      </trkpt>
      <trkpt lat="48.12712" lon="6.38958">
        <ele>426.48</ele>
        <time>2012-05-04T12:23:54Z</time>
      </trkpt>
      <trkpt lat="48.12744" lon="6.38955">
        <ele>429.37</ele>
        <time>2012-05-04T12:24:05Z</time>
      </trkpt>
      <trkpt lat="48.12771" lon="6.38949">
        <ele>431.77</ele>
        <time>2012-05-04T12:24:14Z</time>
      </trkpt>
      <trkpt lat="48.12777" lon="6.38946">
        <ele>432.73</ele>
        <time>2012-05-04T12:24:16Z</time>
      </trkpt>
      <trkpt lat="48.12799" lon="6.38942">
        <ele>437.54</ele>
        <time>2012-05-04T12:24:24Z</time>
      </trkpt>
      <trkpt lat="48.12801" lon="6.38942">
        <ele>438.02</ele>
        <time>2012-05-04T12:24:25Z</time>
      </trkpt>
      <trkpt lat="48.12809" lon="6.38943">
        <ele>439.46</ele>
        <time>2012-05-04T12:24:29Z</time>
      </trkpt>
      <trkpt lat="48.12824" lon="6.38945">
        <ele>440.42</ele>
        <time>2012-05-04T12:24:35Z</time>
      </trkpt>
      <trkpt lat="48.12839" lon="6.38945">
        <ele>440.42</ele>
        <time>2012-05-04T12:24:41Z</time>
      </trkpt>
      <trkpt lat="48.1287" lon="6.38941">
        <ele>437.54</ele>
        <time>2012-05-04T12:24:52Z</time>
      </trkpt>
      <trkpt lat="48.12882" lon="6.38943">
        <ele>436.1</ele>
        <time>2012-05-04T12:24:56Z</time>
      </trkpt>
      <trkpt lat="48.12917" lon="6.38947">
        <ele>434.65</ele>
        <time>2012-05-04T12:25:04Z</time>
      </trkpt>
      <trkpt lat="48.12952" lon="6.38959">
        <ele>436.1</ele>
        <time>2012-05-04T12:25:13Z</time>
      </trkpt>
      <trkpt lat="48.12985" lon="6.38974">
        <ele>438.5</ele>
        <time>2012-05-04T12:25:22Z</time>
      </trkpt>
      <trkpt lat="48.13018" lon="6.38992">
        <ele>439.94</ele>
        <time>2012-05-04T12:25:31Z</time>
      </trkpt>
      <trkpt lat="48.13034" lon="6.38996">
        <ele>442.82</ele>
        <time>2012-05-04T12:25:42Z</time>
      </trkpt>
      <trkpt lat="48.13042" lon="6.38995">
        <ele>450.03</ele>
        <time>2012-05-04T12:26:09Z</time>
      </trkpt>
      <trkpt lat="48.13043" lon="6.38996">
        <ele>450.52</ele>
        <time>2012-05-04T12:26:25Z</time>
      </trkpt>
      <trkpt lat="48.13066" lon="6.3901">
        <ele>447.15</ele>
        <time>2012-05-04T12:26:35Z</time>
      </trkpt>
      <trkpt lat="48.13085" lon="6.39035">
        <ele>446.19</ele>
        <time>2012-05-04T12:26:42Z</time>
      </trkpt>
      <trkpt lat="48.13106" lon="6.39057">
        <ele>446.19</ele>
        <time>2012-05-04T12:26:50Z</time>
      </trkpt>
      <trkpt lat="48.13118" lon="6.39067">
        <ele>446.67</ele>
        <time>2012-05-04T12:26:54Z</time>
      </trkpt>
      <trkpt lat="48.1313" lon="6.39079">
        <ele>447.15</ele>
        <time>2012-05-04T12:26:59Z</time>
      </trkpt>
      <trkpt lat="48.13152" lon="6.39095">
        <ele>446.67</ele>
        <time>2012-05-04T12:27:09Z</time>
      </trkpt>
      <trkpt lat="48.13153" lon="6.39113">
        <ele>447.15</ele>
        <time>2012-05-04T12:27:12Z</time>
      </trkpt>
      <trkpt lat="48.13167" lon="6.39153">
        <ele>448.59</ele>
        <time>2012-05-04T12:27:21Z</time>
      </trkpt>
      <trkpt lat="48.13182" lon="6.39181">
        <ele>451</ele>
        <time>2012-05-04T12:27:29Z</time>
      </trkpt>
      <trkpt lat="48.13192" lon="6.39205">
        <ele>450.52</ele>
        <time>2012-05-04T12:27:37Z</time>
      </trkpt>
      <trkpt lat="48.13198" lon="6.39223">
        <ele>447.63</ele>
        <time>2012-05-04T12:27:43Z</time>
      </trkpt>
      <trkpt lat="48.13212" lon="6.39249">
        <ele>444.27</ele>
        <time>2012-05-04T12:27:52Z</time>
      </trkpt>
      <trkpt lat="48.13216" lon="6.39272">
        <ele>443.79</ele>
        <time>2012-05-04T12:28:01Z</time>
      </trkpt>
      <trkpt lat="48.13215" lon="6.3928">
        <ele>451.96</ele>
        <time>2012-05-04T12:28:17Z</time>
      </trkpt>
      <trkpt lat="48.13214" lon="6.39279">
        <ele>454.84</ele>
        <time>2012-05-04T12:28:37Z</time>
      </trkpt>
      <trkpt lat="48.13211" lon="6.39283">
        <ele>458.21</ele>
        <time>2012-05-04T12:28:53Z</time>
      </trkpt>
      <trkpt lat="48.132" lon="6.39299">
        <ele>457.24</ele>
        <time>2012-05-04T12:29:01Z</time>
      </trkpt>
      <trkpt lat="48.13197" lon="6.3936">
        <ele>457.24</ele>
        <time>2012-05-04T12:29:15Z</time>
      </trkpt>
      <trkpt lat="48.13195" lon="6.39408">
        <ele>455.32</ele>
        <time>2012-05-04T12:29:24Z</time>
      </trkpt>
      <trkpt lat="48.13194" lon="6.39418">
        <ele>454.84</ele>
        <time>2012-05-04T12:29:26Z</time>
      </trkpt>
      <trkpt lat="48.13193" lon="6.3943">
        <ele>453.4</ele>
        <time>2012-05-04T12:29:28Z</time>
      </trkpt>
      <trkpt lat="48.13192" lon="6.39436">
        <ele>453.4</ele>
        <time>2012-05-04T12:29:29Z</time>
      </trkpt>
      <trkpt lat="48.13192" lon="6.39443">
        <ele>453.4</ele>
        <time>2012-05-04T12:29:30Z</time>
      </trkpt>
      <trkpt lat="48.13192" lon="6.39456">
        <ele>454.36</ele>
        <time>2012-05-04T12:29:32Z</time>
      </trkpt>
      <trkpt lat="48.13192" lon="6.39463">
        <ele>454.36</ele>
        <time>2012-05-04T12:29:33Z</time>
      </trkpt>
      <trkpt lat="48.13192" lon="6.39468">
        <ele>454.84</ele>
        <time>2012-05-04T12:29:34Z</time>
      </trkpt>
      <trkpt lat="48.1319" lon="6.39498">
        <ele>458.21</ele>
        <time>2012-05-04T12:29:40Z</time>
      </trkpt>
      <trkpt lat="48.1319" lon="6.39502">
        <ele>458.21</ele>
        <time>2012-05-04T12:29:41Z</time>
      </trkpt>
      <trkpt lat="48.1319" lon="6.39506">
        <ele>458.21</ele>
        <time>2012-05-04T12:29:42Z</time>
      </trkpt>
      <trkpt lat="48.1319" lon="6.39509">
        <ele>458.69</ele>
        <time>2012-05-04T12:29:43Z</time>
      </trkpt>
      <trkpt lat="48.13189" lon="6.39513">
        <ele>459.17</ele>
        <time>2012-05-04T12:29:44Z</time>
      </trkpt>
      <trkpt lat="48.13188" lon="6.39517">
        <ele>459.17</ele>
        <time>2012-05-04T12:29:45Z</time>
      </trkpt>
      <trkpt lat="48.13188" lon="6.3952">
        <ele>459.17</ele>
        <time>2012-05-04T12:29:46Z</time>
      </trkpt>
      <trkpt lat="48.13187" lon="6.39524">
        <ele>460.13</ele>
        <time>2012-05-04T12:29:47Z</time>
      </trkpt>
      <trkpt lat="48.13178" lon="6.3956">
        <ele>463.01</ele>
        <time>2012-05-04T12:29:54Z</time>
      </trkpt>
      <trkpt lat="48.13177" lon="6.39566">
        <ele>463.01</ele>
        <time>2012-05-04T12:29:55Z</time>
      </trkpt>
      <trkpt lat="48.13162" lon="6.39627">
        <ele>466.86</ele>
        <time>2012-05-04T12:30:06Z</time>
      </trkpt>
      <trkpt lat="48.13157" lon="6.39659">
        <ele>467.34</ele>
        <time>2012-05-04T12:30:11Z</time>
      </trkpt>
      <trkpt lat="48.13158" lon="6.39666">
        <ele>467.34</ele>
        <time>2012-05-04T12:30:12Z</time>
      </trkpt>
      <trkpt lat="48.13157" lon="6.39685">
        <ele>466.86</ele>
        <time>2012-05-04T12:30:15Z</time>
      </trkpt>
      <trkpt lat="48.13157" lon="6.39692">
        <ele>466.86</ele>
        <time>2012-05-04T12:30:16Z</time>
      </trkpt>
      <trkpt lat="48.13156" lon="6.39699">
        <ele>466.86</ele>
        <time>2012-05-04T12:30:17Z</time>
      </trkpt>
      <trkpt lat="48.13156" lon="6.39706">
        <ele>466.86</ele>
        <time>2012-05-04T12:30:18Z</time>
      </trkpt>
      <trkpt lat="48.13155" lon="6.39714">
        <ele>466.86</ele>
        <time>2012-05-04T12:30:19Z</time>
      </trkpt>
      <trkpt lat="48.13153" lon="6.39749">
        <ele>464.45</ele>
        <time>2012-05-04T12:30:23Z</time>
      </trkpt>
      <trkpt lat="48.13153" lon="6.39758">
        <ele>463.49</ele>
        <time>2012-05-04T12:30:24Z</time>
      </trkpt>
      <trkpt lat="48.13153" lon="6.39766">
        <ele>462.53</ele>
        <time>2012-05-04T12:30:25Z</time>
      </trkpt>
      <trkpt lat="48.13153" lon="6.39773">
        <ele>461.57</ele>
        <time>2012-05-04T12:30:26Z</time>
      </trkpt>
      <trkpt lat="48.13152" lon="6.39778">
        <ele>461.09</ele>
        <time>2012-05-04T12:30:27Z</time>
      </trkpt>
      <trkpt lat="48.13151" lon="6.39786">
        <ele>459.17</ele>
        <time>2012-05-04T12:30:29Z</time>
      </trkpt>
      <trkpt lat="48.13149" lon="6.39791">
        <ele>458.69</ele>
        <time>2012-05-04T12:30:30Z</time>
      </trkpt>
      <trkpt lat="48.13148" lon="6.39796">
        <ele>458.21</ele>
        <time>2012-05-04T12:30:31Z</time>
      </trkpt>
      <trkpt lat="48.13146" lon="6.39806">
        <ele>456.28</ele>
        <time>2012-05-04T12:30:33Z</time>
      </trkpt>
      <trkpt lat="48.13146" lon="6.39811">
        <ele>455.32</ele>
        <time>2012-05-04T12:30:34Z</time>
      </trkpt>
      <trkpt lat="48.13146" lon="6.39817">
        <ele>453.88</ele>
        <time>2012-05-04T12:30:35Z</time>
      </trkpt>
      <trkpt lat="48.13146" lon="6.39849">
        <ele>448.59</ele>
        <time>2012-05-04T12:30:40Z</time>
      </trkpt>
      <trkpt lat="48.13148" lon="6.39879">
        <ele>444.75</ele>
        <time>2012-05-04T12:30:44Z</time>
      </trkpt>
      <trkpt lat="48.1315" lon="6.39885">
        <ele>443.79</ele>
        <time>2012-05-04T12:30:45Z</time>
      </trkpt>
      <trkpt lat="48.13151" lon="6.39892">
        <ele>443.31</ele>
        <time>2012-05-04T12:30:46Z</time>
      </trkpt>
      <trkpt lat="48.13152" lon="6.39907">
        <ele>442.34</ele>
        <time>2012-05-04T12:30:48Z</time>
      </trkpt>
      <trkpt lat="48.13153" lon="6.39914">
        <ele>441.86</ele>
        <time>2012-05-04T12:30:49Z</time>
      </trkpt>
      <trkpt lat="48.13154" lon="6.39922">
        <ele>441.38</ele>
        <time>2012-05-04T12:30:50Z</time>
      </trkpt>
      <trkpt lat="48.13154" lon="6.3993">
        <ele>441.38</ele>
        <time>2012-05-04T12:30:51Z</time>
      </trkpt>
      <trkpt lat="48.13156" lon="6.39938">
        <ele>441.38</ele>
        <time>2012-05-04T12:30:52Z</time>
      </trkpt>
      <trkpt lat="48.13157" lon="6.39945">
        <ele>441.38</ele>
        <time>2012-05-04T12:30:53Z</time>
      </trkpt>
      <trkpt lat="48.13162" lon="6.39975">
        <ele>441.38</ele>
        <time>2012-05-04T12:30:57Z</time>
      </trkpt>
      <trkpt lat="48.13164" lon="6.39982">
        <ele>441.38</ele>
        <time>2012-05-04T12:30:58Z</time>
      </trkpt>
      <trkpt lat="48.13165" lon="6.39989">
        <ele>441.86</ele>
        <time>2012-05-04T12:30:59Z</time>
      </trkpt>
      <trkpt lat="48.13171" lon="6.40016">
        <ele>442.34</ele>
        <time>2012-05-04T12:31:03Z</time>
      </trkpt>
      <trkpt lat="48.13172" lon="6.40022">
        <ele>442.82</ele>
        <time>2012-05-04T12:31:04Z</time>
      </trkpt>
      <trkpt lat="48.13174" lon="6.40028">
        <ele>442.82</ele>
        <time>2012-05-04T12:31:05Z</time>
      </trkpt>
      <trkpt lat="48.13176" lon="6.40034">
        <ele>442.34</ele>
        <time>2012-05-04T12:31:06Z</time>
      </trkpt>
      <trkpt lat="48.13177" lon="6.40041">
        <ele>442.34</ele>
        <time>2012-05-04T12:31:07Z</time>
      </trkpt>
      <trkpt lat="48.13177" lon="6.40047">
        <ele>442.34</ele>
        <time>2012-05-04T12:31:08Z</time>
      </trkpt>
      <trkpt lat="48.13175" lon="6.40051">
        <ele>441.86</ele>
        <time>2012-05-04T12:31:09Z</time>
      </trkpt>
      <trkpt lat="48.13172" lon="6.40053">
        <ele>441.38</ele>
        <time>2012-05-04T12:31:10Z</time>
      </trkpt>
      <trkpt lat="48.13168" lon="6.40053">
        <ele>440.9</ele>
        <time>2012-05-04T12:31:11Z</time>
      </trkpt>
      <trkpt lat="48.13165" lon="6.40053">
        <ele>440.42</ele>
        <time>2012-05-04T12:31:12Z</time>
      </trkpt>
      <trkpt lat="48.13161" lon="6.40052">
        <ele>440.42</ele>
        <time>2012-05-04T12:31:13Z</time>
      </trkpt>
      <trkpt lat="48.13158" lon="6.40051">
        <ele>439.94</ele>
        <time>2012-05-04T12:31:14Z</time>
      </trkpt>
      <trkpt lat="48.13149" lon="6.40047">
        <ele>438.5</ele>
        <time>2012-05-04T12:31:17Z</time>
      </trkpt>
      <trkpt lat="48.13145" lon="6.40044">
        <ele>438.5</ele>
        <time>2012-05-04T12:31:18Z</time>
      </trkpt>
      <trkpt lat="48.13141" lon="6.40042">
        <ele>438.02</ele>
        <time>2012-05-04T12:31:19Z</time>
      </trkpt>
      <trkpt lat="48.13098" lon="6.40018">
        <ele>436.1</ele>
        <time>2012-05-04T12:31:27Z</time>
      </trkpt>
      <trkpt lat="48.13074" lon="6.40005">
        <ele>435.61</ele>
        <time>2012-05-04T12:31:31Z</time>
      </trkpt>
      <trkpt lat="48.13045" lon="6.39994">
        <ele>435.61</ele>
        <time>2012-05-04T12:31:39Z</time>
      </trkpt>
      <trkpt lat="48.13025" lon="6.39992">
        <ele>437.06</ele>
        <time>2012-05-04T12:31:46Z</time>
      </trkpt>
      <trkpt lat="48.13022" lon="6.39994">
        <ele>437.54</ele>
        <time>2012-05-04T12:31:47Z</time>
      </trkpt>
      <trkpt lat="48.12994" lon="6.40028">
        <ele>438.02</ele>
        <time>2012-05-04T12:31:55Z</time>
      </trkpt>
      <trkpt lat="48.12991" lon="6.40034">
        <ele>437.54</ele>
        <time>2012-05-04T12:31:56Z</time>
      </trkpt>
      <trkpt lat="48.12984" lon="6.40043">
        <ele>437.54</ele>
        <time>2012-05-04T12:31:58Z</time>
      </trkpt>
      <trkpt lat="48.12951" lon="6.40081">
        <ele>437.54</ele>
        <time>2012-05-04T12:32:08Z</time>
      </trkpt>
      <trkpt lat="48.12928" lon="6.40131">
        <ele>442.34</ele>
        <time>2012-05-04T12:32:19Z</time>
      </trkpt>
      <trkpt lat="48.12925" lon="6.40143">
        <ele>442.82</ele>
        <time>2012-05-04T12:32:21Z</time>
      </trkpt>
      <trkpt lat="48.12918" lon="6.40166">
        <ele>443.31</ele>
        <time>2012-05-04T12:32:25Z</time>
      </trkpt>
      <trkpt lat="48.12916" lon="6.40173">
        <ele>443.79</ele>
        <time>2012-05-04T12:32:26Z</time>
      </trkpt>
      <trkpt lat="48.12913" lon="6.40179">
        <ele>443.79</ele>
        <time>2012-05-04T12:32:27Z</time>
      </trkpt>
      <trkpt lat="48.12905" lon="6.40197">
        <ele>444.27</ele>
        <time>2012-05-04T12:32:30Z</time>
      </trkpt>
      <trkpt lat="48.12903" lon="6.40203">
        <ele>444.27</ele>
        <time>2012-05-04T12:32:31Z</time>
      </trkpt>
      <trkpt lat="48.12893" lon="6.40223">
        <ele>445.71</ele>
        <time>2012-05-04T12:32:34Z</time>
      </trkpt>
      <trkpt lat="48.12883" lon="6.40253">
        <ele>446.67</ele>
        <time>2012-05-04T12:32:38Z</time>
      </trkpt>
      <trkpt lat="48.12881" lon="6.40261">
        <ele>446.67</ele>
        <time>2012-05-04T12:32:39Z</time>
      </trkpt>
      <trkpt lat="48.12878" lon="6.4027">
        <ele>447.15</ele>
        <time>2012-05-04T12:32:40Z</time>
      </trkpt>
      <trkpt lat="48.12868" lon="6.40301">
        <ele>448.11</ele>
        <time>2012-05-04T12:32:44Z</time>
      </trkpt>
      <trkpt lat="48.12846" lon="6.40352">
        <ele>447.15</ele>
        <time>2012-05-04T12:32:51Z</time>
      </trkpt>
      <trkpt lat="48.12842" lon="6.40358">
        <ele>447.15</ele>
        <time>2012-05-04T12:32:52Z</time>
      </trkpt>
      <trkpt lat="48.12838" lon="6.40365">
        <ele>447.15</ele>
        <time>2012-05-04T12:32:53Z</time>
      </trkpt>
      <trkpt lat="48.12819" lon="6.40403">
        <ele>448.11</ele>
        <time>2012-05-04T12:32:59Z</time>
      </trkpt>
      <trkpt lat="48.12816" lon="6.40408">
        <ele>448.11</ele>
        <time>2012-05-04T12:33:00Z</time>
      </trkpt>
      <trkpt lat="48.12813" lon="6.40414">
        <ele>448.59</ele>
        <time>2012-05-04T12:33:01Z</time>
      </trkpt>
      <trkpt lat="48.1281" lon="6.4042">
        <ele>449.07</ele>
        <time>2012-05-04T12:33:02Z</time>
      </trkpt>
      <trkpt lat="48.12808" lon="6.40426">
        <ele>449.55</ele>
        <time>2012-05-04T12:33:03Z</time>
      </trkpt>
      <trkpt lat="48.12805" lon="6.40433">
        <ele>449.55</ele>
        <time>2012-05-04T12:33:04Z</time>
      </trkpt>
      <trkpt lat="48.12795" lon="6.40456">
        <ele>450.03</ele>
        <time>2012-05-04T12:33:08Z</time>
      </trkpt>
      <trkpt lat="48.12791" lon="6.40462">
        <ele>450.03</ele>
        <time>2012-05-04T12:33:09Z</time>
      </trkpt>
      <trkpt lat="48.12788" lon="6.40468">
        <ele>450.03</ele>
        <time>2012-05-04T12:33:10Z</time>
      </trkpt>
      <trkpt lat="48.12765" lon="6.40492">
        <ele>451</ele>
        <time>2012-05-04T12:33:19Z</time>
      </trkpt>
      <trkpt lat="48.12747" lon="6.40491">
        <ele>451.96</ele>
        <time>2012-05-04T12:33:24Z</time>
      </trkpt>
      <trkpt lat="48.12738" lon="6.40492">
        <ele>451.96</ele>
        <time>2012-05-04T12:33:26Z</time>
      </trkpt>
      <trkpt lat="48.12734" lon="6.40494">
        <ele>452.44</ele>
        <time>2012-05-04T12:33:27Z</time>
      </trkpt>
      <trkpt lat="48.12729" lon="6.40496">
        <ele>452.44</ele>
        <time>2012-05-04T12:33:28Z</time>
      </trkpt>
      <trkpt lat="48.12725" lon="6.40499">
        <ele>452.44</ele>
        <time>2012-05-04T12:33:29Z</time>
      </trkpt>
      <trkpt lat="48.1272" lon="6.40502">
        <ele>451.96</ele>
        <time>2012-05-04T12:33:30Z</time>
      </trkpt>
      <trkpt lat="48.12715" lon="6.40505">
        <ele>451.96</ele>
        <time>2012-05-04T12:33:31Z</time>
      </trkpt>
      <trkpt lat="48.12711" lon="6.40507">
        <ele>451.96</ele>
        <time>2012-05-04T12:33:32Z</time>
      </trkpt>
      <trkpt lat="48.12696" lon="6.40516">
        <ele>450.52</ele>
        <time>2012-05-04T12:33:36Z</time>
      </trkpt>
      <trkpt lat="48.12692" lon="6.40519">
        <ele>450.52</ele>
        <time>2012-05-04T12:33:37Z</time>
      </trkpt>
      <trkpt lat="48.12682" lon="6.40525">
        <ele>451.48</ele>
        <time>2012-05-04T12:33:40Z</time>
      </trkpt>
      <trkpt lat="48.12678" lon="6.40525">
        <ele>451.48</ele>
        <time>2012-05-04T12:33:41Z</time>
      </trkpt>
      <trkpt lat="48.12674" lon="6.40525">
        <ele>451.96</ele>
        <time>2012-05-04T12:33:42Z</time>
      </trkpt>
      <trkpt lat="48.12671" lon="6.40525">
        <ele>452.44</ele>
        <time>2012-05-04T12:33:43Z</time>
      </trkpt>
      <trkpt lat="48.12667" lon="6.40526">
        <ele>452.44</ele>
        <time>2012-05-04T12:33:44Z</time>
      </trkpt>
      <trkpt lat="48.12663" lon="6.40528">
        <ele>452.92</ele>
        <time>2012-05-04T12:33:45Z</time>
      </trkpt>
      <trkpt lat="48.12659" lon="6.40531">
        <ele>453.4</ele>
        <time>2012-05-04T12:33:46Z</time>
      </trkpt>
      <trkpt lat="48.12656" lon="6.40535">
        <ele>454.36</ele>
        <time>2012-05-04T12:33:47Z</time>
      </trkpt>
      <trkpt lat="48.12653" lon="6.40538">
        <ele>454.84</ele>
        <time>2012-05-04T12:33:48Z</time>
      </trkpt>
      <trkpt lat="48.1265" lon="6.40541">
        <ele>455.8</ele>
        <time>2012-05-04T12:33:49Z</time>
      </trkpt>
      <trkpt lat="48.12647" lon="6.40544">
        <ele>455.8</ele>
        <time>2012-05-04T12:33:50Z</time>
      </trkpt>
      <trkpt lat="48.12644" lon="6.40547">
        <ele>456.28</ele>
        <time>2012-05-04T12:33:51Z</time>
      </trkpt>
      <trkpt lat="48.12612" lon="6.40561">
        <ele>456.28</ele>
        <time>2012-05-04T12:34:00Z</time>
      </trkpt>
      <trkpt lat="48.12594" lon="6.40586">
        <ele>458.21</ele>
        <time>2012-05-04T12:34:08Z</time>
      </trkpt>
      <trkpt lat="48.12587" lon="6.40612">
        <ele>459.17</ele>
        <time>2012-05-04T12:34:13Z</time>
      </trkpt>
      <trkpt lat="48.12583" lon="6.40617">
        <ele>459.17</ele>
        <time>2012-05-04T12:34:14Z</time>
      </trkpt>
      <trkpt lat="48.12579" lon="6.40619">
        <ele>459.17</ele>
        <time>2012-05-04T12:34:15Z</time>
      </trkpt>
      <trkpt lat="48.1257" lon="6.40625">
        <ele>458.69</ele>
        <time>2012-05-04T12:34:17Z</time>
      </trkpt>
      <trkpt lat="48.12565" lon="6.4063">
        <ele>458.21</ele>
        <time>2012-05-04T12:34:18Z</time>
      </trkpt>
      <trkpt lat="48.1256" lon="6.40636">
        <ele>457.72</ele>
        <time>2012-05-04T12:34:19Z</time>
      </trkpt>
      <trkpt lat="48.12554" lon="6.40641">
        <ele>457.24</ele>
        <time>2012-05-04T12:34:20Z</time>
      </trkpt>
      <trkpt lat="48.12549" lon="6.40646">
        <ele>456.76</ele>
        <time>2012-05-04T12:34:21Z</time>
      </trkpt>
      <trkpt lat="48.12544" lon="6.40654">
        <ele>456.28</ele>
        <time>2012-05-04T12:34:22Z</time>
      </trkpt>
      <trkpt lat="48.12541" lon="6.40664">
        <ele>455.8</ele>
        <time>2012-05-04T12:34:23Z</time>
      </trkpt>
      <trkpt lat="48.1254" lon="6.40675">
        <ele>455.32</ele>
        <time>2012-05-04T12:34:24Z</time>
      </trkpt>
      <trkpt lat="48.12541" lon="6.40686">
        <ele>454.84</ele>
        <time>2012-05-04T12:34:25Z</time>
      </trkpt>
      <trkpt lat="48.12543" lon="6.40698">
        <ele>454.36</ele>
        <time>2012-05-04T12:34:26Z</time>
      </trkpt>
      <trkpt lat="48.12542" lon="6.40709">
        <ele>453.4</ele>
        <time>2012-05-04T12:34:27Z</time>
      </trkpt>
      <trkpt lat="48.12541" lon="6.40721">
        <ele>452.92</ele>
        <time>2012-05-04T12:34:28Z</time>
      </trkpt>
      <trkpt lat="48.12541" lon="6.40734">
        <ele>452.44</ele>
        <time>2012-05-04T12:34:29Z</time>
      </trkpt>
      <trkpt lat="48.12541" lon="6.40746">
        <ele>451.96</ele>
        <time>2012-05-04T12:34:30Z</time>
      </trkpt>
      <trkpt lat="48.12539" lon="6.40757">
        <ele>451.48</ele>
        <time>2012-05-04T12:34:31Z</time>
      </trkpt>
      <trkpt lat="48.12533" lon="6.40794">
        <ele>449.55</ele>
        <time>2012-05-04T12:34:34Z</time>
      </trkpt>
      <trkpt lat="48.12532" lon="6.40806">
        <ele>449.07</ele>
        <time>2012-05-04T12:34:35Z</time>
      </trkpt>
      <trkpt lat="48.12528" lon="6.40835">
        <ele>447.63</ele>
        <time>2012-05-04T12:34:38Z</time>
      </trkpt>
      <trkpt lat="48.12524" lon="6.40842">
        <ele>447.15</ele>
        <time>2012-05-04T12:34:39Z</time>
      </trkpt>
      <trkpt lat="48.12519" lon="6.40849">
        <ele>446.67</ele>
        <time>2012-05-04T12:34:40Z</time>
      </trkpt>
      <trkpt lat="48.12514" lon="6.40856">
        <ele>446.19</ele>
        <time>2012-05-04T12:34:41Z</time>
      </trkpt>
      <trkpt lat="48.12508" lon="6.40861">
        <ele>445.71</ele>
        <time>2012-05-04T12:34:42Z</time>
      </trkpt>
      <trkpt lat="48.12501" lon="6.40865">
        <ele>445.23</ele>
        <time>2012-05-04T12:34:43Z</time>
      </trkpt>
      <trkpt lat="48.12494" lon="6.40869">
        <ele>444.27</ele>
        <time>2012-05-04T12:34:44Z</time>
      </trkpt>
      <trkpt lat="48.12461" lon="6.40867">
        <ele>440.42</ele>
        <time>2012-05-04T12:34:49Z</time>
      </trkpt>
      <trkpt lat="48.12457" lon="6.4087">
        <ele>439.46</ele>
        <time>2012-05-04T12:34:50Z</time>
      </trkpt>
      <trkpt lat="48.12441" lon="6.40881">
        <ele>437.06</ele>
        <time>2012-05-04T12:34:53Z</time>
      </trkpt>
      <trkpt lat="48.12411" lon="6.40909">
        <ele>434.17</ele>
        <time>2012-05-04T12:34:59Z</time>
      </trkpt>
      <trkpt lat="48.12396" lon="6.40934">
        <ele>431.77</ele>
        <time>2012-05-04T12:35:03Z</time>
      </trkpt>
      <trkpt lat="48.12392" lon="6.40947">
        <ele>431.29</ele>
        <time>2012-05-04T12:35:05Z</time>
      </trkpt>
      <trkpt lat="48.12376" lon="6.40981">
        <ele>429.37</ele>
        <time>2012-05-04T12:35:12Z</time>
      </trkpt>
      <trkpt lat="48.12372" lon="6.40993">
        <ele>429.37</ele>
        <time>2012-05-04T12:35:14Z</time>
      </trkpt>
      <trkpt lat="48.1237" lon="6.40998">
        <ele>429.37</ele>
        <time>2012-05-04T12:35:15Z</time>
      </trkpt>
      <trkpt lat="48.12367" lon="6.41004">
        <ele>429.37</ele>
        <time>2012-05-04T12:35:16Z</time>
      </trkpt>
      <trkpt lat="48.12364" lon="6.4101">
        <ele>429.85</ele>
        <time>2012-05-04T12:35:17Z</time>
      </trkpt>
      <trkpt lat="48.12362" lon="6.41017">
        <ele>430.33</ele>
        <time>2012-05-04T12:35:18Z</time>
      </trkpt>
      <trkpt lat="48.1236" lon="6.41023">
        <ele>430.81</ele>
        <time>2012-05-04T12:35:19Z</time>
      </trkpt>
      <trkpt lat="48.12358" lon="6.41029">
        <ele>431.29</ele>
        <time>2012-05-04T12:35:20Z</time>
      </trkpt>
      <trkpt lat="48.12348" lon="6.41055">
        <ele>432.25</ele>
        <time>2012-05-04T12:35:24Z</time>
      </trkpt>
      <trkpt lat="48.12347" lon="6.41062">
        <ele>432.73</ele>
        <time>2012-05-04T12:35:25Z</time>
      </trkpt>
      <trkpt lat="48.12345" lon="6.41068">
        <ele>432.73</ele>
        <time>2012-05-04T12:35:26Z</time>
      </trkpt>
      <trkpt lat="48.12343" lon="6.41075">
        <ele>432.73</ele>
        <time>2012-05-04T12:35:27Z</time>
      </trkpt>
      <trkpt lat="48.12341" lon="6.41081">
        <ele>432.73</ele>
        <time>2012-05-04T12:35:28Z</time>
      </trkpt>
      <trkpt lat="48.12339" lon="6.41087">
        <ele>432.73</ele>
        <time>2012-05-04T12:35:29Z</time>
      </trkpt>
      <trkpt lat="48.12337" lon="6.41091">
        <ele>432.73</ele>
        <time>2012-05-04T12:35:30Z</time>
      </trkpt>
      <trkpt lat="48.12335" lon="6.41096">
        <ele>432.25</ele>
        <time>2012-05-04T12:35:31Z</time>
      </trkpt>
      <trkpt lat="48.1233" lon="6.41107">
        <ele>432.25</ele>
        <time>2012-05-04T12:35:33Z</time>
      </trkpt>
      <trkpt lat="48.12328" lon="6.41114">
        <ele>432.25</ele>
        <time>2012-05-04T12:35:34Z</time>
      </trkpt>
      <trkpt lat="48.12325" lon="6.41121">
        <ele>431.77</ele>
        <time>2012-05-04T12:35:35Z</time>
      </trkpt>
      <trkpt lat="48.12304" lon="6.41155">
        <ele>432.25</ele>
        <time>2012-05-04T12:35:42Z</time>
      </trkpt>
      <trkpt lat="48.12302" lon="6.41161">
        <ele>432.73</ele>
        <time>2012-05-04T12:35:43Z</time>
      </trkpt>
      <trkpt lat="48.12299" lon="6.41166">
        <ele>432.73</ele>
        <time>2012-05-04T12:35:44Z</time>
      </trkpt>
      <trkpt lat="48.12296" lon="6.41171">
        <ele>432.73</ele>
        <time>2012-05-04T12:35:45Z</time>
      </trkpt>
      <trkpt lat="48.12293" lon="6.41175">
        <ele>432.25</ele>
        <time>2012-05-04T12:35:46Z</time>
      </trkpt>
      <trkpt lat="48.12291" lon="6.41181">
        <ele>432.25</ele>
        <time>2012-05-04T12:35:47Z</time>
      </trkpt>
      <trkpt lat="48.1229" lon="6.41186">
        <ele>431.77</ele>
        <time>2012-05-04T12:35:48Z</time>
      </trkpt>
      <trkpt lat="48.12289" lon="6.41192">
        <ele>431.29</ele>
        <time>2012-05-04T12:35:49Z</time>
      </trkpt>
      <trkpt lat="48.1228" lon="6.4122">
        <ele>432.73</ele>
        <time>2012-05-04T12:35:55Z</time>
      </trkpt>
      <trkpt lat="48.12279" lon="6.41223">
        <ele>432.73</ele>
        <time>2012-05-04T12:35:56Z</time>
      </trkpt>
      <trkpt lat="48.12277" lon="6.41224">
        <ele>433.69</ele>
        <time>2012-05-04T12:35:57Z</time>
      </trkpt>
      <trkpt lat="48.12276" lon="6.41225">
        <ele>433.69</ele>
        <time>2012-05-04T12:35:58Z</time>
      </trkpt>
      <trkpt lat="48.12275" lon="6.4123">
        <ele>434.17</ele>
        <time>2012-05-04T12:36:00Z</time>
      </trkpt>
      <trkpt lat="48.12276" lon="6.41233">
        <ele>433.69</ele>
        <time>2012-05-04T12:36:01Z</time>
      </trkpt>
      <trkpt lat="48.12276" lon="6.41236">
        <ele>433.21</ele>
        <time>2012-05-04T12:36:02Z</time>
      </trkpt>
      <trkpt lat="48.12277" lon="6.4124">
        <ele>433.21</ele>
        <time>2012-05-04T12:36:04Z</time>
      </trkpt>
      <trkpt lat="48.12278" lon="6.41242">
        <ele>432.73</ele>
        <time>2012-05-04T12:36:05Z</time>
      </trkpt>
      <trkpt lat="48.12276" lon="6.41243">
        <ele>431.77</ele>
        <time>2012-05-04T12:36:09Z</time>
      </trkpt>
      <trkpt lat="48.12275" lon="6.41243">
        <ele>431.29</ele>
        <time>2012-05-04T12:36:10Z</time>
      </trkpt>
      <trkpt lat="48.1227" lon="6.41244">
        <ele>435.61</ele>
        <time>2012-05-04T12:36:23Z</time>
      </trkpt>
      <trkpt lat="48.12269" lon="6.41245">
        <ele>438.02</ele>
        <time>2012-05-04T12:36:44Z</time>
      </trkpt>
      <trkpt lat="48.12269" lon="6.41245">
        <ele>438.98</ele>
        <time>2012-05-04T12:37:03Z</time>
      </trkpt>
      <trkpt lat="48.12269" lon="6.41245">
        <ele>439.94</ele>
        <time>2012-05-04T12:37:31Z</time>
      </trkpt>
      <trkpt lat="48.12268" lon="6.41245">
        <ele>439.94</ele>
        <time>2012-05-04T12:37:47Z</time>
      </trkpt>
      <trkpt lat="48.12269" lon="6.41244">
        <ele>440.9</ele>
        <time>2012-05-04T12:38:09Z</time>
      </trkpt>
      <trkpt lat="48.12268" lon="6.41243">
        <ele>441.38</ele>
        <time>2012-05-04T12:38:38Z</time>
      </trkpt>
      <trkpt lat="48.12267" lon="6.41244">
        <ele>441.38</ele>
        <time>2012-05-04T12:39:03Z</time>
      </trkpt>
      <trkpt lat="48.12266" lon="6.41245">
        <ele>441.38</ele>
        <time>2012-05-04T12:39:20Z</time>
      </trkpt>
      <trkpt lat="48.12267" lon="6.41248">
        <ele>441.38</ele>
        <time>2012-05-04T12:39:52Z</time>
      </trkpt>
      <trkpt lat="48.12268" lon="6.41246">
        <ele>441.38</ele>
        <time>2012-05-04T12:40:25Z</time>
      </trkpt>
      <trkpt lat="48.12267" lon="6.41246">
        <ele>442.34</ele>
        <time>2012-05-04T12:40:49Z</time>
      </trkpt>
      <trkpt lat="48.12266" lon="6.41247">
        <ele>442.82</ele>
        <time>2012-05-04T12:41:24Z</time>
      </trkpt>
      <trkpt lat="48.12266" lon="6.41246">
        <ele>442.34</ele>
        <time>2012-05-04T12:41:48Z</time>
      </trkpt>
      <trkpt lat="48.12266" lon="6.41249">
        <ele>442.82</ele>
        <time>2012-05-04T12:42:12Z</time>
      </trkpt>
      <trkpt lat="48.12267" lon="6.41247">
        <ele>444.27</ele>
        <time>2012-05-04T12:42:39Z</time>
      </trkpt>
      <trkpt lat="48.12267" lon="6.41247">
        <ele>443.79</ele>
        <time>2012-05-04T12:43:12Z</time>
      </trkpt>
      <trkpt lat="48.12267" lon="6.41248">
        <ele>443.79</ele>
        <time>2012-05-04T12:43:40Z</time>
      </trkpt>
      <trkpt lat="48.12265" lon="6.41248">
        <ele>442.34</ele>
        <time>2012-05-04T12:44:02Z</time>
      </trkpt>
      <trkpt lat="48.12265" lon="6.4125">
        <ele>442.82</ele>
        <time>2012-05-04T12:44:25Z</time>
      </trkpt>
      <trkpt lat="48.12264" lon="6.4125">
        <ele>442.82</ele>
        <time>2012-05-04T12:44:37Z</time>
      </trkpt>
      <trkpt lat="48.12265" lon="6.41251">
        <ele>443.31</ele>
        <time>2012-05-04T12:45:03Z</time>
      </trkpt>
      <trkpt lat="48.12267" lon="6.41251">
        <ele>443.31</ele>
        <time>2012-05-04T12:45:24Z</time>
      </trkpt>
      <trkpt lat="48.12266" lon="6.41247">
        <ele>443.79</ele>
        <time>2012-05-04T12:45:51Z</time>
      </trkpt>
      <trkpt lat="48.12266" lon="6.41246">
        <ele>444.75</ele>
        <time>2012-05-04T12:46:08Z</time>
      </trkpt>
      <trkpt lat="48.12267" lon="6.41248">
        <ele>444.75</ele>
        <time>2012-05-04T12:46:28Z</time>
      </trkpt>
      <trkpt lat="48.12269" lon="6.41247">
        <ele>445.23</ele>
        <time>2012-05-04T12:46:57Z</time>
      </trkpt>
      <trkpt lat="48.1227" lon="6.41248">
        <ele>446.19</ele>
        <time>2012-05-04T12:47:25Z</time>
      </trkpt>
      <trkpt lat="48.12269" lon="6.41248">
        <ele>447.15</ele>
        <time>2012-05-04T12:47:46Z</time>
      </trkpt>
      <trkpt lat="48.12267" lon="6.41247">
        <ele>447.15</ele>
        <time>2012-05-04T12:48:10Z</time>
      </trkpt>
      <trkpt lat="48.12267" lon="6.41247">
        <ele>447.63</ele>
        <time>2012-05-04T12:48:35Z</time>
      </trkpt>
      <trkpt lat="48.12269" lon="6.41251">
        <ele>446.19</ele>
        <time>2012-05-04T12:48:53Z</time>
      </trkpt>
      <trkpt lat="48.12272" lon="6.4125">
        <ele>446.67</ele>
        <time>2012-05-04T12:48:57Z</time>
      </trkpt>
      <trkpt lat="48.12273" lon="6.41251">
        <ele>447.15</ele>
        <time>2012-05-04T12:48:58Z</time>
      </trkpt>
      <trkpt lat="48.12275" lon="6.41251">
        <ele>447.63</ele>
        <time>2012-05-04T12:48:59Z</time>
      </trkpt>
      <trkpt lat="48.12276" lon="6.41253">
        <ele>447.15</ele>
        <time>2012-05-04T12:49:02Z</time>
      </trkpt>
      <trkpt lat="48.12277" lon="6.41255">
        <ele>447.15</ele>
        <time>2012-05-04T12:49:03Z</time>
      </trkpt>
      <trkpt lat="48.12279" lon="6.41257">
        <ele>446.67</ele>
        <time>2012-05-04T12:49:04Z</time>
      </trkpt>
      <trkpt lat="48.12281" lon="6.41259">
        <ele>446.67</ele>
        <time>2012-05-04T12:49:05Z</time>
      </trkpt>
      <trkpt lat="48.12283" lon="6.41261">
        <ele>446.19</ele>
        <time>2012-05-04T12:49:06Z</time>
      </trkpt>
      <trkpt lat="48.12297" lon="6.41278">
        <ele>442.82</ele>
        <time>2012-05-04T12:49:17Z</time>
      </trkpt>
      <trkpt lat="48.12299" lon="6.41278">
        <ele>442.82</ele>
        <time>2012-05-04T12:49:18Z</time>
      </trkpt>
      <trkpt lat="48.12301" lon="6.41277">
        <ele>442.82</ele>
        <time>2012-05-04T12:49:19Z</time>
      </trkpt>
      <trkpt lat="48.12313" lon="6.41275">
        <ele>443.31</ele>
        <time>2012-05-04T12:49:25Z</time>
      </trkpt>
      <trkpt lat="48.12315" lon="6.41276">
        <ele>442.82</ele>
        <time>2012-05-04T12:49:26Z</time>
      </trkpt>
      <trkpt lat="48.12338" lon="6.41282">
        <ele>439.94</ele>
        <time>2012-05-04T12:49:34Z</time>
      </trkpt>
      <trkpt lat="48.12341" lon="6.41284">
        <ele>439.46</ele>
        <time>2012-05-04T12:49:35Z</time>
      </trkpt>
      <trkpt lat="48.12344" lon="6.41286">
        <ele>438.98</ele>
        <time>2012-05-04T12:49:36Z</time>
      </trkpt>
      <trkpt lat="48.12347" lon="6.41288">
        <ele>438.5</ele>
        <time>2012-05-04T12:49:37Z</time>
      </trkpt>
      <trkpt lat="48.12349" lon="6.41289">
        <ele>438.5</ele>
        <time>2012-05-04T12:49:38Z</time>
      </trkpt>
      <trkpt lat="48.1235" lon="6.4129">
        <ele>438.02</ele>
        <time>2012-05-04T12:49:39Z</time>
      </trkpt>
      <trkpt lat="48.12373" lon="6.41298">
        <ele>435.61</ele>
        <time>2012-05-04T12:49:48Z</time>
      </trkpt>
      <trkpt lat="48.1239" lon="6.41314">
        <ele>434.17</ele>
        <time>2012-05-04T12:49:56Z</time>
      </trkpt>
      <trkpt lat="48.12391" lon="6.41317">
        <ele>434.17</ele>
        <time>2012-05-04T12:49:57Z</time>
      </trkpt>
      <trkpt lat="48.12393" lon="6.41319">
        <ele>433.69</ele>
        <time>2012-05-04T12:49:58Z</time>
      </trkpt>
      <trkpt lat="48.12395" lon="6.41321">
        <ele>433.21</ele>
        <time>2012-05-04T12:49:59Z</time>
      </trkpt>
      <trkpt lat="48.12397" lon="6.41323">
        <ele>433.21</ele>
        <time>2012-05-04T12:50:00Z</time>
      </trkpt>
      <trkpt lat="48.124" lon="6.41325">
        <ele>433.21</ele>
        <time>2012-05-04T12:50:01Z</time>
      </trkpt>
      <trkpt lat="48.12403" lon="6.41328">
        <ele>433.21</ele>
        <time>2012-05-04T12:50:02Z</time>
      </trkpt>
      <trkpt lat="48.12419" lon="6.41341">
        <ele>429.37</ele>
        <time>2012-05-04T12:50:11Z</time>
      </trkpt>
      <trkpt lat="48.12428" lon="6.41351">
        <ele>428.89</ele>
        <time>2012-05-04T12:50:16Z</time>
      </trkpt>
      <trkpt lat="48.1243" lon="6.41352">
        <ele>429.85</ele>
        <time>2012-05-04T12:50:17Z</time>
      </trkpt>
      <trkpt lat="48.12432" lon="6.41353">
        <ele>430.33</ele>
        <time>2012-05-04T12:50:18Z</time>
      </trkpt>
      <trkpt lat="48.12435" lon="6.41354">
        <ele>430.81</ele>
        <time>2012-05-04T12:50:19Z</time>
      </trkpt>
      <trkpt lat="48.12437" lon="6.41355">
        <ele>431.29</ele>
        <time>2012-05-04T12:50:20Z</time>
      </trkpt>
      <trkpt lat="48.12457" lon="6.41367">
        <ele>435.13</ele>
        <time>2012-05-04T12:50:29Z</time>
      </trkpt>
      <trkpt lat="48.12486" lon="6.41381">
        <ele>438.02</ele>
        <time>2012-05-04T12:50:40Z</time>
      </trkpt>
      <trkpt lat="48.12528" lon="6.41412">
        <ele>444.75</ele>
        <time>2012-05-04T12:50:54Z</time>
      </trkpt>
      <trkpt lat="48.12573" lon="6.41446">
        <ele>454.36</ele>
        <time>2012-05-04T12:51:12Z</time>
      </trkpt>
      <trkpt lat="48.12619" lon="6.41481">
        <ele>455.8</ele>
        <time>2012-05-04T12:51:28Z</time>
      </trkpt>
      <trkpt lat="48.12656" lon="6.41508">
        <ele>454.36</ele>
        <time>2012-05-04T12:51:36Z</time>
      </trkpt>
      <trkpt lat="48.12677" lon="6.4153">
        <ele>452.92</ele>
        <time>2012-05-04T12:51:40Z</time>
      </trkpt>
      <trkpt lat="48.12681" lon="6.41537">
        <ele>452.92</ele>
        <time>2012-05-04T12:51:41Z</time>
      </trkpt>
      <trkpt lat="48.12688" lon="6.41553">
        <ele>451.96</ele>
        <time>2012-05-04T12:51:43Z</time>
      </trkpt>
      <trkpt lat="48.12692" lon="6.41561">
        <ele>451.48</ele>
        <time>2012-05-04T12:51:44Z</time>
      </trkpt>
      <trkpt lat="48.12695" lon="6.41568">
        <ele>451.48</ele>
        <time>2012-05-04T12:51:45Z</time>
      </trkpt>
      <trkpt lat="48.12698" lon="6.41575">
        <ele>451</ele>
        <time>2012-05-04T12:51:46Z</time>
      </trkpt>
      <trkpt lat="48.12701" lon="6.41584">
        <ele>450.52</ele>
        <time>2012-05-04T12:51:47Z</time>
      </trkpt>
      <trkpt lat="48.12705" lon="6.41592">
        <ele>449.55</ele>
        <time>2012-05-04T12:51:48Z</time>
      </trkpt>
      <trkpt lat="48.1271" lon="6.41599">
        <ele>449.07</ele>
        <time>2012-05-04T12:51:49Z</time>
      </trkpt>
      <trkpt lat="48.12716" lon="6.41606">
        <ele>448.11</ele>
        <time>2012-05-04T12:51:50Z</time>
      </trkpt>
      <trkpt lat="48.12724" lon="6.41611">
        <ele>447.63</ele>
        <time>2012-05-04T12:51:51Z</time>
      </trkpt>
      <trkpt lat="48.12732" lon="6.41615">
        <ele>447.15</ele>
        <time>2012-05-04T12:51:52Z</time>
      </trkpt>
      <trkpt lat="48.1274" lon="6.41618">
        <ele>446.19</ele>
        <time>2012-05-04T12:51:53Z</time>
      </trkpt>
      <trkpt lat="48.12844" lon="6.41639">
        <ele>436.1</ele>
        <time>2012-05-04T12:52:04Z</time>
      </trkpt>
      <trkpt lat="48.12872" lon="6.41651">
        <ele>434.17</ele>
        <time>2012-05-04T12:52:07Z</time>
      </trkpt>
      <trkpt lat="48.1288" lon="6.41655">
        <ele>433.69</ele>
        <time>2012-05-04T12:52:08Z</time>
      </trkpt>
      <trkpt lat="48.12905" lon="6.41662">
        <ele>432.25</ele>
        <time>2012-05-04T12:52:11Z</time>
      </trkpt>
      <trkpt lat="48.12912" lon="6.41664">
        <ele>432.25</ele>
        <time>2012-05-04T12:52:12Z</time>
      </trkpt>
      <trkpt lat="48.12932" lon="6.41672">
        <ele>432.25</ele>
        <time>2012-05-04T12:52:15Z</time>
      </trkpt>
      <trkpt lat="48.12967" lon="6.41693">
        <ele>432.73</ele>
        <time>2012-05-04T12:52:21Z</time>
      </trkpt>
      <trkpt lat="48.12972" lon="6.41697">
        <ele>432.73</ele>
        <time>2012-05-04T12:52:22Z</time>
      </trkpt>
      <trkpt lat="48.13023" lon="6.41729">
        <ele>435.13</ele>
        <time>2012-05-04T12:52:32Z</time>
      </trkpt>
      <trkpt lat="48.13032" lon="6.41735">
        <ele>435.61</ele>
        <time>2012-05-04T12:52:34Z</time>
      </trkpt>
      <trkpt lat="48.13037" lon="6.41738">
        <ele>435.61</ele>
        <time>2012-05-04T12:52:35Z</time>
      </trkpt>
      <trkpt lat="48.13044" lon="6.41746">
        <ele>436.1</ele>
        <time>2012-05-04T12:52:37Z</time>
      </trkpt>
      <trkpt lat="48.13045" lon="6.41751">
        <ele>436.58</ele>
        <time>2012-05-04T12:52:38Z</time>
      </trkpt>
      <trkpt lat="48.13045" lon="6.41756">
        <ele>437.06</ele>
        <time>2012-05-04T12:52:39Z</time>
      </trkpt>
      <trkpt lat="48.13046" lon="6.41762">
        <ele>437.06</ele>
        <time>2012-05-04T12:52:40Z</time>
      </trkpt>
      <trkpt lat="48.13047" lon="6.41767">
        <ele>437.54</ele>
        <time>2012-05-04T12:52:41Z</time>
      </trkpt>
      <trkpt lat="48.13049" lon="6.41771">
        <ele>437.54</ele>
        <time>2012-05-04T12:52:42Z</time>
      </trkpt>
      <trkpt lat="48.13051" lon="6.41776">
        <ele>437.54</ele>
        <time>2012-05-04T12:52:43Z</time>
      </trkpt>
      <trkpt lat="48.13053" lon="6.4178">
        <ele>437.54</ele>
        <time>2012-05-04T12:52:44Z</time>
      </trkpt>
      <trkpt lat="48.13054" lon="6.41784">
        <ele>437.54</ele>
        <time>2012-05-04T12:52:45Z</time>
      </trkpt>
      <trkpt lat="48.13054" lon="6.41789">
        <ele>437.54</ele>
        <time>2012-05-04T12:52:46Z</time>
      </trkpt>
      <trkpt lat="48.13054" lon="6.41795">
        <ele>437.06</ele>
        <time>2012-05-04T12:52:47Z</time>
      </trkpt>
      <trkpt lat="48.13054" lon="6.4182">
        <ele>436.58</ele>
        <time>2012-05-04T12:52:51Z</time>
      </trkpt>
      <trkpt lat="48.13053" lon="6.41827">
        <ele>436.1</ele>
        <time>2012-05-04T12:52:52Z</time>
      </trkpt>
      <trkpt lat="48.13053" lon="6.41834">
        <ele>436.1</ele>
        <time>2012-05-04T12:52:53Z</time>
      </trkpt>
      <trkpt lat="48.13051" lon="6.41888">
        <ele>435.61</ele>
        <time>2012-05-04T12:53:03Z</time>
      </trkpt>
      <trkpt lat="48.13051" lon="6.41892">
        <ele>435.61</ele>
        <time>2012-05-04T12:53:04Z</time>
      </trkpt>
      <trkpt lat="48.13052" lon="6.41901">
        <ele>435.61</ele>
        <time>2012-05-04T12:53:06Z</time>
      </trkpt>
      <trkpt lat="48.13053" lon="6.41904">
        <ele>435.61</ele>
        <time>2012-05-04T12:53:07Z</time>
      </trkpt>
      <trkpt lat="48.13053" lon="6.41906">
        <ele>435.61</ele>
        <time>2012-05-04T12:53:08Z</time>
      </trkpt>
      <trkpt lat="48.13053" lon="6.41911">
        <ele>435.61</ele>
        <time>2012-05-04T12:53:09Z</time>
      </trkpt>
      <trkpt lat="48.13053" lon="6.41917">
        <ele>435.13</ele>
        <time>2012-05-04T12:53:10Z</time>
      </trkpt>
      <trkpt lat="48.13056" lon="6.41963">
        <ele>433.21</ele>
        <time>2012-05-04T12:53:18Z</time>
      </trkpt>
      <trkpt lat="48.13056" lon="6.41977">
        <ele>433.69</ele>
        <time>2012-05-04T12:53:20Z</time>
      </trkpt>
      <trkpt lat="48.13055" lon="6.42006">
        <ele>434.17</ele>
        <time>2012-05-04T12:53:25Z</time>
      </trkpt>
      <trkpt lat="48.13056" lon="6.42012">
        <ele>434.17</ele>
        <time>2012-05-04T12:53:26Z</time>
      </trkpt>
      <trkpt lat="48.13057" lon="6.42017">
        <ele>434.65</ele>
        <time>2012-05-04T12:53:27Z</time>
      </trkpt>
      <trkpt lat="48.13058" lon="6.42023">
        <ele>434.65</ele>
        <time>2012-05-04T12:53:28Z</time>
      </trkpt>
      <trkpt lat="48.13059" lon="6.42027">
        <ele>435.13</ele>
        <time>2012-05-04T12:53:29Z</time>
      </trkpt>
      <trkpt lat="48.1306" lon="6.42033">
        <ele>435.13</ele>
        <time>2012-05-04T12:53:30Z</time>
      </trkpt>
      <trkpt lat="48.13067" lon="6.42085">
        <ele>437.06</ele>
        <time>2012-05-04T12:53:40Z</time>
      </trkpt>
      <trkpt lat="48.13069" lon="6.42097">
        <ele>437.06</ele>
        <time>2012-05-04T12:53:42Z</time>
      </trkpt>
      <trkpt lat="48.13071" lon="6.42101">
        <ele>437.54</ele>
        <time>2012-05-04T12:53:43Z</time>
      </trkpt>
      <trkpt lat="48.13072" lon="6.42106">
        <ele>437.54</ele>
        <time>2012-05-04T12:53:44Z</time>
      </trkpt>
      <trkpt lat="48.13068" lon="6.42144">
        <ele>436.58</ele>
        <time>2012-05-04T12:53:50Z</time>
      </trkpt>
      <trkpt lat="48.13067" lon="6.42178">
        <ele>436.1</ele>
        <time>2012-05-04T12:53:55Z</time>
      </trkpt>
      <trkpt lat="48.13067" lon="6.42185">
        <ele>436.1</ele>
        <time>2012-05-04T12:53:56Z</time>
      </trkpt>
      <trkpt lat="48.13066" lon="6.42192">
        <ele>436.1</ele>
        <time>2012-05-04T12:53:57Z</time>
      </trkpt>
      <trkpt lat="48.13062" lon="6.42253">
        <ele>434.65</ele>
        <time>2012-05-04T12:54:06Z</time>
      </trkpt>
      <trkpt lat="48.13061" lon="6.42258">
        <ele>434.65</ele>
        <time>2012-05-04T12:54:07Z</time>
      </trkpt>
      <trkpt lat="48.13061" lon="6.42263">
        <ele>435.13</ele>
        <time>2012-05-04T12:54:08Z</time>
      </trkpt>
      <trkpt lat="48.1306" lon="6.42269">
        <ele>435.61</ele>
        <time>2012-05-04T12:54:09Z</time>
      </trkpt>
      <trkpt lat="48.13059" lon="6.42273">
        <ele>436.1</ele>
        <time>2012-05-04T12:54:10Z</time>
      </trkpt>
      <trkpt lat="48.1306" lon="6.42277">
        <ele>436.58</ele>
        <time>2012-05-04T12:54:11Z</time>
      </trkpt>
      <trkpt lat="48.13061" lon="6.4228">
        <ele>436.58</ele>
        <time>2012-05-04T12:54:12Z</time>
      </trkpt>
      <trkpt lat="48.13062" lon="6.42289">
        <ele>436.1</ele>
        <time>2012-05-04T12:54:15Z</time>
      </trkpt>
      <trkpt lat="48.13063" lon="6.42291">
        <ele>435.61</ele>
        <time>2012-05-04T12:54:16Z</time>
      </trkpt>
      <trkpt lat="48.13075" lon="6.42296">
        <ele>435.13</ele>
        <time>2012-05-04T12:54:23Z</time>
      </trkpt>
      <trkpt lat="48.1308" lon="6.42299">
        <ele>434.65</ele>
        <time>2012-05-04T12:54:26Z</time>
      </trkpt>
      <trkpt lat="48.1309" lon="6.423">
        <ele>433.69</ele>
        <time>2012-05-04T12:54:31Z</time>
      </trkpt>
      <trkpt lat="48.13105" lon="6.42303">
        <ele>434.17</ele>
        <time>2012-05-04T12:54:37Z</time>
      </trkpt>
      <trkpt lat="48.13151" lon="6.42328">
        <ele>442.34</ele>
        <time>2012-05-04T12:54:53Z</time>
      </trkpt>
      <trkpt lat="48.13187" lon="6.42349">
        <ele>448.11</ele>
        <time>2012-05-04T12:55:07Z</time>
      </trkpt>
      <trkpt lat="48.13217" lon="6.42371">
        <ele>450.52</ele>
        <time>2012-05-04T12:55:19Z</time>
      </trkpt>
      <trkpt lat="48.13229" lon="6.42383">
        <ele>450.03</ele>
        <time>2012-05-04T12:55:24Z</time>
      </trkpt>
      <trkpt lat="48.13257" lon="6.42403">
        <ele>450.52</ele>
        <time>2012-05-04T12:55:33Z</time>
      </trkpt>
      <trkpt lat="48.13268" lon="6.42409">
        <ele>450.03</ele>
        <time>2012-05-04T12:55:35Z</time>
      </trkpt>
      <trkpt lat="48.13314" lon="6.42437">
        <ele>450.52</ele>
        <time>2012-05-04T12:55:46Z</time>
      </trkpt>
      <trkpt lat="48.13319" lon="6.42443">
        <ele>451</ele>
        <time>2012-05-04T12:55:48Z</time>
      </trkpt>
      <trkpt lat="48.13321" lon="6.42444">
        <ele>451</ele>
        <time>2012-05-04T12:55:49Z</time>
      </trkpt>
      <trkpt lat="48.13326" lon="6.42445">
        <ele>451.48</ele>
        <time>2012-05-04T12:55:51Z</time>
      </trkpt>
      <trkpt lat="48.13328" lon="6.42447">
        <ele>451.48</ele>
        <time>2012-05-04T12:55:52Z</time>
      </trkpt>
      <trkpt lat="48.1333" lon="6.42451">
        <ele>451.96</ele>
        <time>2012-05-04T12:55:53Z</time>
      </trkpt>
      <trkpt lat="48.13332" lon="6.42453">
        <ele>451.96</ele>
        <time>2012-05-04T12:55:54Z</time>
      </trkpt>
      <trkpt lat="48.13335" lon="6.42456">
        <ele>451.96</ele>
        <time>2012-05-04T12:55:55Z</time>
      </trkpt>
      <trkpt lat="48.13338" lon="6.42459">
        <ele>452.44</ele>
        <time>2012-05-04T12:55:56Z</time>
      </trkpt>
      <trkpt lat="48.13339" lon="6.42461">
        <ele>452.44</ele>
        <time>2012-05-04T12:55:57Z</time>
      </trkpt>
      <trkpt lat="48.1334" lon="6.42463">
        <ele>452.92</ele>
        <time>2012-05-04T12:55:58Z</time>
      </trkpt>
      <trkpt lat="48.13341" lon="6.42466">
        <ele>453.4</ele>
        <time>2012-05-04T12:55:59Z</time>
      </trkpt>
      <trkpt lat="48.13341" lon="6.42469">
        <ele>453.88</ele>
        <time>2012-05-04T12:56:00Z</time>
      </trkpt>
      <trkpt lat="48.13342" lon="6.42473">
        <ele>454.84</ele>
        <time>2012-05-04T12:56:01Z</time>
      </trkpt>
      <trkpt lat="48.13342" lon="6.42476">
        <ele>455.32</ele>
        <time>2012-05-04T12:56:02Z</time>
      </trkpt>
      <trkpt lat="48.13342" lon="6.42478">
        <ele>455.8</ele>
        <time>2012-05-04T12:56:03Z</time>
      </trkpt>
      <trkpt lat="48.13342" lon="6.42481">
        <ele>455.8</ele>
        <time>2012-05-04T12:56:04Z</time>
      </trkpt>
      <trkpt lat="48.13344" lon="6.42484">
        <ele>456.28</ele>
        <time>2012-05-04T12:56:05Z</time>
      </trkpt>
      <trkpt lat="48.13344" lon="6.42486">
        <ele>456.76</ele>
        <time>2012-05-04T12:56:06Z</time>
      </trkpt>
      <trkpt lat="48.13341" lon="6.42498">
        <ele>458.69</ele>
        <time>2012-05-04T12:56:11Z</time>
      </trkpt>
      <trkpt lat="48.13341" lon="6.42501">
        <ele>459.17</ele>
        <time>2012-05-04T12:56:12Z</time>
      </trkpt>
      <trkpt lat="48.13342" lon="6.42515">
        <ele>459.65</ele>
        <time>2012-05-04T12:56:17Z</time>
      </trkpt>
      <trkpt lat="48.13343" lon="6.42518">
        <ele>459.65</ele>
        <time>2012-05-04T12:56:18Z</time>
      </trkpt>
      <trkpt lat="48.13342" lon="6.4252">
        <ele>459.65</ele>
        <time>2012-05-04T12:56:19Z</time>
      </trkpt>
      <trkpt lat="48.13342" lon="6.42523">
        <ele>459.17</ele>
        <time>2012-05-04T12:56:20Z</time>
      </trkpt>
      <trkpt lat="48.13342" lon="6.42525">
        <ele>459.65</ele>
        <time>2012-05-04T12:56:21Z</time>
      </trkpt>
      <trkpt lat="48.13342" lon="6.42528">
        <ele>460.13</ele>
        <time>2012-05-04T12:56:22Z</time>
      </trkpt>
      <trkpt lat="48.13342" lon="6.4253">
        <ele>460.61</ele>
        <time>2012-05-04T12:56:23Z</time>
      </trkpt>
      <trkpt lat="48.13342" lon="6.42532">
        <ele>461.09</ele>
        <time>2012-05-04T12:56:24Z</time>
      </trkpt>
      <trkpt lat="48.13342" lon="6.42535">
        <ele>461.57</ele>
        <time>2012-05-04T12:56:25Z</time>
      </trkpt>
      <trkpt lat="48.13342" lon="6.42537">
        <ele>462.05</ele>
        <time>2012-05-04T12:56:26Z</time>
      </trkpt>
      <trkpt lat="48.13342" lon="6.42539">
        <ele>462.05</ele>
        <time>2012-05-04T12:56:27Z</time>
      </trkpt>
      <trkpt lat="48.13342" lon="6.42542">
        <ele>462.53</ele>
        <time>2012-05-04T12:56:28Z</time>
      </trkpt>
      <trkpt lat="48.13341" lon="6.42544">
        <ele>462.53</ele>
        <time>2012-05-04T12:56:29Z</time>
      </trkpt>
      <trkpt lat="48.13341" lon="6.42548">
        <ele>462.53</ele>
        <time>2012-05-04T12:56:30Z</time>
      </trkpt>
      <trkpt lat="48.13341" lon="6.42551">
        <ele>463.01</ele>
        <time>2012-05-04T12:56:31Z</time>
      </trkpt>
      <trkpt lat="48.13341" lon="6.42553">
        <ele>463.49</ele>
        <time>2012-05-04T12:56:32Z</time>
      </trkpt>
      <trkpt lat="48.13342" lon="6.42556">
        <ele>463.49</ele>
        <time>2012-05-04T12:56:33Z</time>
      </trkpt>
      <trkpt lat="48.13341" lon="6.42558">
        <ele>463.49</ele>
        <time>2012-05-04T12:56:34Z</time>
      </trkpt>
      <trkpt lat="48.13341" lon="6.4256">
        <ele>463.97</ele>
        <time>2012-05-04T12:56:35Z</time>
      </trkpt>
      <trkpt lat="48.1334" lon="6.42563">
        <ele>463.97</ele>
        <time>2012-05-04T12:56:36Z</time>
      </trkpt>
      <trkpt lat="48.13335" lon="6.42582">
        <ele>464.45</ele>
        <time>2012-05-04T12:56:42Z</time>
      </trkpt>
      <trkpt lat="48.13335" lon="6.42585">
        <ele>463.97</ele>
        <time>2012-05-04T12:56:43Z</time>
      </trkpt>
      <trkpt lat="48.13334" lon="6.42589">
        <ele>463.97</ele>
        <time>2012-05-04T12:56:44Z</time>
      </trkpt>
      <trkpt lat="48.13334" lon="6.42592">
        <ele>463.97</ele>
        <time>2012-05-04T12:56:45Z</time>
      </trkpt>
      <trkpt lat="48.13333" lon="6.42596">
        <ele>463.97</ele>
        <time>2012-05-04T12:56:46Z</time>
      </trkpt>
      <trkpt lat="48.13332" lon="6.426">
        <ele>463.49</ele>
        <time>2012-05-04T12:56:47Z</time>
      </trkpt>
      <trkpt lat="48.13329" lon="6.42618">
        <ele>463.49</ele>
        <time>2012-05-04T12:56:52Z</time>
      </trkpt>
      <trkpt lat="48.13328" lon="6.42623">
        <ele>462.53</ele>
        <time>2012-05-04T12:56:53Z</time>
      </trkpt>
      <trkpt lat="48.13328" lon="6.42628">
        <ele>462.05</ele>
        <time>2012-05-04T12:56:54Z</time>
      </trkpt>
      <trkpt lat="48.13328" lon="6.42634">
        <ele>461.57</ele>
        <time>2012-05-04T12:56:55Z</time>
      </trkpt>
      <trkpt lat="48.13327" lon="6.42639">
        <ele>461.09</ele>
        <time>2012-05-04T12:56:56Z</time>
      </trkpt>
      <trkpt lat="48.13327" lon="6.42644">
        <ele>461.09</ele>
        <time>2012-05-04T12:56:57Z</time>
      </trkpt>
      <trkpt lat="48.13325" lon="6.4265">
        <ele>461.09</ele>
        <time>2012-05-04T12:56:58Z</time>
      </trkpt>
      <trkpt lat="48.13324" lon="6.42655">
        <ele>460.61</ele>
        <time>2012-05-04T12:56:59Z</time>
      </trkpt>
      <trkpt lat="48.13322" lon="6.42661">
        <ele>460.61</ele>
        <time>2012-05-04T12:57:00Z</time>
      </trkpt>
      <trkpt lat="48.13319" lon="6.42666">
        <ele>459.65</ele>
        <time>2012-05-04T12:57:01Z</time>
      </trkpt>
      <trkpt lat="48.13313" lon="6.42678">
        <ele>459.17</ele>
        <time>2012-05-04T12:57:03Z</time>
      </trkpt>
      <trkpt lat="48.13309" lon="6.42682">
        <ele>458.69</ele>
        <time>2012-05-04T12:57:04Z</time>
      </trkpt>
      <trkpt lat="48.13306" lon="6.42686">
        <ele>458.21</ele>
        <time>2012-05-04T12:57:05Z</time>
      </trkpt>
      <trkpt lat="48.13304" lon="6.42689">
        <ele>458.21</ele>
        <time>2012-05-04T12:57:06Z</time>
      </trkpt>
      <trkpt lat="48.13301" lon="6.42691">
        <ele>458.21</ele>
        <time>2012-05-04T12:57:07Z</time>
      </trkpt>
      <trkpt lat="48.13274" lon="6.42714">
        <ele>458.69</ele>
        <time>2012-05-04T12:57:16Z</time>
      </trkpt>
      <trkpt lat="48.13258" lon="6.42727">
        <ele>458.69</ele>
        <time>2012-05-04T12:57:20Z</time>
      </trkpt>
      <trkpt lat="48.13234" lon="6.42754">
        <ele>458.69</ele>
        <time>2012-05-04T12:57:25Z</time>
      </trkpt>
      <trkpt lat="48.13229" lon="6.42762">
        <ele>458.69</ele>
        <time>2012-05-04T12:57:26Z</time>
      </trkpt>
      <trkpt lat="48.13224" lon="6.42771">
        <ele>458.69</ele>
        <time>2012-05-04T12:57:27Z</time>
      </trkpt>
      <trkpt lat="48.1322" lon="6.42781">
        <ele>458.69</ele>
        <time>2012-05-04T12:57:28Z</time>
      </trkpt>
      <trkpt lat="48.13217" lon="6.4279">
        <ele>458.21</ele>
        <time>2012-05-04T12:57:29Z</time>
      </trkpt>
      <trkpt lat="48.13214" lon="6.42798">
        <ele>457.72</ele>
        <time>2012-05-04T12:57:30Z</time>
      </trkpt>
      <trkpt lat="48.13212" lon="6.42808">
        <ele>457.24</ele>
        <time>2012-05-04T12:57:31Z</time>
      </trkpt>
      <trkpt lat="48.13211" lon="6.42818">
        <ele>457.24</ele>
        <time>2012-05-04T12:57:32Z</time>
      </trkpt>
      <trkpt lat="48.13211" lon="6.42828">
        <ele>456.76</ele>
        <time>2012-05-04T12:57:33Z</time>
      </trkpt>
      <trkpt lat="48.13212" lon="6.42837">
        <ele>456.76</ele>
        <time>2012-05-04T12:57:34Z</time>
      </trkpt>
      <trkpt lat="48.13213" lon="6.42845">
        <ele>456.76</ele>
        <time>2012-05-04T12:57:35Z</time>
      </trkpt>
      <trkpt lat="48.13214" lon="6.42854">
        <ele>456.76</ele>
        <time>2012-05-04T12:57:36Z</time>
      </trkpt>
      <trkpt lat="48.13216" lon="6.42861">
        <ele>455.8</ele>
        <time>2012-05-04T12:57:37Z</time>
      </trkpt>
      <trkpt lat="48.1323" lon="6.42917">
        <ele>454.84</ele>
        <time>2012-05-04T12:57:46Z</time>
      </trkpt>
      <trkpt lat="48.13242" lon="6.42945">
        <ele>451</ele>
        <time>2012-05-04T12:57:51Z</time>
      </trkpt>
      <trkpt lat="48.13244" lon="6.42951">
        <ele>450.03</ele>
        <time>2012-05-04T12:57:52Z</time>
      </trkpt>
      <trkpt lat="48.1325" lon="6.42962">
        <ele>447.63</ele>
        <time>2012-05-04T12:57:54Z</time>
      </trkpt>
      <trkpt lat="48.13268" lon="6.42987">
        <ele>443.31</ele>
        <time>2012-05-04T12:57:59Z</time>
      </trkpt>
      <trkpt lat="48.13275" lon="6.42996">
        <ele>442.82</ele>
        <time>2012-05-04T12:58:01Z</time>
      </trkpt>
      <trkpt lat="48.13286" lon="6.43013">
        <ele>441.86</ele>
        <time>2012-05-04T12:58:04Z</time>
      </trkpt>
      <trkpt lat="48.13292" lon="6.43017">
        <ele>441.86</ele>
        <time>2012-05-04T12:58:05Z</time>
      </trkpt>
      <trkpt lat="48.13297" lon="6.43019">
        <ele>441.86</ele>
        <time>2012-05-04T12:58:06Z</time>
      </trkpt>
      <trkpt lat="48.13302" lon="6.43019">
        <ele>442.34</ele>
        <time>2012-05-04T12:58:07Z</time>
      </trkpt>
      <trkpt lat="48.13307" lon="6.43017">
        <ele>442.82</ele>
        <time>2012-05-04T12:58:08Z</time>
      </trkpt>
      <trkpt lat="48.13312" lon="6.43014">
        <ele>443.31</ele>
        <time>2012-05-04T12:58:09Z</time>
      </trkpt>
      <trkpt lat="48.13316" lon="6.4301">
        <ele>443.79</ele>
        <time>2012-05-04T12:58:10Z</time>
      </trkpt>
      <trkpt lat="48.1332" lon="6.43005">
        <ele>444.27</ele>
        <time>2012-05-04T12:58:11Z</time>
      </trkpt>
      <trkpt lat="48.1333" lon="6.4299">
        <ele>445.71</ele>
        <time>2012-05-04T12:58:14Z</time>
      </trkpt>
      <trkpt lat="48.13333" lon="6.42984">
        <ele>446.19</ele>
        <time>2012-05-04T12:58:15Z</time>
      </trkpt>
      <trkpt lat="48.13337" lon="6.42979">
        <ele>446.67</ele>
        <time>2012-05-04T12:58:16Z</time>
      </trkpt>
      <trkpt lat="48.13348" lon="6.42967">
        <ele>447.15</ele>
        <time>2012-05-04T12:58:19Z</time>
      </trkpt>
      <trkpt lat="48.13353" lon="6.42964">
        <ele>448.11</ele>
        <time>2012-05-04T12:58:20Z</time>
      </trkpt>
      <trkpt lat="48.13357" lon="6.42961">
        <ele>448.59</ele>
        <time>2012-05-04T12:58:21Z</time>
      </trkpt>
      <trkpt lat="48.13361" lon="6.4296">
        <ele>448.59</ele>
        <time>2012-05-04T12:58:22Z</time>
      </trkpt>
      <trkpt lat="48.13364" lon="6.4296">
        <ele>449.07</ele>
        <time>2012-05-04T12:58:23Z</time>
      </trkpt>
      <trkpt lat="48.13368" lon="6.42959">
        <ele>449.55</ele>
        <time>2012-05-04T12:58:24Z</time>
      </trkpt>
      <trkpt lat="48.13371" lon="6.42959">
        <ele>449.55</ele>
        <time>2012-05-04T12:58:25Z</time>
      </trkpt>
      <trkpt lat="48.13396" lon="6.42967">
        <ele>451.96</ele>
        <time>2012-05-04T12:58:32Z</time>
      </trkpt>
      <trkpt lat="48.13399" lon="6.42972">
        <ele>452.92</ele>
        <time>2012-05-04T12:58:33Z</time>
      </trkpt>
      <trkpt lat="48.13416" lon="6.43004">
        <ele>451.96</ele>
        <time>2012-05-04T12:58:38Z</time>
      </trkpt>
      <trkpt lat="48.1342" lon="6.4301">
        <ele>451.96</ele>
        <time>2012-05-04T12:58:39Z</time>
      </trkpt>
      <trkpt lat="48.13425" lon="6.43017">
        <ele>451</ele>
        <time>2012-05-04T12:58:40Z</time>
      </trkpt>
      <trkpt lat="48.13429" lon="6.43026">
        <ele>450.52</ele>
        <time>2012-05-04T12:58:41Z</time>
      </trkpt>
      <trkpt lat="48.13433" lon="6.43036">
        <ele>450.03</ele>
        <time>2012-05-04T12:58:42Z</time>
      </trkpt>
      <trkpt lat="48.13438" lon="6.43047">
        <ele>449.55</ele>
        <time>2012-05-04T12:58:43Z</time>
      </trkpt>
      <trkpt lat="48.13499" lon="6.43147">
        <ele>443.79</ele>
        <time>2012-05-04T12:58:53Z</time>
      </trkpt>
      <trkpt lat="48.13504" lon="6.4316">
        <ele>442.82</ele>
        <time>2012-05-04T12:58:54Z</time>
      </trkpt>
      <trkpt lat="48.1353" lon="6.43246">
        <ele>442.34</ele>
        <time>2012-05-04T12:59:01Z</time>
      </trkpt>
      <trkpt lat="48.13527" lon="6.43264">
        <ele>442.34</ele>
        <time>2012-05-04T12:59:03Z</time>
      </trkpt>
      <trkpt lat="48.13521" lon="6.43291">
        <ele>441.86</ele>
        <time>2012-05-04T12:59:06Z</time>
      </trkpt>
      <trkpt lat="48.13519" lon="6.43391">
        <ele>440.42</ele>
        <time>2012-05-04T12:59:14Z</time>
      </trkpt>
      <trkpt lat="48.13522" lon="6.43402">
        <ele>439.94</ele>
        <time>2012-05-04T12:59:15Z</time>
      </trkpt>
      <trkpt lat="48.13525" lon="6.43411">
        <ele>439.94</ele>
        <time>2012-05-04T12:59:16Z</time>
      </trkpt>
      <trkpt lat="48.13527" lon="6.43415">
        <ele>439.46</ele>
        <time>2012-05-04T12:59:17Z</time>
      </trkpt>
      <trkpt lat="48.13529" lon="6.43418">
        <ele>438.98</ele>
        <time>2012-05-04T12:59:18Z</time>
      </trkpt>
      <trkpt lat="48.1353" lon="6.4342">
        <ele>438.02</ele>
        <time>2012-05-04T12:59:19Z</time>
      </trkpt>
      <trkpt lat="48.1353" lon="6.43422">
        <ele>437.54</ele>
        <time>2012-05-04T12:59:20Z</time>
      </trkpt>
      <trkpt lat="48.1353" lon="6.43424">
        <ele>437.06</ele>
        <time>2012-05-04T12:59:21Z</time>
      </trkpt>
      <trkpt lat="48.1353" lon="6.43426">
        <ele>436.58</ele>
        <time>2012-05-04T12:59:22Z</time>
      </trkpt>
      <trkpt lat="48.13532" lon="6.43438">
        <ele>433.69</ele>
        <time>2012-05-04T12:59:34Z</time>
      </trkpt>
      <trkpt lat="48.13536" lon="6.43444">
        <ele>436.1</ele>
        <time>2012-05-04T12:59:46Z</time>
      </trkpt>
      <trkpt lat="48.13532" lon="6.43445">
        <ele>437.54</ele>
        <time>2012-05-04T12:59:58Z</time>
      </trkpt>
      <trkpt lat="48.13529" lon="6.43437">
        <ele>434.65</ele>
        <time>2012-05-04T13:00:03Z</time>
      </trkpt>
      <trkpt lat="48.13529" lon="6.43435">
        <ele>434.17</ele>
        <time>2012-05-04T13:00:04Z</time>
      </trkpt>
      <trkpt lat="48.13529" lon="6.43429">
        <ele>432.73</ele>
        <time>2012-05-04T13:00:07Z</time>
      </trkpt>
      <trkpt lat="48.1353" lon="6.43428">
        <ele>432.73</ele>
        <time>2012-05-04T13:00:08Z</time>
      </trkpt>
      <trkpt lat="48.13532" lon="6.43427">
        <ele>431.29</ele>
        <time>2012-05-04T13:00:11Z</time>
      </trkpt>
      <trkpt lat="48.13532" lon="6.43429">
        <ele>430.81</ele>
        <time>2012-05-04T13:00:13Z</time>
      </trkpt>
      <trkpt lat="48.13535" lon="6.4343">
        <ele>430.81</ele>
        <time>2012-05-04T13:00:16Z</time>
      </trkpt>
      <trkpt lat="48.13543" lon="6.43433">
        <ele>433.69</ele>
        <time>2012-05-04T13:00:23Z</time>
      </trkpt>
      <trkpt lat="48.13554" lon="6.43435">
        <ele>436.1</ele>
        <time>2012-05-04T13:00:31Z</time>
      </trkpt>
      <trkpt lat="48.13555" lon="6.43436">
        <ele>436.1</ele>
        <time>2012-05-04T13:00:32Z</time>
      </trkpt>
      <trkpt lat="48.13565" lon="6.43432">
        <ele>439.46</ele>
        <time>2012-05-04T13:00:40Z</time>
      </trkpt>
      <trkpt lat="48.1357" lon="6.43428">
        <ele>441.86</ele>
        <time>2012-05-04T13:00:45Z</time>
      </trkpt>
      <trkpt lat="48.13584" lon="6.43413">
        <ele>447.15</ele>
        <time>2012-05-04T13:00:57Z</time>
      </trkpt>
      <trkpt lat="48.13586" lon="6.43415">
        <ele>450.52</ele>
        <time>2012-05-04T13:01:08Z</time>
      </trkpt>
      <trkpt lat="48.13586" lon="6.43414">
        <ele>454.36</ele>
        <time>2012-05-04T13:01:32Z</time>
      </trkpt>
      <trkpt lat="48.13597" lon="6.43409">
        <ele>459.65</ele>
        <time>2012-05-04T13:01:46Z</time>
      </trkpt>
      <trkpt lat="48.13602" lon="6.43405">
        <ele>463.97</ele>
        <time>2012-05-04T13:01:59Z</time>
      </trkpt>
      <trkpt lat="48.13612" lon="6.43394">
        <ele>467.34</ele>
        <time>2012-05-04T13:02:07Z</time>
      </trkpt>
      <trkpt lat="48.13623" lon="6.43381">
        <ele>468.78</ele>
        <time>2012-05-04T13:02:16Z</time>
      </trkpt>
      <trkpt lat="48.1363" lon="6.43373">
        <ele>470.7</ele>
        <time>2012-05-04T13:02:22Z</time>
      </trkpt>
      <trkpt lat="48.13639" lon="6.43362">
        <ele>472.63</ele>
        <time>2012-05-04T13:02:34Z</time>
      </trkpt>
      <trkpt lat="48.1364" lon="6.4336">
        <ele>475.03</ele>
        <time>2012-05-04T13:02:56Z</time>
      </trkpt>
      <trkpt lat="48.13646" lon="6.43351">
        <ele>475.99</ele>
        <time>2012-05-04T13:03:14Z</time>
      </trkpt>
      <trkpt lat="48.1366" lon="6.43337">
        <ele>475.99</ele>
        <time>2012-05-04T13:03:24Z</time>
      </trkpt>
      <trkpt lat="48.13671" lon="6.43322">
        <ele>474.55</ele>
        <time>2012-05-04T13:03:32Z</time>
      </trkpt>
      <trkpt lat="48.13694" lon="6.43307">
        <ele>472.63</ele>
        <time>2012-05-04T13:03:44Z</time>
      </trkpt>
      <trkpt lat="48.137" lon="6.43303">
        <ele>472.14</ele>
        <time>2012-05-04T13:03:47Z</time>
      </trkpt>
      <trkpt lat="48.13719" lon="6.43287">
        <ele>471.18</ele>
        <time>2012-05-04T13:03:55Z</time>
      </trkpt>
      <trkpt lat="48.13741" lon="6.43285">
        <ele>466.86</ele>
        <time>2012-05-04T13:04:04Z</time>
      </trkpt>
      <trkpt lat="48.13765" lon="6.43297">
        <ele>463.49</ele>
        <time>2012-05-04T13:04:13Z</time>
      </trkpt>
      <trkpt lat="48.13785" lon="6.43329">
        <ele>463.49</ele>
        <time>2012-05-04T13:04:20Z</time>
      </trkpt>
      <trkpt lat="48.1379" lon="6.43335">
        <ele>463.97</ele>
        <time>2012-05-04T13:04:21Z</time>
      </trkpt>
      <trkpt lat="48.138" lon="6.43349">
        <ele>463.97</ele>
        <time>2012-05-04T13:04:23Z</time>
      </trkpt>
      <trkpt lat="48.13806" lon="6.43361">
        <ele>464.45</ele>
        <time>2012-05-04T13:04:25Z</time>
      </trkpt>
      <trkpt lat="48.13807" lon="6.43366">
        <ele>464.93</ele>
        <time>2012-05-04T13:04:26Z</time>
      </trkpt>
      <trkpt lat="48.13809" lon="6.43374">
        <ele>464.93</ele>
        <time>2012-05-04T13:04:27Z</time>
      </trkpt>
      <trkpt lat="48.1381" lon="6.43383">
        <ele>464.93</ele>
        <time>2012-05-04T13:04:28Z</time>
      </trkpt>
      <trkpt lat="48.13811" lon="6.43394">
        <ele>464.93</ele>
        <time>2012-05-04T13:04:29Z</time>
      </trkpt>
      <trkpt lat="48.1382" lon="6.43517">
        <ele>462.05</ele>
        <time>2012-05-04T13:04:39Z</time>
      </trkpt>
      <trkpt lat="48.1382" lon="6.4353">
        <ele>461.57</ele>
        <time>2012-05-04T13:04:40Z</time>
      </trkpt>
      <trkpt lat="48.13819" lon="6.43541">
        <ele>461.09</ele>
        <time>2012-05-04T13:04:41Z</time>
      </trkpt>
      <trkpt lat="48.13816" lon="6.43596">
        <ele>456.76</ele>
        <time>2012-05-04T13:04:46Z</time>
      </trkpt>
      <trkpt lat="48.13815" lon="6.43605">
        <ele>456.28</ele>
        <time>2012-05-04T13:04:47Z</time>
      </trkpt>
      <trkpt lat="48.13814" lon="6.43611">
        <ele>455.32</ele>
        <time>2012-05-04T13:04:48Z</time>
      </trkpt>
      <trkpt lat="48.13813" lon="6.43614">
        <ele>454.36</ele>
        <time>2012-05-04T13:04:49Z</time>
      </trkpt>
      <trkpt lat="48.13811" lon="6.43617">
        <ele>453.88</ele>
        <time>2012-05-04T13:04:50Z</time>
      </trkpt>
      <trkpt lat="48.13792" lon="6.43642">
        <ele>450.52</ele>
        <time>2012-05-04T13:04:57Z</time>
      </trkpt>
      <trkpt lat="48.13789" lon="6.43647">
        <ele>450.52</ele>
        <time>2012-05-04T13:04:58Z</time>
      </trkpt>
      <trkpt lat="48.13786" lon="6.43653">
        <ele>450.03</ele>
        <time>2012-05-04T13:04:59Z</time>
      </trkpt>
      <trkpt lat="48.1376" lon="6.43715">
        <ele>449.55</ele>
        <time>2012-05-04T13:05:06Z</time>
      </trkpt>
      <trkpt lat="48.13758" lon="6.43726">
        <ele>449.07</ele>
        <time>2012-05-04T13:05:07Z</time>
      </trkpt>
      <trkpt lat="48.13756" lon="6.43737">
        <ele>448.59</ele>
        <time>2012-05-04T13:05:08Z</time>
      </trkpt>
      <trkpt lat="48.13748" lon="6.43843">
        <ele>441.38</ele>
        <time>2012-05-04T13:05:17Z</time>
      </trkpt>
      <trkpt lat="48.13755" lon="6.43918">
        <ele>434.17</ele>
        <time>2012-05-04T13:05:24Z</time>
      </trkpt>
      <trkpt lat="48.13755" lon="6.43928">
        <ele>433.21</ele>
        <time>2012-05-04T13:05:25Z</time>
      </trkpt>
      <trkpt lat="48.13755" lon="6.43938">
        <ele>431.77</ele>
        <time>2012-05-04T13:05:26Z</time>
      </trkpt>
      <trkpt lat="48.13753" lon="6.43948">
        <ele>430.81</ele>
        <time>2012-05-04T13:05:27Z</time>
      </trkpt>
      <trkpt lat="48.13752" lon="6.43956">
        <ele>429.85</ele>
        <time>2012-05-04T13:05:28Z</time>
      </trkpt>
      <trkpt lat="48.1375" lon="6.43964">
        <ele>428.89</ele>
        <time>2012-05-04T13:05:29Z</time>
      </trkpt>
      <trkpt lat="48.13747" lon="6.43979">
        <ele>426.96</ele>
        <time>2012-05-04T13:05:31Z</time>
      </trkpt>
      <trkpt lat="48.13747" lon="6.43985">
        <ele>426</ele>
        <time>2012-05-04T13:05:32Z</time>
      </trkpt>
      <trkpt lat="48.13747" lon="6.4399">
        <ele>425.04</ele>
        <time>2012-05-04T13:05:33Z</time>
      </trkpt>
      <trkpt lat="48.13747" lon="6.43995">
        <ele>424.08</ele>
        <time>2012-05-04T13:05:34Z</time>
      </trkpt>
      <trkpt lat="48.13747" lon="6.44">
        <ele>423.12</ele>
        <time>2012-05-04T13:05:35Z</time>
      </trkpt>
      <trkpt lat="48.13747" lon="6.44005">
        <ele>422.64</ele>
        <time>2012-05-04T13:05:36Z</time>
      </trkpt>
      <trkpt lat="48.13738" lon="6.44065">
        <ele>415.91</ele>
        <time>2012-05-04T13:05:47Z</time>
      </trkpt>
      <trkpt lat="48.13741" lon="6.44108">
        <ele>410.62</ele>
        <time>2012-05-04T13:05:53Z</time>
      </trkpt>
      <trkpt lat="48.13743" lon="6.44115">
        <ele>409.18</ele>
        <time>2012-05-04T13:05:54Z</time>
      </trkpt>
      <trkpt lat="48.13756" lon="6.44166">
        <ele>401.49</ele>
        <time>2012-05-04T13:06:01Z</time>
      </trkpt>
      <trkpt lat="48.13757" lon="6.44174">
        <ele>401.01</ele>
        <time>2012-05-04T13:06:02Z</time>
      </trkpt>
      <trkpt lat="48.13758" lon="6.44182">
        <ele>400.05</ele>
        <time>2012-05-04T13:06:03Z</time>
      </trkpt>
      <trkpt lat="48.13758" lon="6.44189">
        <ele>399.08</ele>
        <time>2012-05-04T13:06:04Z</time>
      </trkpt>
      <trkpt lat="48.13758" lon="6.44198">
        <ele>397.64</ele>
        <time>2012-05-04T13:06:05Z</time>
      </trkpt>
      <trkpt lat="48.13759" lon="6.44206">
        <ele>396.68</ele>
        <time>2012-05-04T13:06:06Z</time>
      </trkpt>
      <trkpt lat="48.13761" lon="6.44214">
        <ele>396.68</ele>
        <time>2012-05-04T13:06:07Z</time>
      </trkpt>
      <trkpt lat="48.13766" lon="6.44231">
        <ele>398.12</ele>
        <time>2012-05-04T13:06:09Z</time>
      </trkpt>
      <trkpt lat="48.13769" lon="6.44239">
        <ele>398.12</ele>
        <time>2012-05-04T13:06:10Z</time>
      </trkpt>
      <trkpt lat="48.13773" lon="6.44246">
        <ele>398.6</ele>
        <time>2012-05-04T13:06:11Z</time>
      </trkpt>
      <trkpt lat="48.13786" lon="6.44266">
        <ele>400.53</ele>
        <time>2012-05-04T13:06:14Z</time>
      </trkpt>
      <trkpt lat="48.1379" lon="6.44272">
        <ele>401.01</ele>
        <time>2012-05-04T13:06:15Z</time>
      </trkpt>
      <trkpt lat="48.13809" lon="6.44296">
        <ele>404.85</ele>
        <time>2012-05-04T13:06:19Z</time>
      </trkpt>
      <trkpt lat="48.13813" lon="6.443">
        <ele>406.29</ele>
        <time>2012-05-04T13:06:20Z</time>
      </trkpt>
      <trkpt lat="48.13847" lon="6.44333">
        <ele>412.54</ele>
        <time>2012-05-04T13:06:27Z</time>
      </trkpt>
      <trkpt lat="48.13854" lon="6.44338">
        <ele>412.54</ele>
        <time>2012-05-04T13:06:28Z</time>
      </trkpt>
      <trkpt lat="48.13861" lon="6.44342">
        <ele>412.54</ele>
        <time>2012-05-04T13:06:29Z</time>
      </trkpt>
      <trkpt lat="48.13868" lon="6.44343">
        <ele>412.54</ele>
        <time>2012-05-04T13:06:30Z</time>
      </trkpt>
      <trkpt lat="48.13875" lon="6.44342">
        <ele>413.02</ele>
        <time>2012-05-04T13:06:31Z</time>
      </trkpt>
      <trkpt lat="48.1388" lon="6.44338">
        <ele>413.02</ele>
        <time>2012-05-04T13:06:32Z</time>
      </trkpt>
      <trkpt lat="48.13886" lon="6.44334">
        <ele>413.5</ele>
        <time>2012-05-04T13:06:33Z</time>
      </trkpt>
      <trkpt lat="48.13892" lon="6.4433">
        <ele>413.02</ele>
        <time>2012-05-04T13:06:34Z</time>
      </trkpt>
      <trkpt lat="48.13897" lon="6.44325">
        <ele>413.02</ele>
        <time>2012-05-04T13:06:35Z</time>
      </trkpt>
      <trkpt lat="48.13908" lon="6.4432">
        <ele>412.54</ele>
        <time>2012-05-04T13:06:37Z</time>
      </trkpt>
      <trkpt lat="48.13915" lon="6.4432">
        <ele>412.06</ele>
        <time>2012-05-04T13:06:38Z</time>
      </trkpt>
      <trkpt lat="48.13922" lon="6.44321">
        <ele>411.58</ele>
        <time>2012-05-04T13:06:39Z</time>
      </trkpt>
      <trkpt lat="48.1393" lon="6.44321">
        <ele>411.58</ele>
        <time>2012-05-04T13:06:40Z</time>
      </trkpt>
      <trkpt lat="48.13937" lon="6.44321">
        <ele>411.1</ele>
        <time>2012-05-04T13:06:41Z</time>
      </trkpt>
      <trkpt lat="48.13943" lon="6.44325">
        <ele>411.1</ele>
        <time>2012-05-04T13:06:42Z</time>
      </trkpt>
      <trkpt lat="48.13947" lon="6.44328">
        <ele>411.1</ele>
        <time>2012-05-04T13:06:43Z</time>
      </trkpt>
      <trkpt lat="48.13951" lon="6.44331">
        <ele>411.58</ele>
        <time>2012-05-04T13:06:44Z</time>
      </trkpt>
      <trkpt lat="48.13955" lon="6.44335">
        <ele>411.1</ele>
        <time>2012-05-04T13:06:45Z</time>
      </trkpt>
      <trkpt lat="48.13958" lon="6.4434">
        <ele>410.62</ele>
        <time>2012-05-04T13:06:46Z</time>
      </trkpt>
      <trkpt lat="48.13961" lon="6.44346">
        <ele>410.14</ele>
        <time>2012-05-04T13:06:47Z</time>
      </trkpt>
      <trkpt lat="48.13973" lon="6.44375">
        <ele>407.74</ele>
        <time>2012-05-04T13:06:52Z</time>
      </trkpt>
      <trkpt lat="48.13976" lon="6.44381">
        <ele>406.77</ele>
        <time>2012-05-04T13:06:53Z</time>
      </trkpt>
      <trkpt lat="48.13978" lon="6.44387">
        <ele>406.29</ele>
        <time>2012-05-04T13:06:54Z</time>
      </trkpt>
      <trkpt lat="48.13984" lon="6.44401">
        <ele>404.85</ele>
        <time>2012-05-04T13:06:56Z</time>
      </trkpt>
      <trkpt lat="48.13986" lon="6.44409">
        <ele>404.85</ele>
        <time>2012-05-04T13:06:57Z</time>
      </trkpt>
      <trkpt lat="48.13994" lon="6.44431">
        <ele>403.89</ele>
        <time>2012-05-04T13:07:00Z</time>
      </trkpt>
      <trkpt lat="48.13997" lon="6.44438">
        <ele>403.41</ele>
        <time>2012-05-04T13:07:01Z</time>
      </trkpt>
      <trkpt lat="48.14" lon="6.44445">
        <ele>402.93</ele>
        <time>2012-05-04T13:07:02Z</time>
      </trkpt>
      <trkpt lat="48.14003" lon="6.44452">
        <ele>402.45</ele>
        <time>2012-05-04T13:07:03Z</time>
      </trkpt>
      <trkpt lat="48.14008" lon="6.44459">
        <ele>401.97</ele>
        <time>2012-05-04T13:07:04Z</time>
      </trkpt>
      <trkpt lat="48.14012" lon="6.44467">
        <ele>401.49</ele>
        <time>2012-05-04T13:07:05Z</time>
      </trkpt>
      <trkpt lat="48.14015" lon="6.44474">
        <ele>401.49</ele>
        <time>2012-05-04T13:07:06Z</time>
      </trkpt>
      <trkpt lat="48.14019" lon="6.44481">
        <ele>401.01</ele>
        <time>2012-05-04T13:07:07Z</time>
      </trkpt>
      <trkpt lat="48.14023" lon="6.44488">
        <ele>401.01</ele>
        <time>2012-05-04T13:07:08Z</time>
      </trkpt>
      <trkpt lat="48.14027" lon="6.44496">
        <ele>401.01</ele>
        <time>2012-05-04T13:07:09Z</time>
      </trkpt>
      <trkpt lat="48.14031" lon="6.44503">
        <ele>401.01</ele>
        <time>2012-05-04T13:07:10Z</time>
      </trkpt>
      <trkpt lat="48.14035" lon="6.4451">
        <ele>400.53</ele>
        <time>2012-05-04T13:07:11Z</time>
      </trkpt>
      <trkpt lat="48.1404" lon="6.44516">
        <ele>401.01</ele>
        <time>2012-05-04T13:07:12Z</time>
      </trkpt>
      <trkpt lat="48.14044" lon="6.44522">
        <ele>400.53</ele>
        <time>2012-05-04T13:07:13Z</time>
      </trkpt>
      <trkpt lat="48.14049" lon="6.44528">
        <ele>400.05</ele>
        <time>2012-05-04T13:07:14Z</time>
      </trkpt>
      <trkpt lat="48.14074" lon="6.44569">
        <ele>398.6</ele>
        <time>2012-05-04T13:07:20Z</time>
      </trkpt>
      <trkpt lat="48.14078" lon="6.44575">
        <ele>399.08</ele>
        <time>2012-05-04T13:07:21Z</time>
      </trkpt>
      <trkpt lat="48.14081" lon="6.44579">
        <ele>399.57</ele>
        <time>2012-05-04T13:07:22Z</time>
      </trkpt>
      <trkpt lat="48.14083" lon="6.44584">
        <ele>400.05</ele>
        <time>2012-05-04T13:07:23Z</time>
      </trkpt>
      <trkpt lat="48.14085" lon="6.4459">
        <ele>401.01</ele>
        <time>2012-05-04T13:07:24Z</time>
      </trkpt>
      <trkpt lat="48.14086" lon="6.44595">
        <ele>401.49</ele>
        <time>2012-05-04T13:07:25Z</time>
      </trkpt>
      <trkpt lat="48.14088" lon="6.446">
        <ele>402.45</ele>
        <time>2012-05-04T13:07:26Z</time>
      </trkpt>
      <trkpt lat="48.1409" lon="6.44604">
        <ele>402.93</ele>
        <time>2012-05-04T13:07:27Z</time>
      </trkpt>
      <trkpt lat="48.14091" lon="6.44607">
        <ele>403.41</ele>
        <time>2012-05-04T13:07:28Z</time>
      </trkpt>
      <trkpt lat="48.14093" lon="6.44611">
        <ele>403.89</ele>
        <time>2012-05-04T13:07:29Z</time>
      </trkpt>
      <trkpt lat="48.14095" lon="6.44615">
        <ele>404.37</ele>
        <time>2012-05-04T13:07:30Z</time>
      </trkpt>
      <trkpt lat="48.14097" lon="6.44619">
        <ele>405.33</ele>
        <time>2012-05-04T13:07:31Z</time>
      </trkpt>
      <trkpt lat="48.14097" lon="6.44621">
        <ele>406.29</ele>
        <time>2012-05-04T13:07:32Z</time>
      </trkpt>
      <trkpt lat="48.14099" lon="6.44625">
        <ele>407.26</ele>
        <time>2012-05-04T13:07:33Z</time>
      </trkpt>
      <trkpt lat="48.14101" lon="6.44629">
        <ele>408.22</ele>
        <time>2012-05-04T13:07:34Z</time>
      </trkpt>
      <trkpt lat="48.14103" lon="6.44632">
        <ele>409.18</ele>
        <time>2012-05-04T13:07:35Z</time>
      </trkpt>
      <trkpt lat="48.14105" lon="6.44635">
        <ele>410.14</ele>
        <time>2012-05-04T13:07:36Z</time>
      </trkpt>
      <trkpt lat="48.14108" lon="6.44638">
        <ele>411.1</ele>
        <time>2012-05-04T13:07:37Z</time>
      </trkpt>
      <trkpt lat="48.1411" lon="6.44641">
        <ele>411.58</ele>
        <time>2012-05-04T13:07:38Z</time>
      </trkpt>
      <trkpt lat="48.14111" lon="6.44643">
        <ele>412.06</ele>
        <time>2012-05-04T13:07:39Z</time>
      </trkpt>
      <trkpt lat="48.14112" lon="6.44646">
        <ele>412.54</ele>
        <time>2012-05-04T13:07:40Z</time>
      </trkpt>
      <trkpt lat="48.14125" lon="6.44667">
        <ele>414.95</ele>
        <time>2012-05-04T13:07:46Z</time>
      </trkpt>
      <trkpt lat="48.14127" lon="6.44671">
        <ele>415.43</ele>
        <time>2012-05-04T13:07:47Z</time>
      </trkpt>
      <trkpt lat="48.14128" lon="6.44676">
        <ele>415.91</ele>
        <time>2012-05-04T13:07:48Z</time>
      </trkpt>
      <trkpt lat="48.1413" lon="6.44679">
        <ele>415.91</ele>
        <time>2012-05-04T13:07:49Z</time>
      </trkpt>
      <trkpt lat="48.14134" lon="6.44684">
        <ele>416.87</ele>
        <time>2012-05-04T13:07:50Z</time>
      </trkpt>
      <trkpt lat="48.14136" lon="6.44687">
        <ele>417.83</ele>
        <time>2012-05-04T13:07:51Z</time>
      </trkpt>
      <trkpt lat="48.14146" lon="6.44698">
        <ele>419.27</ele>
        <time>2012-05-04T13:07:54Z</time>
      </trkpt>
      <trkpt lat="48.14149" lon="6.44701">
        <ele>419.27</ele>
        <time>2012-05-04T13:07:55Z</time>
      </trkpt>
      <trkpt lat="48.14153" lon="6.44704">
        <ele>418.79</ele>
        <time>2012-05-04T13:07:56Z</time>
      </trkpt>
      <trkpt lat="48.14182" lon="6.44733">
        <ele>415.91</ele>
        <time>2012-05-04T13:08:05Z</time>
      </trkpt>
      <trkpt lat="48.14208" lon="6.44751">
        <ele>414.47</ele>
        <time>2012-05-04T13:08:14Z</time>
      </trkpt>
      <trkpt lat="48.14245" lon="6.44757">
        <ele>409.66</ele>
        <time>2012-05-04T13:08:23Z</time>
      </trkpt>
      <trkpt lat="48.14279" lon="6.44773">
        <ele>409.66</ele>
        <time>2012-05-04T13:08:29Z</time>
      </trkpt>
      <trkpt lat="48.14286" lon="6.44772">
        <ele>409.66</ele>
        <time>2012-05-04T13:08:30Z</time>
      </trkpt>
      <trkpt lat="48.14293" lon="6.44769">
        <ele>410.14</ele>
        <time>2012-05-04T13:08:31Z</time>
      </trkpt>
      <trkpt lat="48.14299" lon="6.44764">
        <ele>410.62</ele>
        <time>2012-05-04T13:08:32Z</time>
      </trkpt>
      <trkpt lat="48.14304" lon="6.44756">
        <ele>411.1</ele>
        <time>2012-05-04T13:08:33Z</time>
      </trkpt>
      <trkpt lat="48.14308" lon="6.44749">
        <ele>411.1</ele>
        <time>2012-05-04T13:08:34Z</time>
      </trkpt>
      <trkpt lat="48.14315" lon="6.44736">
        <ele>412.06</ele>
        <time>2012-05-04T13:08:36Z</time>
      </trkpt>
      <trkpt lat="48.14318" lon="6.44729">
        <ele>412.06</ele>
        <time>2012-05-04T13:08:37Z</time>
      </trkpt>
      <trkpt lat="48.1432" lon="6.44723">
        <ele>412.06</ele>
        <time>2012-05-04T13:08:38Z</time>
      </trkpt>
      <trkpt lat="48.14322" lon="6.44718">
        <ele>412.06</ele>
        <time>2012-05-04T13:08:39Z</time>
      </trkpt>
      <trkpt lat="48.14329" lon="6.44693">
        <ele>410.62</ele>
        <time>2012-05-04T13:08:43Z</time>
      </trkpt>
      <trkpt lat="48.14329" lon="6.44679">
        <ele>410.14</ele>
        <time>2012-05-04T13:08:45Z</time>
      </trkpt>
      <trkpt lat="48.14329" lon="6.44671">
        <ele>410.14</ele>
        <time>2012-05-04T13:08:46Z</time>
      </trkpt>
      <trkpt lat="48.14331" lon="6.44664">
        <ele>410.14</ele>
        <time>2012-05-04T13:08:47Z</time>
      </trkpt>
      <trkpt lat="48.14334" lon="6.44656">
        <ele>410.14</ele>
        <time>2012-05-04T13:08:48Z</time>
      </trkpt>
      <trkpt lat="48.14336" lon="6.44648">
        <ele>409.66</ele>
        <time>2012-05-04T13:08:49Z</time>
      </trkpt>
      <trkpt lat="48.14339" lon="6.44641">
        <ele>409.18</ele>
        <time>2012-05-04T13:08:50Z</time>
      </trkpt>
      <trkpt lat="48.14342" lon="6.44634">
        <ele>408.7</ele>
        <time>2012-05-04T13:08:51Z</time>
      </trkpt>
      <trkpt lat="48.14347" lon="6.44629">
        <ele>408.7</ele>
        <time>2012-05-04T13:08:52Z</time>
      </trkpt>
      <trkpt lat="48.14353" lon="6.44624">
        <ele>408.22</ele>
        <time>2012-05-04T13:08:53Z</time>
      </trkpt>
      <trkpt lat="48.1436" lon="6.44618">
        <ele>407.26</ele>
        <time>2012-05-04T13:08:54Z</time>
      </trkpt>
      <trkpt lat="48.14366" lon="6.44613">
        <ele>406.29</ele>
        <time>2012-05-04T13:08:55Z</time>
      </trkpt>
      <trkpt lat="48.1437" lon="6.44607">
        <ele>405.33</ele>
        <time>2012-05-04T13:08:56Z</time>
      </trkpt>
      <trkpt lat="48.14378" lon="6.44594">
        <ele>403.89</ele>
        <time>2012-05-04T13:08:58Z</time>
      </trkpt>
      <trkpt lat="48.14381" lon="6.44586">
        <ele>402.93</ele>
        <time>2012-05-04T13:08:59Z</time>
      </trkpt>
      <trkpt lat="48.14383" lon="6.44577">
        <ele>401.97</ele>
        <time>2012-05-04T13:09:00Z</time>
      </trkpt>
      <trkpt lat="48.14385" lon="6.44568">
        <ele>401.01</ele>
        <time>2012-05-04T13:09:01Z</time>
      </trkpt>
      <trkpt lat="48.14387" lon="6.44558">
        <ele>400.05</ele>
        <time>2012-05-04T13:09:02Z</time>
      </trkpt>
      <trkpt lat="48.14387" lon="6.44545">
        <ele>399.57</ele>
        <time>2012-05-04T13:09:03Z</time>
      </trkpt>
      <trkpt lat="48.14387" lon="6.44532">
        <ele>399.08</ele>
        <time>2012-05-04T13:09:04Z</time>
      </trkpt>
      <trkpt lat="48.14386" lon="6.44522">
        <ele>398.12</ele>
        <time>2012-05-04T13:09:05Z</time>
      </trkpt>
      <trkpt lat="48.14387" lon="6.44512">
        <ele>397.16</ele>
        <time>2012-05-04T13:09:06Z</time>
      </trkpt>
      <trkpt lat="48.14389" lon="6.44503">
        <ele>396.68</ele>
        <time>2012-05-04T13:09:07Z</time>
      </trkpt>
      <trkpt lat="48.1439" lon="6.44494">
        <ele>395.72</ele>
        <time>2012-05-04T13:09:08Z</time>
      </trkpt>
      <trkpt lat="48.1439" lon="6.44486">
        <ele>394.76</ele>
        <time>2012-05-04T13:09:09Z</time>
      </trkpt>
      <trkpt lat="48.1439" lon="6.44445">
        <ele>389.47</ele>
        <time>2012-05-04T13:09:15Z</time>
      </trkpt>
      <trkpt lat="48.14386" lon="6.4444">
        <ele>390.43</ele>
        <time>2012-05-04T13:09:27Z</time>
      </trkpt>
      <trkpt lat="48.14386" lon="6.44438">
        <ele>390.43</ele>
        <time>2012-05-04T13:09:48Z</time>
      </trkpt>
      <trkpt lat="48.14384" lon="6.44438">
        <ele>393.32</ele>
        <time>2012-05-04T13:10:12Z</time>
      </trkpt>
      <trkpt lat="48.14386" lon="6.44435">
        <ele>397.64</ele>
        <time>2012-05-04T13:10:38Z</time>
      </trkpt>
      <trkpt lat="48.14387" lon="6.44431">
        <ele>398.12</ele>
        <time>2012-05-04T13:10:53Z</time>
      </trkpt>
      <trkpt lat="48.14389" lon="6.44426">
        <ele>401.49</ele>
        <time>2012-05-04T13:11:19Z</time>
      </trkpt>
      <trkpt lat="48.1439" lon="6.44424">
        <ele>402.45</ele>
        <time>2012-05-04T13:11:44Z</time>
      </trkpt>
      <trkpt lat="48.14391" lon="6.44423">
        <ele>403.41</ele>
        <time>2012-05-04T13:12:04Z</time>
      </trkpt>
      <trkpt lat="48.14392" lon="6.44422">
        <ele>403.89</ele>
        <time>2012-05-04T13:12:05Z</time>
      </trkpt>
      <trkpt lat="48.14393" lon="6.44421">
        <ele>403.89</ele>
        <time>2012-05-04T13:12:06Z</time>
      </trkpt>
      <trkpt lat="48.14395" lon="6.44422">
        <ele>403.89</ele>
        <time>2012-05-04T13:12:07Z</time>
      </trkpt>
      <trkpt lat="48.14397" lon="6.44423">
        <ele>403.89</ele>
        <time>2012-05-04T13:12:08Z</time>
      </trkpt>
      <trkpt lat="48.14399" lon="6.44423">
        <ele>403.89</ele>
        <time>2012-05-04T13:12:09Z</time>
      </trkpt>
      <trkpt lat="48.14402" lon="6.44423">
        <ele>403.41</ele>
        <time>2012-05-04T13:12:10Z</time>
      </trkpt>
      <trkpt lat="48.14406" lon="6.44424">
        <ele>403.41</ele>
        <time>2012-05-04T13:12:11Z</time>
      </trkpt>
      <trkpt lat="48.1441" lon="6.44426">
        <ele>403.41</ele>
        <time>2012-05-04T13:12:12Z</time>
      </trkpt>
      <trkpt lat="48.14425" lon="6.44433">
        <ele>402.45</ele>
        <time>2012-05-04T13:12:15Z</time>
      </trkpt>
      <trkpt lat="48.14429" lon="6.44436">
        <ele>401.97</ele>
        <time>2012-05-04T13:12:16Z</time>
      </trkpt>
      <trkpt lat="48.14434" lon="6.44439">
        <ele>401.49</ele>
        <time>2012-05-04T13:12:17Z</time>
      </trkpt>
      <trkpt lat="48.14438" lon="6.4444">
        <ele>401.01</ele>
        <time>2012-05-04T13:12:18Z</time>
      </trkpt>
      <trkpt lat="48.14441" lon="6.44442">
        <ele>401.01</ele>
        <time>2012-05-04T13:12:19Z</time>
      </trkpt>
      <trkpt lat="48.14469" lon="6.44455">
        <ele>392.84</ele>
        <time>2012-05-04T13:12:29Z</time>
      </trkpt>
      <trkpt lat="48.14484" lon="6.44457">
        <ele>387.55</ele>
        <time>2012-05-04T13:12:35Z</time>
      </trkpt>
      <trkpt lat="48.14486" lon="6.44458">
        <ele>386.59</ele>
        <time>2012-05-04T13:12:36Z</time>
      </trkpt>
      <trkpt lat="48.14489" lon="6.4446">
        <ele>385.63</ele>
        <time>2012-05-04T13:12:37Z</time>
      </trkpt>
      <trkpt lat="48.145" lon="6.44462">
        <ele>384.66</ele>
        <time>2012-05-04T13:12:40Z</time>
      </trkpt>
      <trkpt lat="48.14505" lon="6.44463">
        <ele>384.66</ele>
        <time>2012-05-04T13:12:41Z</time>
      </trkpt>
      <trkpt lat="48.14514" lon="6.44461">
        <ele>384.66</ele>
        <time>2012-05-04T13:12:43Z</time>
      </trkpt>
      <trkpt lat="48.14518" lon="6.44456">
        <ele>384.18</ele>
        <time>2012-05-04T13:12:44Z</time>
      </trkpt>
      <trkpt lat="48.14519" lon="6.4445">
        <ele>383.7</ele>
        <time>2012-05-04T13:12:45Z</time>
      </trkpt>
      <trkpt lat="48.1452" lon="6.44442">
        <ele>383.22</ele>
        <time>2012-05-04T13:12:46Z</time>
      </trkpt>
      <trkpt lat="48.14522" lon="6.44435">
        <ele>382.74</ele>
        <time>2012-05-04T13:12:47Z</time>
      </trkpt>
      <trkpt lat="48.14526" lon="6.44421">
        <ele>382.74</ele>
        <time>2012-05-04T13:12:49Z</time>
      </trkpt>
      <trkpt lat="48.14534" lon="6.44387">
        <ele>382.74</ele>
        <time>2012-05-04T13:12:54Z</time>
      </trkpt>
      <trkpt lat="48.14538" lon="6.44374">
        <ele>382.74</ele>
        <time>2012-05-04T13:12:56Z</time>
      </trkpt>
      <trkpt lat="48.14539" lon="6.44367">
        <ele>382.74</ele>
        <time>2012-05-04T13:12:57Z</time>
      </trkpt>
      <trkpt lat="48.14541" lon="6.44359">
        <ele>382.74</ele>
        <time>2012-05-04T13:12:58Z</time>
      </trkpt>
      <trkpt lat="48.14559" lon="6.443">
        <ele>382.74</ele>
        <time>2012-05-04T13:13:06Z</time>
      </trkpt>
      <trkpt lat="48.14567" lon="6.44251">
        <ele>382.74</ele>
        <time>2012-05-04T13:13:12Z</time>
      </trkpt>
      <trkpt lat="48.14563" lon="6.44148">
        <ele>380.82</ele>
        <time>2012-05-04T13:13:25Z</time>
      </trkpt>
      <trkpt lat="48.14563" lon="6.44142">
        <ele>381.3</ele>
        <time>2012-05-04T13:13:26Z</time>
      </trkpt>
      <trkpt lat="48.14563" lon="6.44136">
        <ele>381.78</ele>
        <time>2012-05-04T13:13:27Z</time>
      </trkpt>
      <trkpt lat="48.14562" lon="6.44131">
        <ele>381.78</ele>
        <time>2012-05-04T13:13:28Z</time>
      </trkpt>
      <trkpt lat="48.14563" lon="6.44125">
        <ele>381.78</ele>
        <time>2012-05-04T13:13:29Z</time>
      </trkpt>
      <trkpt lat="48.14564" lon="6.4412">
        <ele>381.3</ele>
        <time>2012-05-04T13:13:30Z</time>
      </trkpt>
      <trkpt lat="48.14565" lon="6.44114">
        <ele>381.3</ele>
        <time>2012-05-04T13:13:31Z</time>
      </trkpt>
      <trkpt lat="48.14567" lon="6.44108">
        <ele>381.3</ele>
        <time>2012-05-04T13:13:32Z</time>
      </trkpt>
      <trkpt lat="48.14569" lon="6.44102">
        <ele>381.3</ele>
        <time>2012-05-04T13:13:33Z</time>
      </trkpt>
      <trkpt lat="48.1457" lon="6.44096">
        <ele>380.82</ele>
        <time>2012-05-04T13:13:34Z</time>
      </trkpt>
      <trkpt lat="48.14572" lon="6.44089">
        <ele>380.82</ele>
        <time>2012-05-04T13:13:35Z</time>
      </trkpt>
      <trkpt lat="48.14573" lon="6.44083">
        <ele>380.82</ele>
        <time>2012-05-04T13:13:36Z</time>
      </trkpt>
      <trkpt lat="48.14573" lon="6.4407">
        <ele>380.82</ele>
        <time>2012-05-04T13:13:38Z</time>
      </trkpt>
      <trkpt lat="48.14573" lon="6.44064">
        <ele>380.82</ele>
        <time>2012-05-04T13:13:39Z</time>
      </trkpt>
      <trkpt lat="48.14571" lon="6.44058">
        <ele>380.82</ele>
        <time>2012-05-04T13:13:40Z</time>
      </trkpt>
      <trkpt lat="48.1457" lon="6.44052">
        <ele>380.82</ele>
        <time>2012-05-04T13:13:41Z</time>
      </trkpt>
      <trkpt lat="48.14567" lon="6.44046">
        <ele>380.34</ele>
        <time>2012-05-04T13:13:42Z</time>
      </trkpt>
      <trkpt lat="48.14554" lon="6.44011">
        <ele>380.34</ele>
        <time>2012-05-04T13:13:48Z</time>
      </trkpt>
      <trkpt lat="48.14539" lon="6.43984">
        <ele>379.38</ele>
        <time>2012-05-04T13:13:53Z</time>
      </trkpt>
      <trkpt lat="48.14536" lon="6.4398">
        <ele>379.38</ele>
        <time>2012-05-04T13:13:54Z</time>
      </trkpt>
      <trkpt lat="48.14531" lon="6.43976">
        <ele>379.38</ele>
        <time>2012-05-04T13:13:55Z</time>
      </trkpt>
      <trkpt lat="48.14522" lon="6.43971">
        <ele>379.38</ele>
        <time>2012-05-04T13:13:57Z</time>
      </trkpt>
      <trkpt lat="48.14518" lon="6.4397">
        <ele>379.38</ele>
        <time>2012-05-04T13:13:58Z</time>
      </trkpt>
      <trkpt lat="48.14514" lon="6.4397">
        <ele>379.38</ele>
        <time>2012-05-04T13:13:59Z</time>
      </trkpt>
      <trkpt lat="48.1449" lon="6.43973">
        <ele>378.42</ele>
        <time>2012-05-04T13:14:05Z</time>
      </trkpt>
      <trkpt lat="48.14485" lon="6.43974">
        <ele>378.9</ele>
        <time>2012-05-04T13:14:06Z</time>
      </trkpt>
      <trkpt lat="48.14475" lon="6.43975">
        <ele>378.9</ele>
        <time>2012-05-04T13:14:08Z</time>
      </trkpt>
      <trkpt lat="48.14471" lon="6.43974">
        <ele>378.9</ele>
        <time>2012-05-04T13:14:09Z</time>
      </trkpt>
      <trkpt lat="48.14467" lon="6.43972">
        <ele>378.9</ele>
        <time>2012-05-04T13:14:10Z</time>
      </trkpt>
      <trkpt lat="48.14463" lon="6.4397">
        <ele>378.9</ele>
        <time>2012-05-04T13:14:11Z</time>
      </trkpt>
      <trkpt lat="48.1446" lon="6.43967">
        <ele>378.42</ele>
        <time>2012-05-04T13:14:12Z</time>
      </trkpt>
      <trkpt lat="48.14449" lon="6.43958">
        <ele>377.45</ele>
        <time>2012-05-04T13:14:18Z</time>
      </trkpt>
      <trkpt lat="48.14446" lon="6.43946">
        <ele>376.01</ele>
        <time>2012-05-04T13:14:20Z</time>
      </trkpt>
      <trkpt lat="48.14443" lon="6.43926">
        <ele>374.57</ele>
        <time>2012-05-04T13:14:23Z</time>
      </trkpt>
      <trkpt lat="48.14447" lon="6.43888">
        <ele>370.73</ele>
        <time>2012-05-04T13:14:29Z</time>
      </trkpt>
      <trkpt lat="48.14457" lon="6.43868">
        <ele>369.76</ele>
        <time>2012-05-04T13:14:32Z</time>
      </trkpt>
      <trkpt lat="48.1449" lon="6.4383">
        <ele>369.28</ele>
        <time>2012-05-04T13:14:40Z</time>
      </trkpt>
      <trkpt lat="48.14526" lon="6.43799">
        <ele>367.36</ele>
        <time>2012-05-04T13:14:48Z</time>
      </trkpt>
      <trkpt lat="48.1453" lon="6.43795">
        <ele>367.84</ele>
        <time>2012-05-04T13:14:49Z</time>
      </trkpt>
      <trkpt lat="48.14545" lon="6.43784">
        <ele>368.32</ele>
        <time>2012-05-04T13:14:52Z</time>
      </trkpt>
      <trkpt lat="48.14553" lon="6.43773">
        <ele>368.8</ele>
        <time>2012-05-04T13:14:54Z</time>
      </trkpt>
      <trkpt lat="48.14556" lon="6.43766">
        <ele>368.8</ele>
        <time>2012-05-04T13:14:55Z</time>
      </trkpt>
      <trkpt lat="48.14558" lon="6.43759">
        <ele>368.8</ele>
        <time>2012-05-04T13:14:56Z</time>
      </trkpt>
      <trkpt lat="48.14561" lon="6.43751">
        <ele>368.8</ele>
        <time>2012-05-04T13:14:57Z</time>
      </trkpt>
      <trkpt lat="48.14562" lon="6.43743">
        <ele>368.8</ele>
        <time>2012-05-04T13:14:58Z</time>
      </trkpt>
      <trkpt lat="48.14566" lon="6.43729">
        <ele>369.28</ele>
        <time>2012-05-04T13:15:00Z</time>
      </trkpt>
      <trkpt lat="48.14569" lon="6.43724">
        <ele>369.76</ele>
        <time>2012-05-04T13:15:01Z</time>
      </trkpt>
      <trkpt lat="48.14572" lon="6.4372">
        <ele>369.28</ele>
        <time>2012-05-04T13:15:02Z</time>
      </trkpt>
      <trkpt lat="48.14576" lon="6.43715">
        <ele>369.76</ele>
        <time>2012-05-04T13:15:03Z</time>
      </trkpt>
      <trkpt lat="48.14581" lon="6.43708">
        <ele>369.28</ele>
        <time>2012-05-04T13:15:04Z</time>
      </trkpt>
      <trkpt lat="48.14586" lon="6.437">
        <ele>369.28</ele>
        <time>2012-05-04T13:15:05Z</time>
      </trkpt>
      <trkpt lat="48.14591" lon="6.43692">
        <ele>368.8</ele>
        <time>2012-05-04T13:15:06Z</time>
      </trkpt>
      <trkpt lat="48.14595" lon="6.43683">
        <ele>368.8</ele>
        <time>2012-05-04T13:15:07Z</time>
      </trkpt>
      <trkpt lat="48.14599" lon="6.43672">
        <ele>368.32</ele>
        <time>2012-05-04T13:15:08Z</time>
      </trkpt>
      <trkpt lat="48.14601" lon="6.43661">
        <ele>368.32</ele>
        <time>2012-05-04T13:15:09Z</time>
      </trkpt>
      <trkpt lat="48.14601" lon="6.4365">
        <ele>368.32</ele>
        <time>2012-05-04T13:15:10Z</time>
      </trkpt>
      <trkpt lat="48.146" lon="6.43616">
        <ele>367.84</ele>
        <time>2012-05-04T13:15:13Z</time>
      </trkpt>
      <trkpt lat="48.14589" lon="6.43502">
        <ele>363.52</ele>
        <time>2012-05-04T13:15:22Z</time>
      </trkpt>
      <trkpt lat="48.14582" lon="6.4345">
        <ele>361.59</ele>
        <time>2012-05-04T13:15:27Z</time>
      </trkpt>
      <trkpt lat="48.14582" lon="6.4344">
        <ele>361.11</ele>
        <time>2012-05-04T13:15:28Z</time>
      </trkpt>
      <trkpt lat="48.14584" lon="6.43423">
        <ele>361.11</ele>
        <time>2012-05-04T13:15:30Z</time>
      </trkpt>
      <trkpt lat="48.14587" lon="6.43407">
        <ele>361.59</ele>
        <time>2012-05-04T13:15:32Z</time>
      </trkpt>
      <trkpt lat="48.14594" lon="6.43379">
        <ele>361.59</ele>
        <time>2012-05-04T13:15:36Z</time>
      </trkpt>
      <trkpt lat="48.14595" lon="6.43366">
        <ele>361.59</ele>
        <time>2012-05-04T13:15:38Z</time>
      </trkpt>
      <trkpt lat="48.14597" lon="6.43362">
        <ele>361.11</ele>
        <time>2012-05-04T13:15:39Z</time>
      </trkpt>
      <trkpt lat="48.14599" lon="6.43359">
        <ele>361.11</ele>
        <time>2012-05-04T13:15:40Z</time>
      </trkpt>
      <trkpt lat="48.14602" lon="6.4336">
        <ele>360.63</ele>
        <time>2012-05-04T13:15:41Z</time>
      </trkpt>
      <trkpt lat="48.14605" lon="6.43362">
        <ele>360.15</ele>
        <time>2012-05-04T13:15:42Z</time>
      </trkpt>
      <trkpt lat="48.14608" lon="6.43364">
        <ele>359.19</ele>
        <time>2012-05-04T13:15:43Z</time>
      </trkpt>
      <trkpt lat="48.14613" lon="6.43367">
        <ele>358.71</ele>
        <time>2012-05-04T13:15:44Z</time>
      </trkpt>
      <trkpt lat="48.14617" lon="6.4337">
        <ele>357.75</ele>
        <time>2012-05-04T13:15:45Z</time>
      </trkpt>
      <trkpt lat="48.1462" lon="6.43371">
        <ele>356.79</ele>
        <time>2012-05-04T13:15:46Z</time>
      </trkpt>
      <trkpt lat="48.14623" lon="6.4337">
        <ele>356.31</ele>
        <time>2012-05-04T13:15:47Z</time>
      </trkpt>
      <trkpt lat="48.14625" lon="6.43366">
        <ele>355.34</ele>
        <time>2012-05-04T13:15:48Z</time>
      </trkpt>
      <trkpt lat="48.14626" lon="6.43362">
        <ele>354.86</ele>
        <time>2012-05-04T13:15:49Z</time>
      </trkpt>
      <trkpt lat="48.14628" lon="6.43359">
        <ele>354.38</ele>
        <time>2012-05-04T13:15:50Z</time>
      </trkpt>
      <trkpt lat="48.1463" lon="6.43355">
        <ele>353.9</ele>
        <time>2012-05-04T13:15:51Z</time>
      </trkpt>
      <trkpt lat="48.14632" lon="6.43352">
        <ele>352.94</ele>
        <time>2012-05-04T13:15:52Z</time>
      </trkpt>
      <trkpt lat="48.14634" lon="6.43349">
        <ele>352.46</ele>
        <time>2012-05-04T13:15:53Z</time>
      </trkpt>
      <trkpt lat="48.14636" lon="6.43347">
        <ele>351.5</ele>
        <time>2012-05-04T13:15:54Z</time>
      </trkpt>
      <trkpt lat="48.14638" lon="6.43344">
        <ele>350.54</ele>
        <time>2012-05-04T13:15:55Z</time>
      </trkpt>
      <trkpt lat="48.14639" lon="6.43342">
        <ele>349.58</ele>
        <time>2012-05-04T13:15:56Z</time>
      </trkpt>
      <trkpt lat="48.1464" lon="6.43338">
        <ele>348.62</ele>
        <time>2012-05-04T13:15:57Z</time>
      </trkpt>
      <trkpt lat="48.14641" lon="6.43335">
        <ele>347.65</ele>
        <time>2012-05-04T13:15:58Z</time>
      </trkpt>
      <trkpt lat="48.14642" lon="6.43331">
        <ele>346.69</ele>
        <time>2012-05-04T13:15:59Z</time>
      </trkpt>
      <trkpt lat="48.14644" lon="6.43328">
        <ele>345.73</ele>
        <time>2012-05-04T13:16:00Z</time>
      </trkpt>
      <trkpt lat="48.14645" lon="6.43325">
        <ele>344.29</ele>
        <time>2012-05-04T13:16:01Z</time>
      </trkpt>
      <trkpt lat="48.14646" lon="6.43322">
        <ele>342.85</ele>
        <time>2012-05-04T13:16:02Z</time>
      </trkpt>
      <trkpt lat="48.14647" lon="6.43318">
        <ele>341.89</ele>
        <time>2012-05-04T13:16:03Z</time>
      </trkpt>
      <trkpt lat="48.14648" lon="6.43315">
        <ele>340.92</ele>
        <time>2012-05-04T13:16:04Z</time>
      </trkpt>
      <trkpt lat="48.14649" lon="6.43312">
        <ele>340.44</ele>
        <time>2012-05-04T13:16:05Z</time>
      </trkpt>
      <trkpt lat="48.1465" lon="6.43308">
        <ele>340.92</ele>
        <time>2012-05-04T13:16:06Z</time>
      </trkpt>
      <trkpt lat="48.14651" lon="6.43305">
        <ele>341.41</ele>
        <time>2012-05-04T13:16:07Z</time>
      </trkpt>
      <trkpt lat="48.14653" lon="6.43301">
        <ele>341.89</ele>
        <time>2012-05-04T13:16:08Z</time>
      </trkpt>
      <trkpt lat="48.14654" lon="6.43297">
        <ele>341.89</ele>
        <time>2012-05-04T13:16:09Z</time>
      </trkpt>
      <trkpt lat="48.14656" lon="6.43294">
        <ele>342.37</ele>
        <time>2012-05-04T13:16:10Z</time>
      </trkpt>
      <trkpt lat="48.14657" lon="6.43292">
        <ele>342.85</ele>
        <time>2012-05-04T13:16:11Z</time>
      </trkpt>
      <trkpt lat="48.14658" lon="6.43293">
        <ele>342.85</ele>
        <time>2012-05-04T13:16:12Z</time>
      </trkpt>
      <trkpt lat="48.14658" lon="6.43292">
        <ele>343.33</ele>
        <time>2012-05-04T13:16:13Z</time>
      </trkpt>
      <trkpt lat="48.14658" lon="6.43295">
        <ele>351.5</ele>
        <time>2012-05-04T13:16:23Z</time>
      </trkpt>
      <trkpt lat="48.1466" lon="6.43299">
        <ele>357.27</ele>
        <time>2012-05-04T13:16:33Z</time>
      </trkpt>
      <trkpt lat="48.1466" lon="6.43301">
        <ele>357.27</ele>
        <time>2012-05-04T13:16:34Z</time>
      </trkpt>
      <trkpt lat="48.1466" lon="6.43303">
        <ele>357.75</ele>
        <time>2012-05-04T13:16:35Z</time>
      </trkpt>
      <trkpt lat="48.1466" lon="6.43305">
        <ele>358.23</ele>
        <time>2012-05-04T13:16:36Z</time>
      </trkpt>
      <trkpt lat="48.14659" lon="6.43307">
        <ele>359.19</ele>
        <time>2012-05-04T13:16:37Z</time>
      </trkpt>
      <trkpt lat="48.14659" lon="6.4331">
        <ele>359.67</ele>
        <time>2012-05-04T13:16:38Z</time>
      </trkpt>
      <trkpt lat="48.14658" lon="6.43312">
        <ele>360.15</ele>
        <time>2012-05-04T13:16:39Z</time>
      </trkpt>
      <trkpt lat="48.14658" lon="6.43314">
        <ele>360.15</ele>
        <time>2012-05-04T13:16:40Z</time>
      </trkpt>
      <trkpt lat="48.14658" lon="6.43317">
        <ele>360.15</ele>
        <time>2012-05-04T13:16:41Z</time>
      </trkpt>
      <trkpt lat="48.14658" lon="6.4332">
        <ele>361.11</ele>
        <time>2012-05-04T13:16:42Z</time>
      </trkpt>
      <trkpt lat="48.14657" lon="6.43324">
        <ele>361.59</ele>
        <time>2012-05-04T13:16:43Z</time>
      </trkpt>
      <trkpt lat="48.14659" lon="6.43341">
        <ele>364.48</ele>
        <time>2012-05-04T13:16:48Z</time>
      </trkpt>
      <trkpt lat="48.14661" lon="6.43367">
        <ele>366.88</ele>
        <time>2012-05-04T13:16:53Z</time>
      </trkpt>
      <trkpt lat="48.14662" lon="6.43373">
        <ele>366.88</ele>
        <time>2012-05-04T13:16:54Z</time>
      </trkpt>
      <trkpt lat="48.14662" lon="6.43378">
        <ele>367.36</ele>
        <time>2012-05-04T13:16:55Z</time>
      </trkpt>
      <trkpt lat="48.14672" lon="6.43422">
        <ele>371.69</ele>
        <time>2012-05-04T13:17:03Z</time>
      </trkpt>
      <trkpt lat="48.14677" lon="6.43433">
        <ele>372.17</ele>
        <time>2012-05-04T13:17:05Z</time>
      </trkpt>
      <trkpt lat="48.147" lon="6.43488">
        <ele>375.05</ele>
        <time>2012-05-04T13:17:14Z</time>
      </trkpt>
      <trkpt lat="48.14703" lon="6.435">
        <ele>375.53</ele>
        <time>2012-05-04T13:17:16Z</time>
      </trkpt>
      <trkpt lat="48.14704" lon="6.43506">
        <ele>375.53</ele>
        <time>2012-05-04T13:17:17Z</time>
      </trkpt>
      <trkpt lat="48.14705" lon="6.43512">
        <ele>375.05</ele>
        <time>2012-05-04T13:17:18Z</time>
      </trkpt>
      <trkpt lat="48.14706" lon="6.43519">
        <ele>375.05</ele>
        <time>2012-05-04T13:17:19Z</time>
      </trkpt>
      <trkpt lat="48.14707" lon="6.43526">
        <ele>375.05</ele>
        <time>2012-05-04T13:17:20Z</time>
      </trkpt>
      <trkpt lat="48.14708" lon="6.43533">
        <ele>375.53</ele>
        <time>2012-05-04T13:17:21Z</time>
      </trkpt>
      <trkpt lat="48.1471" lon="6.43539">
        <ele>375.53</ele>
        <time>2012-05-04T13:17:22Z</time>
      </trkpt>
      <trkpt lat="48.14711" lon="6.43545">
        <ele>375.53</ele>
        <time>2012-05-04T13:17:23Z</time>
      </trkpt>
      <trkpt lat="48.14724" lon="6.4357">
        <ele>376.49</ele>
        <time>2012-05-04T13:17:28Z</time>
      </trkpt>
      <trkpt lat="48.14727" lon="6.43576">
        <ele>376.49</ele>
        <time>2012-05-04T13:17:29Z</time>
      </trkpt>
      <trkpt lat="48.14731" lon="6.43581">
        <ele>376.97</ele>
        <time>2012-05-04T13:17:30Z</time>
      </trkpt>
      <trkpt lat="48.14734" lon="6.43586">
        <ele>376.97</ele>
        <time>2012-05-04T13:17:31Z</time>
      </trkpt>
      <trkpt lat="48.14738" lon="6.43591">
        <ele>377.45</ele>
        <time>2012-05-04T13:17:32Z</time>
      </trkpt>
      <trkpt lat="48.14755" lon="6.43608">
        <ele>378.42</ele>
        <time>2012-05-04T13:17:36Z</time>
      </trkpt>
      <trkpt lat="48.14775" lon="6.43618">
        <ele>380.34</ele>
        <time>2012-05-04T13:17:41Z</time>
      </trkpt>
      <trkpt lat="48.14798" lon="6.43631">
        <ele>381.78</ele>
        <time>2012-05-04T13:17:47Z</time>
      </trkpt>
      <trkpt lat="48.148" lon="6.43638">
        <ele>382.26</ele>
        <time>2012-05-04T13:17:48Z</time>
      </trkpt>
      <trkpt lat="48.148" lon="6.43644">
        <ele>382.74</ele>
        <time>2012-05-04T13:17:49Z</time>
      </trkpt>
      <trkpt lat="48.148" lon="6.4365">
        <ele>383.7</ele>
        <time>2012-05-04T13:17:50Z</time>
      </trkpt>
      <trkpt lat="48.14801" lon="6.43656">
        <ele>384.18</ele>
        <time>2012-05-04T13:17:51Z</time>
      </trkpt>
      <trkpt lat="48.14801" lon="6.43669">
        <ele>385.63</ele>
        <time>2012-05-04T13:17:53Z</time>
      </trkpt>
      <trkpt lat="48.14799" lon="6.43691">
        <ele>387.55</ele>
        <time>2012-05-04T13:17:56Z</time>
      </trkpt>
      <trkpt lat="48.14797" lon="6.43713">
        <ele>388.03</ele>
        <time>2012-05-04T13:17:59Z</time>
      </trkpt>
      <trkpt lat="48.14797" lon="6.4372">
        <ele>388.03</ele>
        <time>2012-05-04T13:18:00Z</time>
      </trkpt>
      <trkpt lat="48.14797" lon="6.43727">
        <ele>388.03</ele>
        <time>2012-05-04T13:18:01Z</time>
      </trkpt>
      <trkpt lat="48.14797" lon="6.43742">
        <ele>388.99</ele>
        <time>2012-05-04T13:18:03Z</time>
      </trkpt>
      <trkpt lat="48.14798" lon="6.43749">
        <ele>388.99</ele>
        <time>2012-05-04T13:18:04Z</time>
      </trkpt>
      <trkpt lat="48.14799" lon="6.43757">
        <ele>388.51</ele>
        <time>2012-05-04T13:18:05Z</time>
      </trkpt>
      <trkpt lat="48.14801" lon="6.43773">
        <ele>387.07</ele>
        <time>2012-05-04T13:18:07Z</time>
      </trkpt>
      <trkpt lat="48.14803" lon="6.43787">
        <ele>385.63</ele>
        <time>2012-05-04T13:18:09Z</time>
      </trkpt>
      <trkpt lat="48.14804" lon="6.43794">
        <ele>385.63</ele>
        <time>2012-05-04T13:18:10Z</time>
      </trkpt>
      <trkpt lat="48.14813" lon="6.43835">
        <ele>383.22</ele>
        <time>2012-05-04T13:18:16Z</time>
      </trkpt>
      <trkpt lat="48.14819" lon="6.43861">
        <ele>379.86</ele>
        <time>2012-05-04T13:18:20Z</time>
      </trkpt>
      <trkpt lat="48.14821" lon="6.43867">
        <ele>378.9</ele>
        <time>2012-05-04T13:18:21Z</time>
      </trkpt>
      <trkpt lat="48.14823" lon="6.43872">
        <ele>378.42</ele>
        <time>2012-05-04T13:18:22Z</time>
      </trkpt>
      <trkpt lat="48.14866" lon="6.43956">
        <ele>373.13</ele>
        <time>2012-05-04T13:18:35Z</time>
      </trkpt>
      <trkpt lat="48.14869" lon="6.43963">
        <ele>373.13</ele>
        <time>2012-05-04T13:18:36Z</time>
      </trkpt>
      <trkpt lat="48.14912" lon="6.44062">
        <ele>373.13</ele>
        <time>2012-05-04T13:18:50Z</time>
      </trkpt>
      <trkpt lat="48.14936" lon="6.4416">
        <ele>373.13</ele>
        <time>2012-05-04T13:19:03Z</time>
      </trkpt>
      <trkpt lat="48.14938" lon="6.44167">
        <ele>373.13</ele>
        <time>2012-05-04T13:19:04Z</time>
      </trkpt>
      <trkpt lat="48.1494" lon="6.44175">
        <ele>373.61</ele>
        <time>2012-05-04T13:19:05Z</time>
      </trkpt>
      <trkpt lat="48.14942" lon="6.44182">
        <ele>373.61</ele>
        <time>2012-05-04T13:19:06Z</time>
      </trkpt>
      <trkpt lat="48.14944" lon="6.44189">
        <ele>373.61</ele>
        <time>2012-05-04T13:19:07Z</time>
      </trkpt>
      <trkpt lat="48.14975" lon="6.44274">
        <ele>374.09</ele>
        <time>2012-05-04T13:19:19Z</time>
      </trkpt>
      <trkpt lat="48.14977" lon="6.44281">
        <ele>374.09</ele>
        <time>2012-05-04T13:19:20Z</time>
      </trkpt>
      <trkpt lat="48.1498" lon="6.44288">
        <ele>373.61</ele>
        <time>2012-05-04T13:19:21Z</time>
      </trkpt>
      <trkpt lat="48.14999" lon="6.44344">
        <ele>373.61</ele>
        <time>2012-05-04T13:19:29Z</time>
      </trkpt>
      <trkpt lat="48.15001" lon="6.44351">
        <ele>374.09</ele>
        <time>2012-05-04T13:19:30Z</time>
      </trkpt>
      <trkpt lat="48.15003" lon="6.44358">
        <ele>374.09</ele>
        <time>2012-05-04T13:19:31Z</time>
      </trkpt>
      <trkpt lat="48.15006" lon="6.44364">
        <ele>374.09</ele>
        <time>2012-05-04T13:19:32Z</time>
      </trkpt>
      <trkpt lat="48.15009" lon="6.44371">
        <ele>374.09</ele>
        <time>2012-05-04T13:19:33Z</time>
      </trkpt>
      <trkpt lat="48.15012" lon="6.44376">
        <ele>374.09</ele>
        <time>2012-05-04T13:19:34Z</time>
      </trkpt>
      <trkpt lat="48.15015" lon="6.44381">
        <ele>374.09</ele>
        <time>2012-05-04T13:19:35Z</time>
      </trkpt>
      <trkpt lat="48.15019" lon="6.44385">
        <ele>374.09</ele>
        <time>2012-05-04T13:19:36Z</time>
      </trkpt>
      <trkpt lat="48.15023" lon="6.44387">
        <ele>374.57</ele>
        <time>2012-05-04T13:19:37Z</time>
      </trkpt>
      <trkpt lat="48.15027" lon="6.44388">
        <ele>374.57</ele>
        <time>2012-05-04T13:19:38Z</time>
      </trkpt>
      <trkpt lat="48.15032" lon="6.44387">
        <ele>374.57</ele>
        <time>2012-05-04T13:19:39Z</time>
      </trkpt>
      <trkpt lat="48.15043" lon="6.44382">
        <ele>375.05</ele>
        <time>2012-05-04T13:19:43Z</time>
      </trkpt>
      <trkpt lat="48.15044" lon="6.44379">
        <ele>374.57</ele>
        <time>2012-05-04T13:19:44Z</time>
      </trkpt>
      <trkpt lat="48.15044" lon="6.44377">
        <ele>374.57</ele>
        <time>2012-05-04T13:19:45Z</time>
      </trkpt>
      <trkpt lat="48.15043" lon="6.44374">
        <ele>374.57</ele>
        <time>2012-05-04T13:19:46Z</time>
      </trkpt>
      <trkpt lat="48.15043" lon="6.4437">
        <ele>374.09</ele>
        <time>2012-05-04T13:19:47Z</time>
      </trkpt>
      <trkpt lat="48.15042" lon="6.44367">
        <ele>374.09</ele>
        <time>2012-05-04T13:19:48Z</time>
      </trkpt>
      <trkpt lat="48.15042" lon="6.44364">
        <ele>374.09</ele>
        <time>2012-05-04T13:19:49Z</time>
      </trkpt>
      <trkpt lat="48.15043" lon="6.4436">
        <ele>374.09</ele>
        <time>2012-05-04T13:19:50Z</time>
      </trkpt>
      <trkpt lat="48.15042" lon="6.44357">
        <ele>373.61</ele>
        <time>2012-05-04T13:19:51Z</time>
      </trkpt>
      <trkpt lat="48.15041" lon="6.44353">
        <ele>373.61</ele>
        <time>2012-05-04T13:19:52Z</time>
      </trkpt>
      <trkpt lat="48.1504" lon="6.44331">
        <ele>374.09</ele>
        <time>2012-05-04T13:19:58Z</time>
      </trkpt>
      <trkpt lat="48.1504" lon="6.44327">
        <ele>374.09</ele>
        <time>2012-05-04T13:19:59Z</time>
      </trkpt>
      <trkpt lat="48.1504" lon="6.44324">
        <ele>374.09</ele>
        <time>2012-05-04T13:20:00Z</time>
      </trkpt>
      <trkpt lat="48.1504" lon="6.4432">
        <ele>374.09</ele>
        <time>2012-05-04T13:20:01Z</time>
      </trkpt>
      <trkpt lat="48.1504" lon="6.44316">
        <ele>374.09</ele>
        <time>2012-05-04T13:20:02Z</time>
      </trkpt>
      <trkpt lat="48.15038" lon="6.44287">
        <ele>374.09</ele>
        <time>2012-05-04T13:20:10Z</time>
      </trkpt>
      <trkpt lat="48.15038" lon="6.44283">
        <ele>374.09</ele>
        <time>2012-05-04T13:20:11Z</time>
      </trkpt>
      <trkpt lat="48.15038" lon="6.4428">
        <ele>373.61</ele>
        <time>2012-05-04T13:20:12Z</time>
      </trkpt>
      <trkpt lat="48.1503" lon="6.44236">
        <ele>372.65</ele>
        <time>2012-05-04T13:20:23Z</time>
      </trkpt>
      <trkpt lat="48.15027" lon="6.44228">
        <ele>373.13</ele>
        <time>2012-05-04T13:20:25Z</time>
      </trkpt>
      <trkpt lat="48.15027" lon="6.44224">
        <ele>373.13</ele>
        <time>2012-05-04T13:20:26Z</time>
      </trkpt>
      <trkpt lat="48.15027" lon="6.44208">
        <ele>372.65</ele>
        <time>2012-05-04T13:20:30Z</time>
      </trkpt>
      <trkpt lat="48.15027" lon="6.44205">
        <ele>372.65</ele>
        <time>2012-05-04T13:20:31Z</time>
      </trkpt>
      <trkpt lat="48.15026" lon="6.44201">
        <ele>372.65</ele>
        <time>2012-05-04T13:20:32Z</time>
      </trkpt>
      <trkpt lat="48.15024" lon="6.44198">
        <ele>372.17</ele>
        <time>2012-05-04T13:20:33Z</time>
      </trkpt>
      <trkpt lat="48.15023" lon="6.44194">
        <ele>372.65</ele>
        <time>2012-05-04T13:20:34Z</time>
      </trkpt>
      <trkpt lat="48.15022" lon="6.44189">
        <ele>372.65</ele>
        <time>2012-05-04T13:20:35Z</time>
      </trkpt>
      <trkpt lat="48.1502" lon="6.44185">
        <ele>373.13</ele>
        <time>2012-05-04T13:20:36Z</time>
      </trkpt>
      <trkpt lat="48.1502" lon="6.44181">
        <ele>373.61</ele>
        <time>2012-05-04T13:20:37Z</time>
      </trkpt>
      <trkpt lat="48.15013" lon="6.4413">
        <ele>380.34</ele>
        <time>2012-05-04T13:20:48Z</time>
      </trkpt>
      <trkpt lat="48.15012" lon="6.44125">
        <ele>381.3</ele>
        <time>2012-05-04T13:20:49Z</time>
      </trkpt>
      <trkpt lat="48.15" lon="6.44085">
        <ele>387.07</ele>
        <time>2012-05-04T13:20:59Z</time>
      </trkpt>
      <trkpt lat="48.15" lon="6.44037">
        <ele>398.12</ele>
        <time>2012-05-04T13:21:09Z</time>
      </trkpt>
      <trkpt lat="48.15013" lon="6.43994">
        <ele>404.85</ele>
        <time>2012-05-04T13:21:22Z</time>
      </trkpt>
      <trkpt lat="48.1503" lon="6.4396">
        <ele>405.81</ele>
        <time>2012-05-04T13:21:33Z</time>
      </trkpt>
      <trkpt lat="48.15033" lon="6.43957">
        <ele>405.81</ele>
        <time>2012-05-04T13:21:34Z</time>
      </trkpt>
      <trkpt lat="48.15034" lon="6.43953">
        <ele>405.81</ele>
        <time>2012-05-04T13:21:35Z</time>
      </trkpt>
      <trkpt lat="48.15036" lon="6.43949">
        <ele>405.81</ele>
        <time>2012-05-04T13:21:36Z</time>
      </trkpt>
      <trkpt lat="48.15038" lon="6.43946">
        <ele>405.81</ele>
        <time>2012-05-04T13:21:37Z</time>
      </trkpt>
      <trkpt lat="48.1504" lon="6.43942">
        <ele>405.81</ele>
        <time>2012-05-04T13:21:38Z</time>
      </trkpt>
      <trkpt lat="48.15047" lon="6.43923">
        <ele>405.81</ele>
        <time>2012-05-04T13:21:42Z</time>
      </trkpt>
      <trkpt lat="48.15049" lon="6.43917">
        <ele>405.33</ele>
        <time>2012-05-04T13:21:43Z</time>
      </trkpt>
      <trkpt lat="48.15057" lon="6.43897">
        <ele>404.37</ele>
        <time>2012-05-04T13:21:46Z</time>
      </trkpt>
      <trkpt lat="48.1506" lon="6.43889">
        <ele>403.89</ele>
        <time>2012-05-04T13:21:47Z</time>
      </trkpt>
      <trkpt lat="48.15064" lon="6.43883">
        <ele>403.41</ele>
        <time>2012-05-04T13:21:48Z</time>
      </trkpt>
      <trkpt lat="48.15069" lon="6.43878">
        <ele>403.41</ele>
        <time>2012-05-04T13:21:49Z</time>
      </trkpt>
      <trkpt lat="48.15073" lon="6.43874">
        <ele>402.93</ele>
        <time>2012-05-04T13:21:50Z</time>
      </trkpt>
      <trkpt lat="48.15078" lon="6.4387">
        <ele>402.45</ele>
        <time>2012-05-04T13:21:51Z</time>
      </trkpt>
      <trkpt lat="48.15089" lon="6.43861">
        <ele>401.49</ele>
        <time>2012-05-04T13:21:53Z</time>
      </trkpt>
      <trkpt lat="48.15094" lon="6.43856">
        <ele>401.01</ele>
        <time>2012-05-04T13:21:54Z</time>
      </trkpt>
      <trkpt lat="48.15112" lon="6.43827">
        <ele>397.16</ele>
        <time>2012-05-04T13:22:02Z</time>
      </trkpt>
      <trkpt lat="48.15126" lon="6.43804">
        <ele>395.24</ele>
        <time>2012-05-04T13:22:09Z</time>
      </trkpt>
      <trkpt lat="48.15128" lon="6.43801">
        <ele>395.24</ele>
        <time>2012-05-04T13:22:10Z</time>
      </trkpt>
      <trkpt lat="48.15133" lon="6.43788">
        <ele>396.2</ele>
        <time>2012-05-04T13:22:13Z</time>
      </trkpt>
      <trkpt lat="48.15137" lon="6.43775">
        <ele>397.64</ele>
        <time>2012-05-04T13:22:15Z</time>
      </trkpt>
      <trkpt lat="48.15136" lon="6.43752">
        <ele>399.08</ele>
        <time>2012-05-04T13:22:18Z</time>
      </trkpt>
      <trkpt lat="48.1513" lon="6.43715">
        <ele>399.57</ele>
        <time>2012-05-04T13:22:22Z</time>
      </trkpt>
      <trkpt lat="48.1513" lon="6.4369">
        <ele>399.57</ele>
        <time>2012-05-04T13:22:25Z</time>
      </trkpt>
      <trkpt lat="48.15151" lon="6.43652">
        <ele>402.45</ele>
        <time>2012-05-04T13:22:35Z</time>
      </trkpt>
      <trkpt lat="48.15178" lon="6.43612">
        <ele>408.7</ele>
        <time>2012-05-04T13:22:45Z</time>
      </trkpt>
      <trkpt lat="48.15183" lon="6.4357">
        <ele>410.62</ele>
        <time>2012-05-04T13:22:54Z</time>
      </trkpt>
      <trkpt lat="48.15168" lon="6.43521">
        <ele>409.18</ele>
        <time>2012-05-04T13:23:05Z</time>
      </trkpt>
      <trkpt lat="48.15146" lon="6.43488">
        <ele>410.62</ele>
        <time>2012-05-04T13:23:16Z</time>
      </trkpt>
      <trkpt lat="48.15122" lon="6.43454">
        <ele>411.1</ele>
        <time>2012-05-04T13:23:26Z</time>
      </trkpt>
      <trkpt lat="48.15096" lon="6.43422">
        <ele>413.98</ele>
        <time>2012-05-04T13:23:36Z</time>
      </trkpt>
      <trkpt lat="48.15091" lon="6.4341">
        <ele>415.43</ele>
        <time>2012-05-04T13:23:38Z</time>
      </trkpt>
      <trkpt lat="48.15105" lon="6.43381">
        <ele>416.87</ele>
        <time>2012-05-04T13:23:45Z</time>
      </trkpt>
      <trkpt lat="48.1511" lon="6.43382">
        <ele>416.39</ele>
        <time>2012-05-04T13:23:46Z</time>
      </trkpt>
      <trkpt lat="48.1515" lon="6.43378">
        <ele>413.02</ele>
        <time>2012-05-04T13:23:56Z</time>
      </trkpt>
      <trkpt lat="48.15162" lon="6.43376">
        <ele>412.06</ele>
        <time>2012-05-04T13:23:59Z</time>
      </trkpt>
      <trkpt lat="48.15189" lon="6.43374">
        <ele>412.54</ele>
        <time>2012-05-04T13:24:04Z</time>
      </trkpt>
      <trkpt lat="48.15199" lon="6.43372">
        <ele>412.54</ele>
        <time>2012-05-04T13:24:06Z</time>
      </trkpt>
      <trkpt lat="48.1521" lon="6.43372">
        <ele>413.02</ele>
        <time>2012-05-04T13:24:08Z</time>
      </trkpt>
      <trkpt lat="48.15229" lon="6.43374">
        <ele>411.58</ele>
        <time>2012-05-04T13:24:12Z</time>
      </trkpt>
      <trkpt lat="48.1524" lon="6.4337">
        <ele>410.62</ele>
        <time>2012-05-04T13:24:16Z</time>
      </trkpt>
      <trkpt lat="48.15251" lon="6.43361">
        <ele>406.77</ele>
        <time>2012-05-04T13:24:22Z</time>
      </trkpt>
      <trkpt lat="48.15256" lon="6.43326">
        <ele>405.81</ele>
        <time>2012-05-04T13:24:32Z</time>
      </trkpt>
      <trkpt lat="48.15258" lon="6.4331">
        <ele>406.77</ele>
        <time>2012-05-04T13:24:35Z</time>
      </trkpt>
      <trkpt lat="48.15277" lon="6.43325">
        <ele>403.89</ele>
        <time>2012-05-04T13:24:43Z</time>
      </trkpt>
      <trkpt lat="48.15294" lon="6.43302">
        <ele>394.76</ele>
        <time>2012-05-04T13:24:50Z</time>
      </trkpt>
      <trkpt lat="48.15298" lon="6.43294">
        <ele>391.87</ele>
        <time>2012-05-04T13:24:53Z</time>
      </trkpt>
      <trkpt lat="48.15309" lon="6.43263">
        <ele>387.07</ele>
        <time>2012-05-04T13:25:02Z</time>
      </trkpt>
      <trkpt lat="48.1532" lon="6.43208">
        <ele>381.3</ele>
        <time>2012-05-04T13:25:15Z</time>
      </trkpt>
      <trkpt lat="48.15326" lon="6.43178">
        <ele>379.86</ele>
        <time>2012-05-04T13:25:23Z</time>
      </trkpt>
      <trkpt lat="48.15333" lon="6.43171">
        <ele>382.26</ele>
        <time>2012-05-04T13:25:26Z</time>
      </trkpt>
      <trkpt lat="48.1534" lon="6.43167">
        <ele>384.66</ele>
        <time>2012-05-04T13:25:31Z</time>
      </trkpt>
      <trkpt lat="48.1536" lon="6.43162">
        <ele>386.11</ele>
        <time>2012-05-04T13:25:41Z</time>
      </trkpt>
      <trkpt lat="48.15376" lon="6.43154">
        <ele>386.59</ele>
        <time>2012-05-04T13:25:49Z</time>
      </trkpt>
      <trkpt lat="48.15387" lon="6.43145">
        <ele>387.07</ele>
        <time>2012-05-04T13:25:55Z</time>
      </trkpt>
      <trkpt lat="48.15409" lon="6.43131">
        <ele>388.99</ele>
        <time>2012-05-04T13:26:05Z</time>
      </trkpt>
      <trkpt lat="48.15411" lon="6.4313">
        <ele>388.99</ele>
        <time>2012-05-04T13:26:06Z</time>
      </trkpt>
      <trkpt lat="48.1542" lon="6.43124">
        <ele>388.99</ele>
        <time>2012-05-04T13:26:11Z</time>
      </trkpt>
      <trkpt lat="48.15438" lon="6.43114">
        <ele>389.47</ele>
        <time>2012-05-04T13:26:20Z</time>
      </trkpt>
      <trkpt lat="48.15443" lon="6.43111">
        <ele>390.43</ele>
        <time>2012-05-04T13:26:24Z</time>
      </trkpt>
      <trkpt lat="48.1546" lon="6.43098">
        <ele>391.87</ele>
        <time>2012-05-04T13:26:33Z</time>
      </trkpt>
      <trkpt lat="48.15474" lon="6.43089">
        <ele>393.8</ele>
        <time>2012-05-04T13:26:42Z</time>
      </trkpt>
      <trkpt lat="48.15485" lon="6.43085">
        <ele>394.76</ele>
        <time>2012-05-04T13:26:47Z</time>
      </trkpt>
      <trkpt lat="48.1551" lon="6.43081">
        <ele>397.64</ele>
        <time>2012-05-04T13:26:57Z</time>
      </trkpt>
      <trkpt lat="48.15524" lon="6.4308">
        <ele>400.05</ele>
        <time>2012-05-04T13:27:02Z</time>
      </trkpt>
      <trkpt lat="48.15545" lon="6.43076">
        <ele>405.33</ele>
        <time>2012-05-04T13:27:12Z</time>
      </trkpt>
      <trkpt lat="48.15564" lon="6.43076">
        <ele>411.1</ele>
        <time>2012-05-04T13:27:21Z</time>
      </trkpt>
      <trkpt lat="48.15565" lon="6.43075">
        <ele>411.58</ele>
        <time>2012-05-04T13:27:22Z</time>
      </trkpt>
      <trkpt lat="48.15564" lon="6.43073">
        <ele>412.54</ele>
        <time>2012-05-04T13:27:24Z</time>
      </trkpt>
      <trkpt lat="48.15572" lon="6.43073">
        <ele>414.47</ele>
        <time>2012-05-04T13:27:28Z</time>
      </trkpt>
      <trkpt lat="48.15593" lon="6.43068">
        <ele>421.19</ele>
        <time>2012-05-04T13:27:37Z</time>
      </trkpt>
      <trkpt lat="48.15598" lon="6.43069">
        <ele>422.64</ele>
        <time>2012-05-04T13:27:40Z</time>
      </trkpt>
      <trkpt lat="48.15617" lon="6.43055">
        <ele>424.56</ele>
        <time>2012-05-04T13:27:50Z</time>
      </trkpt>
      <trkpt lat="48.15623" lon="6.43048">
        <ele>425.52</ele>
        <time>2012-05-04T13:27:53Z</time>
      </trkpt>
      <trkpt lat="48.15633" lon="6.43036">
        <ele>427.92</ele>
        <time>2012-05-04T13:27:59Z</time>
      </trkpt>
      <trkpt lat="48.15639" lon="6.43029">
        <ele>431.77</ele>
        <time>2012-05-04T13:28:02Z</time>
      </trkpt>
      <trkpt lat="48.15661" lon="6.43015">
        <ele>438.02</ele>
        <time>2012-05-04T13:28:09Z</time>
      </trkpt>
      <trkpt lat="48.15666" lon="6.43009">
        <ele>439.46</ele>
        <time>2012-05-04T13:28:12Z</time>
      </trkpt>
      <trkpt lat="48.1567" lon="6.43008">
        <ele>440.9</ele>
        <time>2012-05-04T13:28:14Z</time>
      </trkpt>
      <trkpt lat="48.1569" lon="6.42998">
        <ele>447.15</ele>
        <time>2012-05-04T13:28:27Z</time>
      </trkpt>
      <trkpt lat="48.15711" lon="6.42989">
        <ele>449.07</ele>
        <time>2012-05-04T13:28:37Z</time>
      </trkpt>
      <trkpt lat="48.15733" lon="6.42973">
        <ele>446.67</ele>
        <time>2012-05-04T13:28:49Z</time>
      </trkpt>
      <trkpt lat="48.15752" lon="6.4295">
        <ele>446.19</ele>
        <time>2012-05-04T13:28:59Z</time>
      </trkpt>
      <trkpt lat="48.15763" lon="6.42937">
        <ele>444.27</ele>
        <time>2012-05-04T13:29:05Z</time>
      </trkpt>
      <trkpt lat="48.1577" lon="6.42916">
        <ele>442.34</ele>
        <time>2012-05-04T13:29:12Z</time>
      </trkpt>
      <trkpt lat="48.15772" lon="6.429">
        <ele>441.86</ele>
        <time>2012-05-04T13:29:17Z</time>
      </trkpt>
      <trkpt lat="48.1577" lon="6.4287">
        <ele>441.38</ele>
        <time>2012-05-04T13:29:26Z</time>
      </trkpt>
      <trkpt lat="48.15764" lon="6.42853">
        <ele>442.34</ele>
        <time>2012-05-04T13:29:32Z</time>
      </trkpt>
      <trkpt lat="48.1575" lon="6.42811">
        <ele>445.71</ele>
        <time>2012-05-04T13:29:45Z</time>
      </trkpt>
      <trkpt lat="48.15745" lon="6.42773">
        <ele>449.55</ele>
        <time>2012-05-04T13:29:56Z</time>
      </trkpt>
      <trkpt lat="48.15748" lon="6.42759">
        <ele>449.55</ele>
        <time>2012-05-04T13:30:00Z</time>
      </trkpt>
      <trkpt lat="48.15765" lon="6.4274">
        <ele>447.15</ele>
        <time>2012-05-04T13:30:09Z</time>
      </trkpt>
      <trkpt lat="48.15782" lon="6.42761">
        <ele>445.71</ele>
        <time>2012-05-04T13:30:20Z</time>
      </trkpt>
      <trkpt lat="48.15791" lon="6.42781">
        <ele>444.27</ele>
        <time>2012-05-04T13:30:29Z</time>
      </trkpt>
      <trkpt lat="48.15812" lon="6.428">
        <ele>445.71</ele>
        <time>2012-05-04T13:30:41Z</time>
      </trkpt>
      <trkpt lat="48.15819" lon="6.42812">
        <ele>446.67</ele>
        <time>2012-05-04T13:30:45Z</time>
      </trkpt>
      <trkpt lat="48.15826" lon="6.42832">
        <ele>446.19</ele>
        <time>2012-05-04T13:30:51Z</time>
      </trkpt>
      <trkpt lat="48.1583" lon="6.42854">
        <ele>446.19</ele>
        <time>2012-05-04T13:30:58Z</time>
      </trkpt>
      <trkpt lat="48.15838" lon="6.4288">
        <ele>448.11</ele>
        <time>2012-05-04T13:31:07Z</time>
      </trkpt>
      <trkpt lat="48.15852" lon="6.42888">
        <ele>451.96</ele>
        <time>2012-05-04T13:31:14Z</time>
      </trkpt>
      <trkpt lat="48.15863" lon="6.42886">
        <ele>452.44</ele>
        <time>2012-05-04T13:31:19Z</time>
      </trkpt>
      <trkpt lat="48.15887" lon="6.42861">
        <ele>453.4</ele>
        <time>2012-05-04T13:31:31Z</time>
      </trkpt>
      <trkpt lat="48.15921" lon="6.42828">
        <ele>455.32</ele>
        <time>2012-05-04T13:31:45Z</time>
      </trkpt>
      <trkpt lat="48.15928" lon="6.4282">
        <ele>455.8</ele>
        <time>2012-05-04T13:31:55Z</time>
      </trkpt>
      <trkpt lat="48.15933" lon="6.42811">
        <ele>455.8</ele>
        <time>2012-05-04T13:31:59Z</time>
      </trkpt>
      <trkpt lat="48.15958" lon="6.42778">
        <ele>453.88</ele>
        <time>2012-05-04T13:32:08Z</time>
      </trkpt>
      <trkpt lat="48.15982" lon="6.4275">
        <ele>452.92</ele>
        <time>2012-05-04T13:32:13Z</time>
      </trkpt>
      <trkpt lat="48.15986" lon="6.42743">
        <ele>452.92</ele>
        <time>2012-05-04T13:32:14Z</time>
      </trkpt>
      <trkpt lat="48.15988" lon="6.42734">
        <ele>452.44</ele>
        <time>2012-05-04T13:32:15Z</time>
      </trkpt>
      <trkpt lat="48.15989" lon="6.42724">
        <ele>452.44</ele>
        <time>2012-05-04T13:32:16Z</time>
      </trkpt>
      <trkpt lat="48.15988" lon="6.42714">
        <ele>452.44</ele>
        <time>2012-05-04T13:32:17Z</time>
      </trkpt>
      <trkpt lat="48.15986" lon="6.42703">
        <ele>452.44</ele>
        <time>2012-05-04T13:32:18Z</time>
      </trkpt>
      <trkpt lat="48.15984" lon="6.42694">
        <ele>452.44</ele>
        <time>2012-05-04T13:32:19Z</time>
      </trkpt>
      <trkpt lat="48.15982" lon="6.42684">
        <ele>451.96</ele>
        <time>2012-05-04T13:32:20Z</time>
      </trkpt>
      <trkpt lat="48.1598" lon="6.42675">
        <ele>451.96</ele>
        <time>2012-05-04T13:32:21Z</time>
      </trkpt>
      <trkpt lat="48.15979" lon="6.42666">
        <ele>451.96</ele>
        <time>2012-05-04T13:32:22Z</time>
      </trkpt>
      <trkpt lat="48.15978" lon="6.42656">
        <ele>451.96</ele>
        <time>2012-05-04T13:32:23Z</time>
      </trkpt>
      <trkpt lat="48.15977" lon="6.42637">
        <ele>452.44</ele>
        <time>2012-05-04T13:32:25Z</time>
      </trkpt>
      <trkpt lat="48.15978" lon="6.4261">
        <ele>452.44</ele>
        <time>2012-05-04T13:32:28Z</time>
      </trkpt>
      <trkpt lat="48.15981" lon="6.42587">
        <ele>452.92</ele>
        <time>2012-05-04T13:32:31Z</time>
      </trkpt>
      <trkpt lat="48.15983" lon="6.4258">
        <ele>453.4</ele>
        <time>2012-05-04T13:32:32Z</time>
      </trkpt>
      <trkpt lat="48.15985" lon="6.42574">
        <ele>453.4</ele>
        <time>2012-05-04T13:32:33Z</time>
      </trkpt>
      <trkpt lat="48.15998" lon="6.4255">
        <ele>454.84</ele>
        <time>2012-05-04T13:32:38Z</time>
      </trkpt>
      <trkpt lat="48.16002" lon="6.42545">
        <ele>455.32</ele>
        <time>2012-05-04T13:32:39Z</time>
      </trkpt>
      <trkpt lat="48.16006" lon="6.42541">
        <ele>455.8</ele>
        <time>2012-05-04T13:32:40Z</time>
      </trkpt>
      <trkpt lat="48.16029" lon="6.42515">
        <ele>457.72</ele>
        <time>2012-05-04T13:32:46Z</time>
      </trkpt>
      <trkpt lat="48.16063" lon="6.42482">
        <ele>461.57</ele>
        <time>2012-05-04T13:32:56Z</time>
      </trkpt>
      <trkpt lat="48.16091" lon="6.42455">
        <ele>464.93</ele>
        <time>2012-05-04T13:33:07Z</time>
      </trkpt>
      <trkpt lat="48.16111" lon="6.42437">
        <ele>466.38</ele>
        <time>2012-05-04T13:33:15Z</time>
      </trkpt>
      <trkpt lat="48.16118" lon="6.42428">
        <ele>465.42</ele>
        <time>2012-05-04T13:33:18Z</time>
      </trkpt>
      <trkpt lat="48.16153" lon="6.42379">
        <ele>460.61</ele>
        <time>2012-05-04T13:33:28Z</time>
      </trkpt>
      <trkpt lat="48.1617" lon="6.42353">
        <ele>458.69</ele>
        <time>2012-05-04T13:33:33Z</time>
      </trkpt>
      <trkpt lat="48.16187" lon="6.42327">
        <ele>456.28</ele>
        <time>2012-05-04T13:33:38Z</time>
      </trkpt>
      <trkpt lat="48.162" lon="6.42304">
        <ele>454.84</ele>
        <time>2012-05-04T13:33:42Z</time>
      </trkpt>
      <trkpt lat="48.16207" lon="6.42293">
        <ele>454.84</ele>
        <time>2012-05-04T13:33:44Z</time>
      </trkpt>
      <trkpt lat="48.16213" lon="6.42281">
        <ele>454.36</ele>
        <time>2012-05-04T13:33:46Z</time>
      </trkpt>
      <trkpt lat="48.16223" lon="6.42263">
        <ele>454.36</ele>
        <time>2012-05-04T13:33:49Z</time>
      </trkpt>
      <trkpt lat="48.1624" lon="6.42228">
        <ele>451.48</ele>
        <time>2012-05-04T13:33:55Z</time>
      </trkpt>
      <trkpt lat="48.16252" lon="6.42206">
        <ele>450.52</ele>
        <time>2012-05-04T13:33:59Z</time>
      </trkpt>
      <trkpt lat="48.16257" lon="6.42194">
        <ele>450.03</ele>
        <time>2012-05-04T13:34:01Z</time>
      </trkpt>
      <trkpt lat="48.16272" lon="6.42168">
        <ele>449.55</ele>
        <time>2012-05-04T13:34:06Z</time>
      </trkpt>
      <trkpt lat="48.16293" lon="6.42146">
        <ele>450.03</ele>
        <time>2012-05-04T13:34:16Z</time>
      </trkpt>
      <trkpt lat="48.16303" lon="6.42149">
        <ele>449.07</ele>
        <time>2012-05-04T13:34:19Z</time>
      </trkpt>
      <trkpt lat="48.16325" lon="6.42155">
        <ele>446.19</ele>
        <time>2012-05-04T13:34:26Z</time>
      </trkpt>
      <trkpt lat="48.16341" lon="6.42154">
        <ele>443.79</ele>
        <time>2012-05-04T13:34:41Z</time>
      </trkpt>
      <trkpt lat="48.16344" lon="6.42155">
        <ele>443.31</ele>
        <time>2012-05-04T13:34:43Z</time>
      </trkpt>
      <trkpt lat="48.16363" lon="6.4216">
        <ele>440.42</ele>
        <time>2012-05-04T13:34:49Z</time>
      </trkpt>
      <trkpt lat="48.16401" lon="6.4215">
        <ele>432.25</ele>
        <time>2012-05-04T13:34:57Z</time>
      </trkpt>
      <trkpt lat="48.16438" lon="6.42131">
        <ele>421.68</ele>
        <time>2012-05-04T13:35:05Z</time>
      </trkpt>
      <trkpt lat="48.1645" lon="6.42136">
        <ele>416.39</ele>
        <time>2012-05-04T13:35:09Z</time>
      </trkpt>
      <trkpt lat="48.16473" lon="6.42139">
        <ele>411.1</ele>
        <time>2012-05-04T13:35:15Z</time>
      </trkpt>
      <trkpt lat="48.16472" lon="6.4215">
        <ele>409.18</ele>
        <time>2012-05-04T13:35:19Z</time>
      </trkpt>
      <trkpt lat="48.16467" lon="6.42167">
        <ele>404.85</ele>
        <time>2012-05-04T13:35:27Z</time>
      </trkpt>
      <trkpt lat="48.16469" lon="6.42169">
        <ele>403.41</ele>
        <time>2012-05-04T13:35:31Z</time>
      </trkpt>
      <trkpt lat="48.1649" lon="6.42156">
        <ele>397.16</ele>
        <time>2012-05-04T13:35:40Z</time>
      </trkpt>
      <trkpt lat="48.165" lon="6.42154">
        <ele>396.68</ele>
        <time>2012-05-04T13:35:49Z</time>
      </trkpt>
      <trkpt lat="48.16505" lon="6.42148">
        <ele>395.72</ele>
        <time>2012-05-04T13:35:51Z</time>
      </trkpt>
      <trkpt lat="48.16509" lon="6.42142">
        <ele>395.72</ele>
        <time>2012-05-04T13:35:52Z</time>
      </trkpt>
      <trkpt lat="48.16518" lon="6.42129">
        <ele>394.76</ele>
        <time>2012-05-04T13:35:56Z</time>
      </trkpt>
      <trkpt lat="48.16518" lon="6.42127">
        <ele>394.28</ele>
        <time>2012-05-04T13:35:57Z</time>
      </trkpt>
      <trkpt lat="48.16519" lon="6.42125">
        <ele>393.8</ele>
        <time>2012-05-04T13:35:58Z</time>
      </trkpt>
      <trkpt lat="48.16529" lon="6.42117">
        <ele>396.2</ele>
        <time>2012-05-04T13:36:11Z</time>
      </trkpt>
      <trkpt lat="48.16532" lon="6.42118">
        <ele>398.6</ele>
        <time>2012-05-04T13:36:40Z</time>
      </trkpt>
      <trkpt lat="48.16531" lon="6.42118">
        <ele>399.08</ele>
        <time>2012-05-04T13:36:44Z</time>
      </trkpt>
      <trkpt lat="48.1653" lon="6.42119">
        <ele>399.08</ele>
        <time>2012-05-04T13:36:45Z</time>
      </trkpt>
      <trkpt lat="48.16529" lon="6.42124">
        <ele>400.53</ele>
        <time>2012-05-04T13:36:55Z</time>
      </trkpt>
      <trkpt lat="48.16531" lon="6.42126">
        <ele>401.97</ele>
        <time>2012-05-04T13:37:06Z</time>
      </trkpt>
      <trkpt lat="48.16528" lon="6.42125">
        <ele>402.93</ele>
        <time>2012-05-04T13:37:23Z</time>
      </trkpt>
      <trkpt lat="48.16528" lon="6.42126">
        <ele>403.89</ele>
        <time>2012-05-04T13:37:55Z</time>
      </trkpt>
      <trkpt lat="48.16526" lon="6.42126">
        <ele>405.81</ele>
        <time>2012-05-04T13:38:24Z</time>
      </trkpt>
      <trkpt lat="48.16527" lon="6.42123">
        <ele>406.77</ele>
        <time>2012-05-04T13:38:37Z</time>
      </trkpt>
      <trkpt lat="48.16533" lon="6.42115">
        <ele>405.81</ele>
        <time>2012-05-04T13:38:42Z</time>
      </trkpt>
      <trkpt lat="48.16533" lon="6.42111">
        <ele>405.33</ele>
        <time>2012-05-04T13:38:43Z</time>
      </trkpt>
      <trkpt lat="48.16532" lon="6.42106">
        <ele>405.33</ele>
        <time>2012-05-04T13:38:44Z</time>
      </trkpt>
      <trkpt lat="48.16531" lon="6.421">
        <ele>404.85</ele>
        <time>2012-05-04T13:38:45Z</time>
      </trkpt>
      <trkpt lat="48.16531" lon="6.42097">
        <ele>404.85</ele>
        <time>2012-05-04T13:38:46Z</time>
      </trkpt>
      <trkpt lat="48.16531" lon="6.42088">
        <ele>404.37</ele>
        <time>2012-05-04T13:38:49Z</time>
      </trkpt>
      <trkpt lat="48.16533" lon="6.42087">
        <ele>404.37</ele>
        <time>2012-05-04T13:38:50Z</time>
      </trkpt>
      <trkpt lat="48.16534" lon="6.42087">
        <ele>404.37</ele>
        <time>2012-05-04T13:38:51Z</time>
      </trkpt>
      <trkpt lat="48.16538" lon="6.4209">
        <ele>403.89</ele>
        <time>2012-05-04T13:38:55Z</time>
      </trkpt>
      <trkpt lat="48.1655" lon="6.42107">
        <ele>403.89</ele>
        <time>2012-05-04T13:38:58Z</time>
      </trkpt>
      <trkpt lat="48.16554" lon="6.42111">
        <ele>403.89</ele>
        <time>2012-05-04T13:38:59Z</time>
      </trkpt>
      <trkpt lat="48.16558" lon="6.42113">
        <ele>403.41</ele>
        <time>2012-05-04T13:39:00Z</time>
      </trkpt>
      <trkpt lat="48.16563" lon="6.42113">
        <ele>403.41</ele>
        <time>2012-05-04T13:39:01Z</time>
      </trkpt>
      <trkpt lat="48.16566" lon="6.42113">
        <ele>403.41</ele>
        <time>2012-05-04T13:39:02Z</time>
      </trkpt>
      <trkpt lat="48.16569" lon="6.42111">
        <ele>403.41</ele>
        <time>2012-05-04T13:39:03Z</time>
      </trkpt>
      <trkpt lat="48.16571" lon="6.4211">
        <ele>402.93</ele>
        <time>2012-05-04T13:39:04Z</time>
      </trkpt>
      <trkpt lat="48.16573" lon="6.42109">
        <ele>402.93</ele>
        <time>2012-05-04T13:39:05Z</time>
      </trkpt>
      <trkpt lat="48.16606" lon="6.42085">
        <ele>400.05</ele>
        <time>2012-05-04T13:39:17Z</time>
      </trkpt>
      <trkpt lat="48.16638" lon="6.42047">
        <ele>397.64</ele>
        <time>2012-05-04T13:39:28Z</time>
      </trkpt>
      <trkpt lat="48.16673" lon="6.42012">
        <ele>394.76</ele>
        <time>2012-05-04T13:39:40Z</time>
      </trkpt>
      <trkpt lat="48.16684" lon="6.41964">
        <ele>393.32</ele>
        <time>2012-05-04T13:39:49Z</time>
      </trkpt>
      <trkpt lat="48.16683" lon="6.41958">
        <ele>393.32</ele>
        <time>2012-05-04T13:39:50Z</time>
      </trkpt>
      <trkpt lat="48.16665" lon="6.41887">
        <ele>394.28</ele>
        <time>2012-05-04T13:40:03Z</time>
      </trkpt>
      <trkpt lat="48.1665" lon="6.41828">
        <ele>395.72</ele>
        <time>2012-05-04T13:40:15Z</time>
      </trkpt>
      <trkpt lat="48.16647" lon="6.41812">
        <ele>393.8</ele>
        <time>2012-05-04T13:40:18Z</time>
      </trkpt>
      <trkpt lat="48.16642" lon="6.41796">
        <ele>392.36</ele>
        <time>2012-05-04T13:40:20Z</time>
      </trkpt>
      <trkpt lat="48.16639" lon="6.41787">
        <ele>391.87</ele>
        <time>2012-05-04T13:40:21Z</time>
      </trkpt>
      <trkpt lat="48.16597" lon="6.41684">
        <ele>383.7</ele>
        <time>2012-05-04T13:40:31Z</time>
      </trkpt>
      <trkpt lat="48.16589" lon="6.41668">
        <ele>381.78</ele>
        <time>2012-05-04T13:40:33Z</time>
      </trkpt>
      <trkpt lat="48.16583" lon="6.41649">
        <ele>379.38</ele>
        <time>2012-05-04T13:40:36Z</time>
      </trkpt>
      <trkpt lat="48.16583" lon="6.41645">
        <ele>378.42</ele>
        <time>2012-05-04T13:40:37Z</time>
      </trkpt>
      <trkpt lat="48.16582" lon="6.41642">
        <ele>377.45</ele>
        <time>2012-05-04T13:40:38Z</time>
      </trkpt>
      <trkpt lat="48.16581" lon="6.41639">
        <ele>376.49</ele>
        <time>2012-05-04T13:40:39Z</time>
      </trkpt>
      <trkpt lat="48.1658" lon="6.41636">
        <ele>375.53</ele>
        <time>2012-05-04T13:40:40Z</time>
      </trkpt>
      <trkpt lat="48.16578" lon="6.41633">
        <ele>375.05</ele>
        <time>2012-05-04T13:40:41Z</time>
      </trkpt>
      <trkpt lat="48.16576" lon="6.41628">
        <ele>374.09</ele>
        <time>2012-05-04T13:40:42Z</time>
      </trkpt>
      <trkpt lat="48.16574" lon="6.41622">
        <ele>373.13</ele>
        <time>2012-05-04T13:40:43Z</time>
      </trkpt>
      <trkpt lat="48.16569" lon="6.41606">
        <ele>370.73</ele>
        <time>2012-05-04T13:40:45Z</time>
      </trkpt>
      <trkpt lat="48.16565" lon="6.41598">
        <ele>369.28</ele>
        <time>2012-05-04T13:40:46Z</time>
      </trkpt>
      <trkpt lat="48.16562" lon="6.41592">
        <ele>368.32</ele>
        <time>2012-05-04T13:40:47Z</time>
      </trkpt>
      <trkpt lat="48.1656" lon="6.41588">
        <ele>367.36</ele>
        <time>2012-05-04T13:40:48Z</time>
      </trkpt>
      <trkpt lat="48.16558" lon="6.41587">
        <ele>366.4</ele>
        <time>2012-05-04T13:40:49Z</time>
      </trkpt>
      <trkpt lat="48.16555" lon="6.41583">
        <ele>364.48</ele>
        <time>2012-05-04T13:41:02Z</time>
      </trkpt>
      <trkpt lat="48.16554" lon="6.41585">
        <ele>366.4</ele>
        <time>2012-05-04T13:41:27Z</time>
      </trkpt>
      <trkpt lat="48.16553" lon="6.41584">
        <ele>367.84</ele>
        <time>2012-05-04T13:41:52Z</time>
      </trkpt>
      <trkpt lat="48.16554" lon="6.41585">
        <ele>367.36</ele>
        <time>2012-05-04T13:42:11Z</time>
      </trkpt>
      <trkpt lat="48.16555" lon="6.41586">
        <ele>367.36</ele>
        <time>2012-05-04T13:42:13Z</time>
      </trkpt>
      <trkpt lat="48.16557" lon="6.41587">
        <ele>367.36</ele>
        <time>2012-05-04T13:42:14Z</time>
      </trkpt>
      <trkpt lat="48.16559" lon="6.41588">
        <ele>367.36</ele>
        <time>2012-05-04T13:42:15Z</time>
      </trkpt>
      <trkpt lat="48.1656" lon="6.4159">
        <ele>367.36</ele>
        <time>2012-05-04T13:42:16Z</time>
      </trkpt>
      <trkpt lat="48.16562" lon="6.41592">
        <ele>366.88</ele>
        <time>2012-05-04T13:42:17Z</time>
      </trkpt>
      <trkpt lat="48.16564" lon="6.41595">
        <ele>366.4</ele>
        <time>2012-05-04T13:42:18Z</time>
      </trkpt>
      <trkpt lat="48.16565" lon="6.41599">
        <ele>366.4</ele>
        <time>2012-05-04T13:42:19Z</time>
      </trkpt>
      <trkpt lat="48.16567" lon="6.41602">
        <ele>366.4</ele>
        <time>2012-05-04T13:42:20Z</time>
      </trkpt>
      <trkpt lat="48.16569" lon="6.41604">
        <ele>366.4</ele>
        <time>2012-05-04T13:42:21Z</time>
      </trkpt>
      <trkpt lat="48.16571" lon="6.41606">
        <ele>365.92</ele>
        <time>2012-05-04T13:42:22Z</time>
      </trkpt>
      <trkpt lat="48.16574" lon="6.41609">
        <ele>365.44</ele>
        <time>2012-05-04T13:42:23Z</time>
      </trkpt>
      <trkpt lat="48.16576" lon="6.41613">
        <ele>364.96</ele>
        <time>2012-05-04T13:42:24Z</time>
      </trkpt>
      <trkpt lat="48.16577" lon="6.41616">
        <ele>364.48</ele>
        <time>2012-05-04T13:42:25Z</time>
      </trkpt>
      <trkpt lat="48.16579" lon="6.41617">
        <ele>364</ele>
        <time>2012-05-04T13:42:26Z</time>
      </trkpt>
      <trkpt lat="48.16581" lon="6.41618">
        <ele>363.04</ele>
        <time>2012-05-04T13:42:27Z</time>
      </trkpt>
      <trkpt lat="48.16582" lon="6.41619">
        <ele>362.55</ele>
        <time>2012-05-04T13:42:28Z</time>
      </trkpt>
      <trkpt lat="48.16583" lon="6.4162">
        <ele>362.07</ele>
        <time>2012-05-04T13:42:30Z</time>
      </trkpt>
      <trkpt lat="48.16585" lon="6.41622">
        <ele>361.59</ele>
        <time>2012-05-04T13:42:31Z</time>
      </trkpt>
      <trkpt lat="48.16586" lon="6.41626">
        <ele>360.63</ele>
        <time>2012-05-04T13:42:32Z</time>
      </trkpt>
      <trkpt lat="48.16586" lon="6.41629">
        <ele>360.15</ele>
        <time>2012-05-04T13:42:33Z</time>
      </trkpt>
      <trkpt lat="48.16587" lon="6.41633">
        <ele>358.71</ele>
        <time>2012-05-04T13:42:35Z</time>
      </trkpt>
      <trkpt lat="48.16588" lon="6.41635">
        <ele>357.75</ele>
        <time>2012-05-04T13:42:36Z</time>
      </trkpt>
      <trkpt lat="48.1659" lon="6.41637">
        <ele>357.27</ele>
        <time>2012-05-04T13:42:37Z</time>
      </trkpt>
      <trkpt lat="48.16592" lon="6.41639">
        <ele>356.79</ele>
        <time>2012-05-04T13:42:38Z</time>
      </trkpt>
      <trkpt lat="48.16595" lon="6.41641">
        <ele>356.31</ele>
        <time>2012-05-04T13:42:39Z</time>
      </trkpt>
      <trkpt lat="48.16597" lon="6.41644">
        <ele>355.83</ele>
        <time>2012-05-04T13:42:40Z</time>
      </trkpt>
      <trkpt lat="48.16598" lon="6.41647">
        <ele>355.34</ele>
        <time>2012-05-04T13:42:41Z</time>
      </trkpt>
      <trkpt lat="48.16598" lon="6.4165">
        <ele>354.86</ele>
        <time>2012-05-04T13:42:42Z</time>
      </trkpt>
      <trkpt lat="48.16599" lon="6.41654">
        <ele>353.9</ele>
        <time>2012-05-04T13:42:43Z</time>
      </trkpt>
      <trkpt lat="48.16601" lon="6.41657">
        <ele>353.42</ele>
        <time>2012-05-04T13:42:44Z</time>
      </trkpt>
      <trkpt lat="48.16604" lon="6.41659">
        <ele>352.94</ele>
        <time>2012-05-04T13:42:45Z</time>
      </trkpt>
      <trkpt lat="48.16607" lon="6.41661">
        <ele>352.46</ele>
        <time>2012-05-04T13:42:46Z</time>
      </trkpt>
      <trkpt lat="48.1661" lon="6.41664">
        <ele>352.94</ele>
        <time>2012-05-04T13:42:47Z</time>
      </trkpt>
      <trkpt lat="48.16619" lon="6.4167">
        <ele>352.94</ele>
        <time>2012-05-04T13:42:49Z</time>
      </trkpt>
      <trkpt lat="48.16623" lon="6.41675">
        <ele>352.94</ele>
        <time>2012-05-04T13:42:50Z</time>
      </trkpt>
      <trkpt lat="48.16648" lon="6.41705">
        <ele>351.98</ele>
        <time>2012-05-04T13:42:58Z</time>
      </trkpt>
      <trkpt lat="48.16656" lon="6.41715">
        <ele>351.5</ele>
        <time>2012-05-04T13:43:00Z</time>
      </trkpt>
      <trkpt lat="48.16659" lon="6.4172">
        <ele>351.5</ele>
        <time>2012-05-04T13:43:01Z</time>
      </trkpt>
      <trkpt lat="48.16662" lon="6.41725">
        <ele>351.5</ele>
        <time>2012-05-04T13:43:02Z</time>
      </trkpt>
      <trkpt lat="48.16666" lon="6.4173">
        <ele>351.5</ele>
        <time>2012-05-04T13:43:03Z</time>
      </trkpt>
      <trkpt lat="48.16669" lon="6.41735">
        <ele>351.5</ele>
        <time>2012-05-04T13:43:04Z</time>
      </trkpt>
      <trkpt lat="48.16673" lon="6.41739">
        <ele>351.5</ele>
        <time>2012-05-04T13:43:05Z</time>
      </trkpt>
      <trkpt lat="48.16703" lon="6.41779">
        <ele>351.02</ele>
        <time>2012-05-04T13:43:12Z</time>
      </trkpt>
      <trkpt lat="48.16719" lon="6.41802">
        <ele>351.02</ele>
        <time>2012-05-04T13:43:16Z</time>
      </trkpt>
      <trkpt lat="48.16738" lon="6.41826">
        <ele>350.54</ele>
        <time>2012-05-04T13:43:22Z</time>
      </trkpt>
      <trkpt lat="48.16748" lon="6.41838">
        <ele>349.58</ele>
        <time>2012-05-04T13:43:25Z</time>
      </trkpt>
      <trkpt lat="48.1677" lon="6.41864">
        <ele>348.62</ele>
        <time>2012-05-04T13:43:30Z</time>
      </trkpt>
      <trkpt lat="48.16786" lon="6.41876">
        <ele>348.62</ele>
        <time>2012-05-04T13:43:33Z</time>
      </trkpt>
      <trkpt lat="48.16816" lon="6.4191">
        <ele>351.5</ele>
        <time>2012-05-04T13:43:41Z</time>
      </trkpt>
      <trkpt lat="48.16833" lon="6.41931">
        <ele>352.46</ele>
        <time>2012-05-04T13:43:45Z</time>
      </trkpt>
      <trkpt lat="48.1685" lon="6.4195">
        <ele>352.94</ele>
        <time>2012-05-04T13:43:48Z</time>
      </trkpt>
      <trkpt lat="48.16861" lon="6.41963">
        <ele>352.94</ele>
        <time>2012-05-04T13:43:50Z</time>
      </trkpt>
      <trkpt lat="48.16867" lon="6.41966">
        <ele>352.94</ele>
        <time>2012-05-04T13:43:51Z</time>
      </trkpt>
      <trkpt lat="48.16872" lon="6.41965">
        <ele>352.94</ele>
        <time>2012-05-04T13:43:52Z</time>
      </trkpt>
      <trkpt lat="48.16876" lon="6.41962">
        <ele>352.94</ele>
        <time>2012-05-04T13:43:53Z</time>
      </trkpt>
      <trkpt lat="48.1688" lon="6.41959">
        <ele>352.94</ele>
        <time>2012-05-04T13:43:54Z</time>
      </trkpt>
      <trkpt lat="48.16882" lon="6.41954">
        <ele>352.94</ele>
        <time>2012-05-04T13:43:55Z</time>
      </trkpt>
      <trkpt lat="48.16884" lon="6.41948">
        <ele>352.94</ele>
        <time>2012-05-04T13:43:56Z</time>
      </trkpt>
      <trkpt lat="48.16886" lon="6.41943">
        <ele>353.42</ele>
        <time>2012-05-04T13:43:57Z</time>
      </trkpt>
      <trkpt lat="48.16887" lon="6.41937">
        <ele>353.9</ele>
        <time>2012-05-04T13:43:58Z</time>
      </trkpt>
      <trkpt lat="48.16906" lon="6.41905">
        <ele>359.67</ele>
        <time>2012-05-04T13:44:08Z</time>
      </trkpt>
      <trkpt lat="48.16933" lon="6.41919">
        <ele>362.55</ele>
        <time>2012-05-04T13:44:18Z</time>
      </trkpt>
      <trkpt lat="48.16973" lon="6.41929">
        <ele>363.52</ele>
        <time>2012-05-04T13:44:32Z</time>
      </trkpt>
      <trkpt lat="48.16982" lon="6.41933">
        <ele>363.04</ele>
        <time>2012-05-04T13:44:34Z</time>
      </trkpt>
      <trkpt lat="48.16987" lon="6.41936">
        <ele>363.04</ele>
        <time>2012-05-04T13:44:35Z</time>
      </trkpt>
      <trkpt lat="48.16991" lon="6.41939">
        <ele>363.52</ele>
        <time>2012-05-04T13:44:36Z</time>
      </trkpt>
      <trkpt lat="48.17061" lon="6.42001">
        <ele>362.55</ele>
        <time>2012-05-04T13:44:49Z</time>
      </trkpt>
      <trkpt lat="48.17077" lon="6.42016">
        <ele>362.55</ele>
        <time>2012-05-04T13:44:52Z</time>
      </trkpt>
      <trkpt lat="48.17131" lon="6.42066">
        <ele>363.04</ele>
        <time>2012-05-04T13:45:02Z</time>
      </trkpt>
      <trkpt lat="48.17173" lon="6.42105">
        <ele>362.07</ele>
        <time>2012-05-04T13:45:09Z</time>
      </trkpt>
      <trkpt lat="48.17179" lon="6.4211">
        <ele>362.07</ele>
        <time>2012-05-04T13:45:10Z</time>
      </trkpt>
      <trkpt lat="48.17237" lon="6.42172">
        <ele>361.11</ele>
        <time>2012-05-04T13:45:20Z</time>
      </trkpt>
      <trkpt lat="48.17243" lon="6.42175">
        <ele>361.59</ele>
        <time>2012-05-04T13:45:21Z</time>
      </trkpt>
      <trkpt lat="48.17249" lon="6.42177">
        <ele>362.07</ele>
        <time>2012-05-04T13:45:22Z</time>
      </trkpt>
      <trkpt lat="48.17254" lon="6.42178">
        <ele>362.07</ele>
        <time>2012-05-04T13:45:23Z</time>
      </trkpt>
      <trkpt lat="48.17259" lon="6.42179">
        <ele>362.55</ele>
        <time>2012-05-04T13:45:24Z</time>
      </trkpt>
      <trkpt lat="48.17264" lon="6.4218">
        <ele>362.55</ele>
        <time>2012-05-04T13:45:25Z</time>
      </trkpt>
      <trkpt lat="48.17269" lon="6.4218">
        <ele>363.04</ele>
        <time>2012-05-04T13:45:26Z</time>
      </trkpt>
      <trkpt lat="48.17273" lon="6.4218">
        <ele>363.04</ele>
        <time>2012-05-04T13:45:27Z</time>
      </trkpt>
      <trkpt lat="48.17298" lon="6.42185">
        <ele>364</ele>
        <time>2012-05-04T13:45:35Z</time>
      </trkpt>
    </trkseg>
  </trk>
</gpx>